<?xml version="1.0" encoding="UTF-8" standalone="no" ?>
<gpx xmlns="http://www.topografix.com/GPX/1/1" xmlns:xsi="http://www.w3.org/2001/XMLSchema-instance" xsi:schemaLocation="http://www.topografix.com/GPX/1/1 http://www.topografix.com/GPX/1/1/gpx.xsd" version="1.1" creator="VisuGPX - https://www.visugpx.com">
  <metadata>
    <name>83-libre-St Paul en Forêt</name>
    <desc><![CDATA[83-libre-St Paul en Forêt : lac de Méaulx
2021-02-21]]></desc>
  </metadata>
  <trk>
    <name><![CDATA[2021-02-21_StPaul en foret-meaulx]]></name>
    <trkseg>
      <trkpt lat="43.56971" lon="6.66104">
        <ele>205.6</ele>
        <time>2021-02-21T08:36:05Z</time>
      </trkpt>
      <trkpt lat="43.56971" lon="6.66104">
        <ele>205.6</ele>
        <time>2021-02-21T08:36:06Z</time>
      </trkpt>
      <trkpt lat="43.56972" lon="6.66104">
        <ele>206</ele>
        <time>2021-02-21T08:36:16Z</time>
      </trkpt>
      <trkpt lat="43.56972" lon="6.66104">
        <ele>206</ele>
        <time>2021-02-21T08:36:16Z</time>
      </trkpt>
      <trkpt lat="43.56971" lon="6.66104">
        <ele>206.1</ele>
        <time>2021-02-21T08:36:18Z</time>
      </trkpt>
      <trkpt lat="43.56971" lon="6.66104">
        <ele>206.1</ele>
        <time>2021-02-21T08:36:19Z</time>
      </trkpt>
      <trkpt lat="43.56971" lon="6.66104">
        <ele>205.9</ele>
        <time>2021-02-21T08:36:21Z</time>
      </trkpt>
      <trkpt lat="43.56971" lon="6.66104">
        <ele>205.8</ele>
        <time>2021-02-21T08:36:22Z</time>
      </trkpt>
      <trkpt lat="43.56971" lon="6.66104">
        <ele>205.8</ele>
        <time>2021-02-21T08:36:23Z</time>
      </trkpt>
      <trkpt lat="43.56971" lon="6.66104">
        <ele>205.9</ele>
        <time>2021-02-21T08:36:24Z</time>
      </trkpt>
      <trkpt lat="43.56971" lon="6.66102">
        <ele>206.2</ele>
        <time>2021-02-21T08:36:27Z</time>
      </trkpt>
      <trkpt lat="43.56971" lon="6.66102">
        <ele>205.9</ele>
        <time>2021-02-21T08:36:31Z</time>
      </trkpt>
      <trkpt lat="43.56968" lon="6.66099">
        <ele>202.1</ele>
        <time>2021-02-21T08:36:42Z</time>
      </trkpt>
      <trkpt lat="43.56968" lon="6.66099">
        <ele>201.1</ele>
        <time>2021-02-21T08:36:44Z</time>
      </trkpt>
      <trkpt lat="43.56968" lon="6.661">
        <ele>201.1</ele>
        <time>2021-02-21T08:36:46Z</time>
      </trkpt>
      <trkpt lat="43.56967" lon="6.661">
        <ele>201.1</ele>
        <time>2021-02-21T08:36:48Z</time>
      </trkpt>
      <trkpt lat="43.56973" lon="6.6611">
        <ele>200.5</ele>
        <time>2021-02-21T08:37:27Z</time>
      </trkpt>
      <trkpt lat="43.56977" lon="6.66113">
        <ele>200.4</ele>
        <time>2021-02-21T08:37:36Z</time>
      </trkpt>
      <trkpt lat="43.56976" lon="6.66113">
        <ele>200.5</ele>
        <time>2021-02-21T08:37:37Z</time>
      </trkpt>
      <trkpt lat="43.56976" lon="6.66113">
        <ele>200.3</ele>
        <time>2021-02-21T08:37:39Z</time>
      </trkpt>
      <trkpt lat="43.56976" lon="6.66113">
        <ele>200.3</ele>
        <time>2021-02-21T08:37:40Z</time>
      </trkpt>
      <trkpt lat="43.56974" lon="6.66113">
        <ele>200.3</ele>
        <time>2021-02-21T08:37:45Z</time>
      </trkpt>
      <trkpt lat="43.56974" lon="6.66113">
        <ele>200.4</ele>
        <time>2021-02-21T08:37:47Z</time>
      </trkpt>
      <trkpt lat="43.56976" lon="6.66111">
        <ele>200.5</ele>
        <time>2021-02-21T08:37:55Z</time>
      </trkpt>
      <trkpt lat="43.56976" lon="6.66111">
        <ele>200.3</ele>
        <time>2021-02-21T08:37:59Z</time>
      </trkpt>
      <trkpt lat="43.56972" lon="6.66105">
        <ele>200.1</ele>
        <time>2021-02-21T08:38:26Z</time>
      </trkpt>
      <trkpt lat="43.56972" lon="6.66105">
        <ele>200.4</ele>
        <time>2021-02-21T08:38:41Z</time>
      </trkpt>
      <trkpt lat="43.56972" lon="6.66105">
        <ele>200.4</ele>
        <time>2021-02-21T08:38:42Z</time>
      </trkpt>
      <trkpt lat="43.56972" lon="6.66106">
        <ele>200.4</ele>
        <time>2021-02-21T08:38:49Z</time>
      </trkpt>
      <trkpt lat="43.56972" lon="6.66106">
        <ele>200.5</ele>
        <time>2021-02-21T08:38:50Z</time>
      </trkpt>
      <trkpt lat="43.56972" lon="6.66106">
        <ele>200.5</ele>
        <time>2021-02-21T08:38:57Z</time>
      </trkpt>
      <trkpt lat="43.56972" lon="6.66106">
        <ele>200.5</ele>
        <time>2021-02-21T08:39:00Z</time>
      </trkpt>
      <trkpt lat="43.56972" lon="6.66107">
        <ele>200.5</ele>
        <time>2021-02-21T08:39:03Z</time>
      </trkpt>
      <trkpt lat="43.56972" lon="6.66107">
        <ele>200.4</ele>
        <time>2021-02-21T08:39:04Z</time>
      </trkpt>
      <trkpt lat="43.56972" lon="6.66107">
        <ele>200.6</ele>
        <time>2021-02-21T08:39:10Z</time>
      </trkpt>
      <trkpt lat="43.56972" lon="6.66107">
        <ele>200.7</ele>
        <time>2021-02-21T08:39:11Z</time>
      </trkpt>
      <trkpt lat="43.56972" lon="6.66107">
        <ele>200.6</ele>
        <time>2021-02-21T08:39:13Z</time>
      </trkpt>
      <trkpt lat="43.56972" lon="6.66107">
        <ele>200.6</ele>
        <time>2021-02-21T08:39:14Z</time>
      </trkpt>
      <trkpt lat="43.56972" lon="6.66107">
        <ele>200.6</ele>
        <time>2021-02-21T08:39:16Z</time>
      </trkpt>
      <trkpt lat="43.56972" lon="6.66107">
        <ele>200.5</ele>
        <time>2021-02-21T08:39:17Z</time>
      </trkpt>
      <trkpt lat="43.56973" lon="6.66107">
        <ele>200.7</ele>
        <time>2021-02-21T08:39:46Z</time>
      </trkpt>
      <trkpt lat="43.56973" lon="6.66107">
        <ele>200.6</ele>
        <time>2021-02-21T08:39:47Z</time>
      </trkpt>
      <trkpt lat="43.56973" lon="6.66107">
        <ele>200.4</ele>
        <time>2021-02-21T08:39:59Z</time>
      </trkpt>
      <trkpt lat="43.56973" lon="6.66107">
        <ele>200.3</ele>
        <time>2021-02-21T08:40:00Z</time>
      </trkpt>
      <trkpt lat="43.56973" lon="6.66107">
        <ele>200.5</ele>
        <time>2021-02-21T08:40:17Z</time>
      </trkpt>
      <trkpt lat="43.56973" lon="6.66107">
        <ele>200.4</ele>
        <time>2021-02-21T08:40:18Z</time>
      </trkpt>
      <trkpt lat="43.56973" lon="6.66108">
        <ele>200.4</ele>
        <time>2021-02-21T08:40:50Z</time>
      </trkpt>
      <trkpt lat="43.56974" lon="6.66109">
        <ele>200.4</ele>
        <time>2021-02-21T08:40:59Z</time>
      </trkpt>
      <trkpt lat="43.56974" lon="6.66109">
        <ele>200.4</ele>
        <time>2021-02-21T08:41:00Z</time>
      </trkpt>
      <trkpt lat="43.56974" lon="6.66109">
        <ele>200.4</ele>
        <time>2021-02-21T08:41:01Z</time>
      </trkpt>
      <trkpt lat="43.56974" lon="6.66109">
        <ele>200.9</ele>
        <time>2021-02-21T08:41:07Z</time>
      </trkpt>
      <trkpt lat="43.56975" lon="6.66109">
        <ele>200.7</ele>
        <time>2021-02-21T08:41:09Z</time>
      </trkpt>
      <trkpt lat="43.56975" lon="6.66108">
        <ele>200.8</ele>
        <time>2021-02-21T08:41:11Z</time>
      </trkpt>
      <trkpt lat="43.56975" lon="6.66108">
        <ele>200.9</ele>
        <time>2021-02-21T08:41:14Z</time>
      </trkpt>
      <trkpt lat="43.56976" lon="6.66108">
        <ele>200.8</ele>
        <time>2021-02-21T08:41:16Z</time>
      </trkpt>
      <trkpt lat="43.56975" lon="6.66107">
        <ele>200.7</ele>
        <time>2021-02-21T08:41:19Z</time>
      </trkpt>
      <trkpt lat="43.56975" lon="6.66107">
        <ele>200.7</ele>
        <time>2021-02-21T08:41:22Z</time>
      </trkpt>
      <trkpt lat="43.56975" lon="6.66106">
        <ele>200.7</ele>
        <time>2021-02-21T08:41:28Z</time>
      </trkpt>
      <trkpt lat="43.56975" lon="6.66106">
        <ele>200.8</ele>
        <time>2021-02-21T08:41:29Z</time>
      </trkpt>
      <trkpt lat="43.56975" lon="6.66106">
        <ele>200.9</ele>
        <time>2021-02-21T08:41:30Z</time>
      </trkpt>
      <trkpt lat="43.56975" lon="6.66106">
        <ele>201</ele>
        <time>2021-02-21T08:41:31Z</time>
      </trkpt>
      <trkpt lat="43.56976" lon="6.66105">
        <ele>200.7</ele>
        <time>2021-02-21T08:41:34Z</time>
      </trkpt>
      <trkpt lat="43.56976" lon="6.66105">
        <ele>200.8</ele>
        <time>2021-02-21T08:41:36Z</time>
      </trkpt>
      <trkpt lat="43.56977" lon="6.66105">
        <ele>200.8</ele>
        <time>2021-02-21T08:41:38Z</time>
      </trkpt>
      <trkpt lat="43.56977" lon="6.66104">
        <ele>200.7</ele>
        <time>2021-02-21T08:41:39Z</time>
      </trkpt>
      <trkpt lat="43.56977" lon="6.66105">
        <ele>200.8</ele>
        <time>2021-02-21T08:41:42Z</time>
      </trkpt>
      <trkpt lat="43.56977" lon="6.66105">
        <ele>200.7</ele>
        <time>2021-02-21T08:41:43Z</time>
      </trkpt>
      <trkpt lat="43.56977" lon="6.66105">
        <ele>200.7</ele>
        <time>2021-02-21T08:41:44Z</time>
      </trkpt>
      <trkpt lat="43.56977" lon="6.66104">
        <ele>200.6</ele>
        <time>2021-02-21T08:41:45Z</time>
      </trkpt>
      <trkpt lat="43.56977" lon="6.66104">
        <ele>200.6</ele>
        <time>2021-02-21T08:41:46Z</time>
      </trkpt>
      <trkpt lat="43.56977" lon="6.66104">
        <ele>200.8</ele>
        <time>2021-02-21T08:41:54Z</time>
      </trkpt>
      <trkpt lat="43.56977" lon="6.66104">
        <ele>200.8</ele>
        <time>2021-02-21T08:41:55Z</time>
      </trkpt>
      <trkpt lat="43.56978" lon="6.66104">
        <ele>200.8</ele>
        <time>2021-02-21T08:41:56Z</time>
      </trkpt>
      <trkpt lat="43.56978" lon="6.66105">
        <ele>200.9</ele>
        <time>2021-02-21T08:42:02Z</time>
      </trkpt>
      <trkpt lat="43.56978" lon="6.66105">
        <ele>200.9</ele>
        <time>2021-02-21T08:42:03Z</time>
      </trkpt>
      <trkpt lat="43.56978" lon="6.66106">
        <ele>200.7</ele>
        <time>2021-02-21T08:42:05Z</time>
      </trkpt>
      <trkpt lat="43.56978" lon="6.66106">
        <ele>200.8</ele>
        <time>2021-02-21T08:42:08Z</time>
      </trkpt>
      <trkpt lat="43.56978" lon="6.66106">
        <ele>200.8</ele>
        <time>2021-02-21T08:42:09Z</time>
      </trkpt>
      <trkpt lat="43.56979" lon="6.66106">
        <ele>200.9</ele>
        <time>2021-02-21T08:42:10Z</time>
      </trkpt>
      <trkpt lat="43.56979" lon="6.66106">
        <ele>200.9</ele>
        <time>2021-02-21T08:42:11Z</time>
      </trkpt>
      <trkpt lat="43.56979" lon="6.66106">
        <ele>201</ele>
        <time>2021-02-21T08:42:15Z</time>
      </trkpt>
      <trkpt lat="43.56979" lon="6.66106">
        <ele>201</ele>
        <time>2021-02-21T08:42:16Z</time>
      </trkpt>
      <trkpt lat="43.56978" lon="6.66106">
        <ele>200.9</ele>
        <time>2021-02-21T08:42:17Z</time>
      </trkpt>
      <trkpt lat="43.56975" lon="6.66106">
        <ele>200.7</ele>
        <time>2021-02-21T08:42:45Z</time>
      </trkpt>
      <trkpt lat="43.56975" lon="6.66106">
        <ele>200.7</ele>
        <time>2021-02-21T08:42:46Z</time>
      </trkpt>
      <trkpt lat="43.56976" lon="6.66105">
        <ele>200.7</ele>
        <time>2021-02-21T08:42:48Z</time>
      </trkpt>
      <trkpt lat="43.56976" lon="6.66105">
        <ele>200.7</ele>
        <time>2021-02-21T08:42:49Z</time>
      </trkpt>
      <trkpt lat="43.56978" lon="6.66104">
        <ele>200.7</ele>
        <time>2021-02-21T08:43:04Z</time>
      </trkpt>
      <trkpt lat="43.56978" lon="6.66104">
        <ele>200.7</ele>
        <time>2021-02-21T08:43:05Z</time>
      </trkpt>
      <trkpt lat="43.56978" lon="6.66104">
        <ele>200.7</ele>
        <time>2021-02-21T08:43:06Z</time>
      </trkpt>
      <trkpt lat="43.56978" lon="6.66104">
        <ele>200.6</ele>
        <time>2021-02-21T08:43:10Z</time>
      </trkpt>
      <trkpt lat="43.56978" lon="6.66104">
        <ele>200.7</ele>
        <time>2021-02-21T08:43:11Z</time>
      </trkpt>
      <trkpt lat="43.56978" lon="6.66104">
        <ele>200.7</ele>
        <time>2021-02-21T08:43:12Z</time>
      </trkpt>
      <trkpt lat="43.56978" lon="6.66104">
        <ele>200.8</ele>
        <time>2021-02-21T08:43:13Z</time>
      </trkpt>
      <trkpt lat="43.56978" lon="6.66104">
        <ele>200.8</ele>
        <time>2021-02-21T08:43:20Z</time>
      </trkpt>
      <trkpt lat="43.56978" lon="6.66104">
        <ele>200.8</ele>
        <time>2021-02-21T08:43:21Z</time>
      </trkpt>
      <trkpt lat="43.56978" lon="6.66104">
        <ele>200.9</ele>
        <time>2021-02-21T08:43:26Z</time>
      </trkpt>
      <trkpt lat="43.56978" lon="6.66104">
        <ele>200.9</ele>
        <time>2021-02-21T08:43:27Z</time>
      </trkpt>
      <trkpt lat="43.56978" lon="6.66104">
        <ele>200.8</ele>
        <time>2021-02-21T08:43:31Z</time>
      </trkpt>
      <trkpt lat="43.56979" lon="6.66105">
        <ele>200.9</ele>
        <time>2021-02-21T08:43:40Z</time>
      </trkpt>
      <trkpt lat="43.56979" lon="6.66105">
        <ele>200.9</ele>
        <time>2021-02-21T08:43:41Z</time>
      </trkpt>
      <trkpt lat="43.56979" lon="6.66105">
        <ele>200.9</ele>
        <time>2021-02-21T08:43:42Z</time>
      </trkpt>
      <trkpt lat="43.56979" lon="6.66105">
        <ele>200.9</ele>
        <time>2021-02-21T08:43:44Z</time>
      </trkpt>
      <trkpt lat="43.56979" lon="6.66105">
        <ele>200.9</ele>
        <time>2021-02-21T08:43:45Z</time>
      </trkpt>
      <trkpt lat="43.5698" lon="6.66105">
        <ele>200.9</ele>
        <time>2021-02-21T08:43:46Z</time>
      </trkpt>
      <trkpt lat="43.5698" lon="6.66105">
        <ele>200.8</ele>
        <time>2021-02-21T08:43:47Z</time>
      </trkpt>
      <trkpt lat="43.56979" lon="6.66106">
        <ele>200.8</ele>
        <time>2021-02-21T08:43:49Z</time>
      </trkpt>
      <trkpt lat="43.56979" lon="6.66106">
        <ele>201</ele>
        <time>2021-02-21T08:43:57Z</time>
      </trkpt>
      <trkpt lat="43.56979" lon="6.66106">
        <ele>201</ele>
        <time>2021-02-21T08:43:59Z</time>
      </trkpt>
      <trkpt lat="43.56979" lon="6.66106">
        <ele>201.1</ele>
        <time>2021-02-21T08:44:01Z</time>
      </trkpt>
      <trkpt lat="43.5698" lon="6.66106">
        <ele>200.9</ele>
        <time>2021-02-21T08:44:02Z</time>
      </trkpt>
      <trkpt lat="43.56973" lon="6.66098">
        <ele>201.4</ele>
        <time>2021-02-21T08:44:25Z</time>
      </trkpt>
      <trkpt lat="43.56964" lon="6.66093">
        <ele>201.4</ele>
        <time>2021-02-21T08:44:36Z</time>
      </trkpt>
      <trkpt lat="43.56955" lon="6.66086">
        <ele>202.1</ele>
        <time>2021-02-21T08:44:46Z</time>
      </trkpt>
      <trkpt lat="43.56946" lon="6.66083">
        <ele>203</ele>
        <time>2021-02-21T08:44:54Z</time>
      </trkpt>
      <trkpt lat="43.56937" lon="6.6608">
        <ele>203</ele>
        <time>2021-02-21T08:45:00Z</time>
      </trkpt>
      <trkpt lat="43.56928" lon="6.6608">
        <ele>203.4</ele>
        <time>2021-02-21T08:45:08Z</time>
      </trkpt>
      <trkpt lat="43.56918" lon="6.66081">
        <ele>204.2</ele>
        <time>2021-02-21T08:45:16Z</time>
      </trkpt>
      <trkpt lat="43.56908" lon="6.66082">
        <ele>204.3</ele>
        <time>2021-02-21T08:45:23Z</time>
      </trkpt>
      <trkpt lat="43.56899" lon="6.6608">
        <ele>204.2</ele>
        <time>2021-02-21T08:45:32Z</time>
      </trkpt>
      <trkpt lat="43.56891" lon="6.66075">
        <ele>204.8</ele>
        <time>2021-02-21T08:45:39Z</time>
      </trkpt>
      <trkpt lat="43.56882" lon="6.66073">
        <ele>205.1</ele>
        <time>2021-02-21T08:45:46Z</time>
      </trkpt>
      <trkpt lat="43.56881" lon="6.6606">
        <ele>206</ele>
        <time>2021-02-21T08:45:59Z</time>
      </trkpt>
      <trkpt lat="43.5688" lon="6.66047">
        <ele>206</ele>
        <time>2021-02-21T08:46:08Z</time>
      </trkpt>
      <trkpt lat="43.56876" lon="6.66035">
        <ele>206.6</ele>
        <time>2021-02-21T08:46:16Z</time>
      </trkpt>
      <trkpt lat="43.56866" lon="6.66032">
        <ele>206.6</ele>
        <time>2021-02-21T08:46:26Z</time>
      </trkpt>
      <trkpt lat="43.56857" lon="6.66031">
        <ele>207</ele>
        <time>2021-02-21T08:46:35Z</time>
      </trkpt>
      <trkpt lat="43.56848" lon="6.6603">
        <ele>207</ele>
        <time>2021-02-21T08:46:42Z</time>
      </trkpt>
      <trkpt lat="43.56839" lon="6.66026">
        <ele>207.2</ele>
        <time>2021-02-21T08:46:50Z</time>
      </trkpt>
      <trkpt lat="43.56828" lon="6.66024">
        <ele>207.3</ele>
        <time>2021-02-21T08:46:59Z</time>
      </trkpt>
      <trkpt lat="43.56819" lon="6.66022">
        <ele>207.5</ele>
        <time>2021-02-21T08:47:05Z</time>
      </trkpt>
      <trkpt lat="43.56816" lon="6.66022">
        <ele>207.4</ele>
        <time>2021-02-21T08:47:09Z</time>
      </trkpt>
      <trkpt lat="43.56816" lon="6.66021">
        <ele>207.4</ele>
        <time>2021-02-21T08:47:10Z</time>
      </trkpt>
      <trkpt lat="43.56812" lon="6.66011">
        <ele>206.6</ele>
        <time>2021-02-21T08:47:19Z</time>
      </trkpt>
      <trkpt lat="43.56806" lon="6.66">
        <ele>205.4</ele>
        <time>2021-02-21T08:47:28Z</time>
      </trkpt>
      <trkpt lat="43.56798" lon="6.65994">
        <ele>204.5</ele>
        <time>2021-02-21T08:47:36Z</time>
      </trkpt>
      <trkpt lat="43.5679" lon="6.6599">
        <ele>204.1</ele>
        <time>2021-02-21T08:47:43Z</time>
      </trkpt>
      <trkpt lat="43.56781" lon="6.65984">
        <ele>203.3</ele>
        <time>2021-02-21T08:47:51Z</time>
      </trkpt>
      <trkpt lat="43.56777" lon="6.65972">
        <ele>202.9</ele>
        <time>2021-02-21T08:48:01Z</time>
      </trkpt>
      <trkpt lat="43.56776" lon="6.65959">
        <ele>201.9</ele>
        <time>2021-02-21T08:48:09Z</time>
      </trkpt>
      <trkpt lat="43.56775" lon="6.65946">
        <ele>201</ele>
        <time>2021-02-21T08:48:17Z</time>
      </trkpt>
      <trkpt lat="43.56774" lon="6.65932">
        <ele>200.7</ele>
        <time>2021-02-21T08:48:25Z</time>
      </trkpt>
      <trkpt lat="43.5677" lon="6.65919">
        <ele>199.9</ele>
        <time>2021-02-21T08:48:33Z</time>
      </trkpt>
      <trkpt lat="43.56766" lon="6.65906">
        <ele>199</ele>
        <time>2021-02-21T08:48:41Z</time>
      </trkpt>
      <trkpt lat="43.5676" lon="6.65897">
        <ele>198.1</ele>
        <time>2021-02-21T08:48:48Z</time>
      </trkpt>
      <trkpt lat="43.56753" lon="6.65887">
        <ele>197.4</ele>
        <time>2021-02-21T08:48:57Z</time>
      </trkpt>
      <trkpt lat="43.56746" lon="6.65879">
        <ele>196.4</ele>
        <time>2021-02-21T08:49:03Z</time>
      </trkpt>
      <trkpt lat="43.56739" lon="6.6587">
        <ele>195.6</ele>
        <time>2021-02-21T08:49:10Z</time>
      </trkpt>
      <trkpt lat="43.56732" lon="6.65862">
        <ele>194.9</ele>
        <time>2021-02-21T08:49:18Z</time>
      </trkpt>
      <trkpt lat="43.56727" lon="6.65852">
        <ele>194</ele>
        <time>2021-02-21T08:49:27Z</time>
      </trkpt>
      <trkpt lat="43.5672" lon="6.65842">
        <ele>193.7</ele>
        <time>2021-02-21T08:49:34Z</time>
      </trkpt>
      <trkpt lat="43.56711" lon="6.65835">
        <ele>193.3</ele>
        <time>2021-02-21T08:49:43Z</time>
      </trkpt>
      <trkpt lat="43.56704" lon="6.65827">
        <ele>192.3</ele>
        <time>2021-02-21T08:49:49Z</time>
      </trkpt>
      <trkpt lat="43.56697" lon="6.65819">
        <ele>191.6</ele>
        <time>2021-02-21T08:49:56Z</time>
      </trkpt>
      <trkpt lat="43.5669" lon="6.65811">
        <ele>191.6</ele>
        <time>2021-02-21T08:50:01Z</time>
      </trkpt>
      <trkpt lat="43.56681" lon="6.65804">
        <ele>191</ele>
        <time>2021-02-21T08:50:07Z</time>
      </trkpt>
      <trkpt lat="43.56673" lon="6.65797">
        <ele>190.6</ele>
        <time>2021-02-21T08:50:14Z</time>
      </trkpt>
      <trkpt lat="43.56664" lon="6.6579">
        <ele>190</ele>
        <time>2021-02-21T08:50:21Z</time>
      </trkpt>
      <trkpt lat="43.56655" lon="6.65783">
        <ele>189.3</ele>
        <time>2021-02-21T08:50:30Z</time>
      </trkpt>
      <trkpt lat="43.56646" lon="6.65778">
        <ele>189.1</ele>
        <time>2021-02-21T08:50:37Z</time>
      </trkpt>
      <trkpt lat="43.56638" lon="6.65771">
        <ele>188.8</ele>
        <time>2021-02-21T08:50:43Z</time>
      </trkpt>
      <trkpt lat="43.56632" lon="6.65762">
        <ele>188.2</ele>
        <time>2021-02-21T08:50:52Z</time>
      </trkpt>
      <trkpt lat="43.56626" lon="6.65752">
        <ele>188.1</ele>
        <time>2021-02-21T08:51:03Z</time>
      </trkpt>
      <trkpt lat="43.56626" lon="6.65752">
        <ele>188.1</ele>
        <time>2021-02-21T08:51:04Z</time>
      </trkpt>
      <trkpt lat="43.56626" lon="6.65752">
        <ele>188</ele>
        <time>2021-02-21T08:51:06Z</time>
      </trkpt>
      <trkpt lat="43.5662" lon="6.65742">
        <ele>188</ele>
        <time>2021-02-21T08:51:18Z</time>
      </trkpt>
      <trkpt lat="43.5661" lon="6.65737">
        <ele>187.2</ele>
        <time>2021-02-21T08:51:27Z</time>
      </trkpt>
      <trkpt lat="43.56603" lon="6.65729">
        <ele>187.1</ele>
        <time>2021-02-21T08:51:35Z</time>
      </trkpt>
      <trkpt lat="43.56603" lon="6.65729">
        <ele>186.9</ele>
        <time>2021-02-21T08:51:37Z</time>
      </trkpt>
      <trkpt lat="43.56602" lon="6.65729">
        <ele>187</ele>
        <time>2021-02-21T08:51:38Z</time>
      </trkpt>
      <trkpt lat="43.56594" lon="6.65721">
        <ele>186.5</ele>
        <time>2021-02-21T08:51:44Z</time>
      </trkpt>
      <trkpt lat="43.56585" lon="6.65715">
        <ele>186.4</ele>
        <time>2021-02-21T08:51:50Z</time>
      </trkpt>
      <trkpt lat="43.56576" lon="6.65709">
        <ele>185.8</ele>
        <time>2021-02-21T08:51:56Z</time>
      </trkpt>
      <trkpt lat="43.56566" lon="6.65706">
        <ele>185.2</ele>
        <time>2021-02-21T08:52:01Z</time>
      </trkpt>
      <trkpt lat="43.56556" lon="6.65704">
        <ele>185</ele>
        <time>2021-02-21T08:52:09Z</time>
      </trkpt>
      <trkpt lat="43.56547" lon="6.65702">
        <ele>185.4</ele>
        <time>2021-02-21T08:52:18Z</time>
      </trkpt>
      <trkpt lat="43.56538" lon="6.65701">
        <ele>185.7</ele>
        <time>2021-02-21T08:52:26Z</time>
      </trkpt>
      <trkpt lat="43.56536" lon="6.65701">
        <ele>185.9</ele>
        <time>2021-02-21T08:52:29Z</time>
      </trkpt>
      <trkpt lat="43.56536" lon="6.657">
        <ele>185.8</ele>
        <time>2021-02-21T08:52:30Z</time>
      </trkpt>
      <trkpt lat="43.5653" lon="6.65689">
        <ele>185.7</ele>
        <time>2021-02-21T08:52:43Z</time>
      </trkpt>
      <trkpt lat="43.56522" lon="6.65683">
        <ele>185.6</ele>
        <time>2021-02-21T08:52:52Z</time>
      </trkpt>
      <trkpt lat="43.56513" lon="6.65678">
        <ele>185.7</ele>
        <time>2021-02-21T08:53:00Z</time>
      </trkpt>
      <trkpt lat="43.56506" lon="6.6567">
        <ele>185.9</ele>
        <time>2021-02-21T08:53:08Z</time>
      </trkpt>
      <trkpt lat="43.56497" lon="6.65665">
        <ele>185.8</ele>
        <time>2021-02-21T08:53:15Z</time>
      </trkpt>
      <trkpt lat="43.56489" lon="6.65659">
        <ele>185.9</ele>
        <time>2021-02-21T08:53:24Z</time>
      </trkpt>
      <trkpt lat="43.56479" lon="6.65652">
        <ele>185.8</ele>
        <time>2021-02-21T08:53:33Z</time>
      </trkpt>
      <trkpt lat="43.56472" lon="6.65644">
        <ele>185.9</ele>
        <time>2021-02-21T08:53:40Z</time>
      </trkpt>
      <trkpt lat="43.56465" lon="6.65635">
        <ele>185.2</ele>
        <time>2021-02-21T08:53:47Z</time>
      </trkpt>
      <trkpt lat="43.56456" lon="6.65628">
        <ele>185.1</ele>
        <time>2021-02-21T08:53:55Z</time>
      </trkpt>
      <trkpt lat="43.56447" lon="6.65622">
        <ele>184.3</ele>
        <time>2021-02-21T08:54:02Z</time>
      </trkpt>
      <trkpt lat="43.56438" lon="6.65616">
        <ele>184</ele>
        <time>2021-02-21T08:54:10Z</time>
      </trkpt>
      <trkpt lat="43.56429" lon="6.65613">
        <ele>183.6</ele>
        <time>2021-02-21T08:54:16Z</time>
      </trkpt>
      <trkpt lat="43.56421" lon="6.65609">
        <ele>183.4</ele>
        <time>2021-02-21T08:54:22Z</time>
      </trkpt>
      <trkpt lat="43.56417" lon="6.65608">
        <ele>183.5</ele>
        <time>2021-02-21T08:54:28Z</time>
      </trkpt>
      <trkpt lat="43.56417" lon="6.65608">
        <ele>183.2</ele>
        <time>2021-02-21T08:54:34Z</time>
      </trkpt>
      <trkpt lat="43.56417" lon="6.65608">
        <ele>183.1</ele>
        <time>2021-02-21T08:54:35Z</time>
      </trkpt>
      <trkpt lat="43.56417" lon="6.65608">
        <ele>183.1</ele>
        <time>2021-02-21T08:54:36Z</time>
      </trkpt>
      <trkpt lat="43.56407" lon="6.65604">
        <ele>183.1</ele>
        <time>2021-02-21T08:54:47Z</time>
      </trkpt>
      <trkpt lat="43.56399" lon="6.65599">
        <ele>183.8</ele>
        <time>2021-02-21T08:54:55Z</time>
      </trkpt>
      <trkpt lat="43.56389" lon="6.65595">
        <ele>184.5</ele>
        <time>2021-02-21T08:55:05Z</time>
      </trkpt>
      <trkpt lat="43.56392" lon="6.65601">
        <ele>185</ele>
        <time>2021-02-21T08:55:19Z</time>
      </trkpt>
      <trkpt lat="43.56391" lon="6.65601">
        <ele>184.9</ele>
        <time>2021-02-21T08:55:20Z</time>
      </trkpt>
      <trkpt lat="43.56381" lon="6.65597">
        <ele>185.4</ele>
        <time>2021-02-21T08:55:30Z</time>
      </trkpt>
      <trkpt lat="43.56372" lon="6.65594">
        <ele>186.1</ele>
        <time>2021-02-21T08:55:36Z</time>
      </trkpt>
      <trkpt lat="43.56362" lon="6.65591">
        <ele>186.5</ele>
        <time>2021-02-21T08:55:43Z</time>
      </trkpt>
      <trkpt lat="43.56351" lon="6.65587">
        <ele>187</ele>
        <time>2021-02-21T08:55:48Z</time>
      </trkpt>
      <trkpt lat="43.56341" lon="6.65586">
        <ele>186.6</ele>
        <time>2021-02-21T08:55:59Z</time>
      </trkpt>
      <trkpt lat="43.56331" lon="6.65586">
        <ele>186.2</ele>
        <time>2021-02-21T08:56:10Z</time>
      </trkpt>
      <trkpt lat="43.56323" lon="6.65582">
        <ele>186.3</ele>
        <time>2021-02-21T08:56:16Z</time>
      </trkpt>
      <trkpt lat="43.56314" lon="6.65579">
        <ele>186.1</ele>
        <time>2021-02-21T08:56:21Z</time>
      </trkpt>
      <trkpt lat="43.56304" lon="6.65575">
        <ele>185.8</ele>
        <time>2021-02-21T08:56:28Z</time>
      </trkpt>
      <trkpt lat="43.56295" lon="6.65573">
        <ele>185.7</ele>
        <time>2021-02-21T08:56:34Z</time>
      </trkpt>
      <trkpt lat="43.56285" lon="6.65573">
        <ele>185.3</ele>
        <time>2021-02-21T08:56:43Z</time>
      </trkpt>
      <trkpt lat="43.56275" lon="6.65574">
        <ele>185.2</ele>
        <time>2021-02-21T08:56:50Z</time>
      </trkpt>
      <trkpt lat="43.56266" lon="6.65573">
        <ele>184.8</ele>
        <time>2021-02-21T08:56:59Z</time>
      </trkpt>
      <trkpt lat="43.56256" lon="6.6557">
        <ele>185</ele>
        <time>2021-02-21T08:57:04Z</time>
      </trkpt>
      <trkpt lat="43.56246" lon="6.65571">
        <ele>185.2</ele>
        <time>2021-02-21T08:57:12Z</time>
      </trkpt>
      <trkpt lat="43.56237" lon="6.65576">
        <ele>185.6</ele>
        <time>2021-02-21T08:57:20Z</time>
      </trkpt>
      <trkpt lat="43.56228" lon="6.6558">
        <ele>186.1</ele>
        <time>2021-02-21T08:57:31Z</time>
      </trkpt>
      <trkpt lat="43.56219" lon="6.65579">
        <ele>186.9</ele>
        <time>2021-02-21T08:57:39Z</time>
      </trkpt>
      <trkpt lat="43.5621" lon="6.65579">
        <ele>187.3</ele>
        <time>2021-02-21T08:57:46Z</time>
      </trkpt>
      <trkpt lat="43.56201" lon="6.65577">
        <ele>187.6</ele>
        <time>2021-02-21T08:57:54Z</time>
      </trkpt>
      <trkpt lat="43.56192" lon="6.65581">
        <ele>189.9</ele>
        <time>2021-02-21T08:58:03Z</time>
      </trkpt>
      <trkpt lat="43.56184" lon="6.65588">
        <ele>190.5</ele>
        <time>2021-02-21T08:58:09Z</time>
      </trkpt>
      <trkpt lat="43.56175" lon="6.65592">
        <ele>191.5</ele>
        <time>2021-02-21T08:58:16Z</time>
      </trkpt>
      <trkpt lat="43.56166" lon="6.65591">
        <ele>192.1</ele>
        <time>2021-02-21T08:58:22Z</time>
      </trkpt>
      <trkpt lat="43.56157" lon="6.65588">
        <ele>194.7</ele>
        <time>2021-02-21T08:58:35Z</time>
      </trkpt>
      <trkpt lat="43.56148" lon="6.65593">
        <ele>195.3</ele>
        <time>2021-02-21T08:58:41Z</time>
      </trkpt>
      <trkpt lat="43.56143" lon="6.65592">
        <ele>196.6</ele>
        <time>2021-02-21T08:58:53Z</time>
      </trkpt>
      <trkpt lat="43.56143" lon="6.65592">
        <ele>196.9</ele>
        <time>2021-02-21T08:58:55Z</time>
      </trkpt>
      <trkpt lat="43.56143" lon="6.65592">
        <ele>196.8</ele>
        <time>2021-02-21T08:58:56Z</time>
      </trkpt>
      <trkpt lat="43.56143" lon="6.65592">
        <ele>196</ele>
        <time>2021-02-21T08:58:58Z</time>
      </trkpt>
      <trkpt lat="43.56139" lon="6.65589">
        <ele>196.5</ele>
        <time>2021-02-21T08:59:07Z</time>
      </trkpt>
      <trkpt lat="43.56139" lon="6.6559">
        <ele>196.6</ele>
        <time>2021-02-21T08:59:08Z</time>
      </trkpt>
      <trkpt lat="43.56136" lon="6.65598">
        <ele>196.7</ele>
        <time>2021-02-21T08:59:17Z</time>
      </trkpt>
      <trkpt lat="43.56137" lon="6.65598">
        <ele>196.9</ele>
        <time>2021-02-21T08:59:20Z</time>
      </trkpt>
      <trkpt lat="43.56142" lon="6.65587">
        <ele>197.4</ele>
        <time>2021-02-21T08:59:42Z</time>
      </trkpt>
      <trkpt lat="43.56151" lon="6.65581">
        <ele>198.1</ele>
        <time>2021-02-21T08:59:53Z</time>
      </trkpt>
      <trkpt lat="43.56147" lon="6.65569">
        <ele>199</ele>
        <time>2021-02-21T09:00:10Z</time>
      </trkpt>
      <trkpt lat="43.56138" lon="6.65566">
        <ele>201.2</ele>
        <time>2021-02-21T09:00:24Z</time>
      </trkpt>
      <trkpt lat="43.56128" lon="6.65565">
        <ele>203.4</ele>
        <time>2021-02-21T09:00:39Z</time>
      </trkpt>
      <trkpt lat="43.56119" lon="6.65566">
        <ele>204.8</ele>
        <time>2021-02-21T09:00:56Z</time>
      </trkpt>
      <trkpt lat="43.56119" lon="6.65566">
        <ele>204.9</ele>
        <time>2021-02-21T09:00:57Z</time>
      </trkpt>
      <trkpt lat="43.5611" lon="6.65563">
        <ele>206.6</ele>
        <time>2021-02-21T09:01:10Z</time>
      </trkpt>
      <trkpt lat="43.561" lon="6.65563">
        <ele>207.7</ele>
        <time>2021-02-21T09:01:19Z</time>
      </trkpt>
      <trkpt lat="43.56091" lon="6.65564">
        <ele>209.1</ele>
        <time>2021-02-21T09:01:26Z</time>
      </trkpt>
      <trkpt lat="43.56082" lon="6.65569">
        <ele>210.5</ele>
        <time>2021-02-21T09:01:36Z</time>
      </trkpt>
      <trkpt lat="43.56072" lon="6.65572">
        <ele>211.8</ele>
        <time>2021-02-21T09:01:50Z</time>
      </trkpt>
      <trkpt lat="43.56063" lon="6.65569">
        <ele>212.9</ele>
        <time>2021-02-21T09:02:02Z</time>
      </trkpt>
      <trkpt lat="43.5606" lon="6.65569">
        <ele>213</ele>
        <time>2021-02-21T09:02:08Z</time>
      </trkpt>
      <trkpt lat="43.5606" lon="6.65569">
        <ele>213.9</ele>
        <time>2021-02-21T09:02:10Z</time>
      </trkpt>
      <trkpt lat="43.56059" lon="6.6557">
        <ele>214</ele>
        <time>2021-02-21T09:02:19Z</time>
      </trkpt>
      <trkpt lat="43.56059" lon="6.65571">
        <ele>213.9</ele>
        <time>2021-02-21T09:02:23Z</time>
      </trkpt>
      <trkpt lat="43.56059" lon="6.65571">
        <ele>214.2</ele>
        <time>2021-02-21T09:02:26Z</time>
      </trkpt>
      <trkpt lat="43.56059" lon="6.65571">
        <ele>214.3</ele>
        <time>2021-02-21T09:03:01Z</time>
      </trkpt>
      <trkpt lat="43.56059" lon="6.65571">
        <ele>214.1</ele>
        <time>2021-02-21T09:03:02Z</time>
      </trkpt>
      <trkpt lat="43.56059" lon="6.65571">
        <ele>214.3</ele>
        <time>2021-02-21T09:03:07Z</time>
      </trkpt>
      <trkpt lat="43.56059" lon="6.65571">
        <ele>214.4</ele>
        <time>2021-02-21T09:03:08Z</time>
      </trkpt>
      <trkpt lat="43.56059" lon="6.65571">
        <ele>214.5</ele>
        <time>2021-02-21T09:03:09Z</time>
      </trkpt>
      <trkpt lat="43.56059" lon="6.65571">
        <ele>214.6</ele>
        <time>2021-02-21T09:03:10Z</time>
      </trkpt>
      <trkpt lat="43.56059" lon="6.6557">
        <ele>214.5</ele>
        <time>2021-02-21T09:03:13Z</time>
      </trkpt>
      <trkpt lat="43.56059" lon="6.65571">
        <ele>214.3</ele>
        <time>2021-02-21T09:03:14Z</time>
      </trkpt>
      <trkpt lat="43.56059" lon="6.65571">
        <ele>213.6</ele>
        <time>2021-02-21T09:03:24Z</time>
      </trkpt>
      <trkpt lat="43.56059" lon="6.65571">
        <ele>214.3</ele>
        <time>2021-02-21T09:03:27Z</time>
      </trkpt>
      <trkpt lat="43.5606" lon="6.65571">
        <ele>214.4</ele>
        <time>2021-02-21T09:03:30Z</time>
      </trkpt>
      <trkpt lat="43.5606" lon="6.65571">
        <ele>214.4</ele>
        <time>2021-02-21T09:03:31Z</time>
      </trkpt>
      <trkpt lat="43.5606" lon="6.65572">
        <ele>210.7</ele>
        <time>2021-02-21T09:03:54Z</time>
      </trkpt>
      <trkpt lat="43.5606" lon="6.65572">
        <ele>214.5</ele>
        <time>2021-02-21T09:03:55Z</time>
      </trkpt>
      <trkpt lat="43.56059" lon="6.65571">
        <ele>215</ele>
        <time>2021-02-21T09:03:56Z</time>
      </trkpt>
      <trkpt lat="43.5606" lon="6.65571">
        <ele>214.6</ele>
        <time>2021-02-21T09:03:58Z</time>
      </trkpt>
      <trkpt lat="43.56059" lon="6.65572">
        <ele>214</ele>
        <time>2021-02-21T09:04:03Z</time>
      </trkpt>
      <trkpt lat="43.5606" lon="6.65571">
        <ele>215</ele>
        <time>2021-02-21T09:04:13Z</time>
      </trkpt>
      <trkpt lat="43.56059" lon="6.65571">
        <ele>214.8</ele>
        <time>2021-02-21T09:04:16Z</time>
      </trkpt>
      <trkpt lat="43.56057" lon="6.65569">
        <ele>215.3</ele>
        <time>2021-02-21T09:04:21Z</time>
      </trkpt>
      <trkpt lat="43.56057" lon="6.65569">
        <ele>215.5</ele>
        <time>2021-02-21T09:04:22Z</time>
      </trkpt>
      <trkpt lat="43.56057" lon="6.65569">
        <ele>215.6</ele>
        <time>2021-02-21T09:04:24Z</time>
      </trkpt>
      <trkpt lat="43.56057" lon="6.6557">
        <ele>215.6</ele>
        <time>2021-02-21T09:04:25Z</time>
      </trkpt>
      <trkpt lat="43.56048" lon="6.65567">
        <ele>214.8</ele>
        <time>2021-02-21T09:04:41Z</time>
      </trkpt>
      <trkpt lat="43.5604" lon="6.6556">
        <ele>217.6</ele>
        <time>2021-02-21T09:04:55Z</time>
      </trkpt>
      <trkpt lat="43.56031" lon="6.65558">
        <ele>219.6</ele>
        <time>2021-02-21T09:05:06Z</time>
      </trkpt>
      <trkpt lat="43.56022" lon="6.65554">
        <ele>220.2</ele>
        <time>2021-02-21T09:05:15Z</time>
      </trkpt>
      <trkpt lat="43.56014" lon="6.65549">
        <ele>220.7</ele>
        <time>2021-02-21T09:05:24Z</time>
      </trkpt>
      <trkpt lat="43.56005" lon="6.65547">
        <ele>221.9</ele>
        <time>2021-02-21T09:05:31Z</time>
      </trkpt>
      <trkpt lat="43.55997" lon="6.65539">
        <ele>223.9</ele>
        <time>2021-02-21T09:05:53Z</time>
      </trkpt>
      <trkpt lat="43.5599" lon="6.65531">
        <ele>224.5</ele>
        <time>2021-02-21T09:06:03Z</time>
      </trkpt>
      <trkpt lat="43.55981" lon="6.65531">
        <ele>227.1</ele>
        <time>2021-02-21T09:06:20Z</time>
      </trkpt>
      <trkpt lat="43.55972" lon="6.65528">
        <ele>228.3</ele>
        <time>2021-02-21T09:06:29Z</time>
      </trkpt>
      <trkpt lat="43.55964" lon="6.65522">
        <ele>232.9</ele>
        <time>2021-02-21T09:06:59Z</time>
      </trkpt>
      <trkpt lat="43.55954" lon="6.6552">
        <ele>235.1</ele>
        <time>2021-02-21T09:07:12Z</time>
      </trkpt>
      <trkpt lat="43.55945" lon="6.65519">
        <ele>236.5</ele>
        <time>2021-02-21T09:07:22Z</time>
      </trkpt>
      <trkpt lat="43.55936" lon="6.65516">
        <ele>238.3</ele>
        <time>2021-02-21T09:07:35Z</time>
      </trkpt>
      <trkpt lat="43.55925" lon="6.65516">
        <ele>240</ele>
        <time>2021-02-21T09:07:47Z</time>
      </trkpt>
      <trkpt lat="43.55926" lon="6.65513">
        <ele>241.4</ele>
        <time>2021-02-21T09:08:04Z</time>
      </trkpt>
      <trkpt lat="43.55926" lon="6.65513">
        <ele>241.3</ele>
        <time>2021-02-21T09:08:05Z</time>
      </trkpt>
      <trkpt lat="43.55927" lon="6.65515">
        <ele>241.3</ele>
        <time>2021-02-21T09:08:08Z</time>
      </trkpt>
      <trkpt lat="43.55927" lon="6.65515">
        <ele>241.5</ele>
        <time>2021-02-21T09:08:10Z</time>
      </trkpt>
      <trkpt lat="43.55927" lon="6.65515">
        <ele>241.5</ele>
        <time>2021-02-21T09:08:11Z</time>
      </trkpt>
      <trkpt lat="43.55927" lon="6.65515">
        <ele>241.7</ele>
        <time>2021-02-21T09:08:16Z</time>
      </trkpt>
      <trkpt lat="43.55927" lon="6.65516">
        <ele>242.1</ele>
        <time>2021-02-21T09:08:23Z</time>
      </trkpt>
      <trkpt lat="43.55927" lon="6.65516">
        <ele>241.6</ele>
        <time>2021-02-21T09:08:31Z</time>
      </trkpt>
      <trkpt lat="43.55927" lon="6.65516">
        <ele>241.5</ele>
        <time>2021-02-21T09:08:33Z</time>
      </trkpt>
      <trkpt lat="43.55927" lon="6.65517">
        <ele>241.5</ele>
        <time>2021-02-21T09:09:11Z</time>
      </trkpt>
      <trkpt lat="43.55926" lon="6.65517">
        <ele>241.1</ele>
        <time>2021-02-21T09:09:24Z</time>
      </trkpt>
      <trkpt lat="43.55925" lon="6.65517">
        <ele>241.4</ele>
        <time>2021-02-21T09:09:25Z</time>
      </trkpt>
      <trkpt lat="43.55915" lon="6.65515">
        <ele>242.9</ele>
        <time>2021-02-21T09:09:39Z</time>
      </trkpt>
      <trkpt lat="43.55905" lon="6.65515">
        <ele>243.7</ele>
        <time>2021-02-21T09:09:49Z</time>
      </trkpt>
      <trkpt lat="43.55896" lon="6.65513">
        <ele>244.1</ele>
        <time>2021-02-21T09:09:57Z</time>
      </trkpt>
      <trkpt lat="43.55889" lon="6.65504">
        <ele>244.5</ele>
        <time>2021-02-21T09:10:11Z</time>
      </trkpt>
      <trkpt lat="43.55882" lon="6.65494">
        <ele>244.5</ele>
        <time>2021-02-21T09:10:21Z</time>
      </trkpt>
      <trkpt lat="43.55875" lon="6.65485">
        <ele>244.5</ele>
        <time>2021-02-21T09:10:49Z</time>
      </trkpt>
      <trkpt lat="43.5587" lon="6.65475">
        <ele>244.6</ele>
        <time>2021-02-21T09:11:07Z</time>
      </trkpt>
      <trkpt lat="43.55869" lon="6.65473">
        <ele>244.6</ele>
        <time>2021-02-21T09:11:15Z</time>
      </trkpt>
      <trkpt lat="43.55869" lon="6.65473">
        <ele>245.1</ele>
        <time>2021-02-21T09:11:19Z</time>
      </trkpt>
      <trkpt lat="43.55861" lon="6.6548">
        <ele>244.3</ele>
        <time>2021-02-21T09:11:30Z</time>
      </trkpt>
      <trkpt lat="43.55852" lon="6.65488">
        <ele>246.8</ele>
        <time>2021-02-21T09:12:07Z</time>
      </trkpt>
      <trkpt lat="43.55847" lon="6.65494">
        <ele>248</ele>
        <time>2021-02-21T09:12:19Z</time>
      </trkpt>
      <trkpt lat="43.55847" lon="6.65494">
        <ele>247.8</ele>
        <time>2021-02-21T09:12:26Z</time>
      </trkpt>
      <trkpt lat="43.55844" lon="6.65484">
        <ele>249.3</ele>
        <time>2021-02-21T09:12:40Z</time>
      </trkpt>
      <trkpt lat="43.55844" lon="6.65483">
        <ele>249.4</ele>
        <time>2021-02-21T09:12:41Z</time>
      </trkpt>
      <trkpt lat="43.55839" lon="6.65479">
        <ele>250.1</ele>
        <time>2021-02-21T09:12:50Z</time>
      </trkpt>
      <trkpt lat="43.55839" lon="6.65479">
        <ele>250.3</ele>
        <time>2021-02-21T09:12:51Z</time>
      </trkpt>
      <trkpt lat="43.5583" lon="6.65475">
        <ele>251.3</ele>
        <time>2021-02-21T09:13:05Z</time>
      </trkpt>
      <trkpt lat="43.55824" lon="6.65466">
        <ele>252.4</ele>
        <time>2021-02-21T09:13:17Z</time>
      </trkpt>
      <trkpt lat="43.55823" lon="6.65466">
        <ele>253.1</ele>
        <time>2021-02-21T09:13:19Z</time>
      </trkpt>
      <trkpt lat="43.55823" lon="6.65466">
        <ele>252.4</ele>
        <time>2021-02-21T09:13:20Z</time>
      </trkpt>
      <trkpt lat="43.55823" lon="6.65466">
        <ele>249.9</ele>
        <time>2021-02-21T09:13:22Z</time>
      </trkpt>
      <trkpt lat="43.55822" lon="6.65467">
        <ele>250</ele>
        <time>2021-02-21T09:13:23Z</time>
      </trkpt>
      <trkpt lat="43.55819" lon="6.65465">
        <ele>254.1</ele>
        <time>2021-02-21T09:13:28Z</time>
      </trkpt>
      <trkpt lat="43.55819" lon="6.65465">
        <ele>254.4</ele>
        <time>2021-02-21T09:13:30Z</time>
      </trkpt>
      <trkpt lat="43.5581" lon="6.65464">
        <ele>255.1</ele>
        <time>2021-02-21T09:13:41Z</time>
      </trkpt>
      <trkpt lat="43.55801" lon="6.65459">
        <ele>256.9</ele>
        <time>2021-02-21T09:13:57Z</time>
      </trkpt>
      <trkpt lat="43.55792" lon="6.65453">
        <ele>258.9</ele>
        <time>2021-02-21T09:14:14Z</time>
      </trkpt>
      <trkpt lat="43.5579" lon="6.6545">
        <ele>259.6</ele>
        <time>2021-02-21T09:14:23Z</time>
      </trkpt>
      <trkpt lat="43.5579" lon="6.6545">
        <ele>259.6</ele>
        <time>2021-02-21T09:14:24Z</time>
      </trkpt>
      <trkpt lat="43.55786" lon="6.65462">
        <ele>258.6</ele>
        <time>2021-02-21T09:14:47Z</time>
      </trkpt>
      <trkpt lat="43.55784" lon="6.65475">
        <ele>255.3</ele>
        <time>2021-02-21T09:15:01Z</time>
      </trkpt>
      <trkpt lat="43.5578" lon="6.65487">
        <ele>253.6</ele>
        <time>2021-02-21T09:15:12Z</time>
      </trkpt>
      <trkpt lat="43.55776" lon="6.65494">
        <ele>253.6</ele>
        <time>2021-02-21T09:15:25Z</time>
      </trkpt>
      <trkpt lat="43.55775" lon="6.65495">
        <ele>253.6</ele>
        <time>2021-02-21T09:15:27Z</time>
      </trkpt>
      <trkpt lat="43.55775" lon="6.65495">
        <ele>253.6</ele>
        <time>2021-02-21T09:15:28Z</time>
      </trkpt>
      <trkpt lat="43.55776" lon="6.65495">
        <ele>253.2</ele>
        <time>2021-02-21T09:15:31Z</time>
      </trkpt>
      <trkpt lat="43.55779" lon="6.65492">
        <ele>252.7</ele>
        <time>2021-02-21T09:15:39Z</time>
      </trkpt>
      <trkpt lat="43.55779" lon="6.65492">
        <ele>252.6</ele>
        <time>2021-02-21T09:15:40Z</time>
      </trkpt>
      <trkpt lat="43.5578" lon="6.65488">
        <ele>252.9</ele>
        <time>2021-02-21T09:15:44Z</time>
      </trkpt>
      <trkpt lat="43.5578" lon="6.65488">
        <ele>252.9</ele>
        <time>2021-02-21T09:15:45Z</time>
      </trkpt>
      <trkpt lat="43.5578" lon="6.65488">
        <ele>252.9</ele>
        <time>2021-02-21T09:15:47Z</time>
      </trkpt>
      <trkpt lat="43.5578" lon="6.65488">
        <ele>252.8</ele>
        <time>2021-02-21T09:15:50Z</time>
      </trkpt>
      <trkpt lat="43.5578" lon="6.65488">
        <ele>252.7</ele>
        <time>2021-02-21T09:15:51Z</time>
      </trkpt>
      <trkpt lat="43.5578" lon="6.65489">
        <ele>252.6</ele>
        <time>2021-02-21T09:15:55Z</time>
      </trkpt>
      <trkpt lat="43.55786" lon="6.65492">
        <ele>252.9</ele>
        <time>2021-02-21T09:16:07Z</time>
      </trkpt>
      <trkpt lat="43.55787" lon="6.65493">
        <ele>253</ele>
        <time>2021-02-21T09:16:08Z</time>
      </trkpt>
      <trkpt lat="43.55787" lon="6.65493">
        <ele>252.7</ele>
        <time>2021-02-21T09:16:10Z</time>
      </trkpt>
      <trkpt lat="43.55787" lon="6.65493">
        <ele>252.6</ele>
        <time>2021-02-21T09:16:13Z</time>
      </trkpt>
      <trkpt lat="43.55778" lon="6.65487">
        <ele>250</ele>
        <time>2021-02-21T09:16:22Z</time>
      </trkpt>
      <trkpt lat="43.5577" lon="6.65482">
        <ele>253.1</ele>
        <time>2021-02-21T09:16:33Z</time>
      </trkpt>
      <trkpt lat="43.5576" lon="6.65478">
        <ele>254.7</ele>
        <time>2021-02-21T09:16:43Z</time>
      </trkpt>
      <trkpt lat="43.55758" lon="6.6548">
        <ele>256.3</ele>
        <time>2021-02-21T09:16:47Z</time>
      </trkpt>
      <trkpt lat="43.55758" lon="6.6548">
        <ele>256.4</ele>
        <time>2021-02-21T09:16:48Z</time>
      </trkpt>
      <trkpt lat="43.55752" lon="6.65474">
        <ele>256.2</ele>
        <time>2021-02-21T09:17:01Z</time>
      </trkpt>
      <trkpt lat="43.55751" lon="6.65473">
        <ele>256.7</ele>
        <time>2021-02-21T09:17:02Z</time>
      </trkpt>
      <trkpt lat="43.55741" lon="6.65473">
        <ele>258.1</ele>
        <time>2021-02-21T09:17:12Z</time>
      </trkpt>
      <trkpt lat="43.55732" lon="6.65471">
        <ele>259.8</ele>
        <time>2021-02-21T09:17:24Z</time>
      </trkpt>
      <trkpt lat="43.55723" lon="6.65471">
        <ele>262.7</ele>
        <time>2021-02-21T09:17:49Z</time>
      </trkpt>
      <trkpt lat="43.55723" lon="6.65471">
        <ele>262.5</ele>
        <time>2021-02-21T09:17:52Z</time>
      </trkpt>
      <trkpt lat="43.55723" lon="6.65471">
        <ele>262.2</ele>
        <time>2021-02-21T09:17:54Z</time>
      </trkpt>
      <trkpt lat="43.55723" lon="6.65472">
        <ele>262.4</ele>
        <time>2021-02-21T09:17:55Z</time>
      </trkpt>
      <trkpt lat="43.55715" lon="6.65465">
        <ele>265</ele>
        <time>2021-02-21T09:18:20Z</time>
      </trkpt>
      <trkpt lat="43.55706" lon="6.65462">
        <ele>266.2</ele>
        <time>2021-02-21T09:18:28Z</time>
      </trkpt>
      <trkpt lat="43.55698" lon="6.65457">
        <ele>268.4</ele>
        <time>2021-02-21T09:18:42Z</time>
      </trkpt>
      <trkpt lat="43.55698" lon="6.65456">
        <ele>268.4</ele>
        <time>2021-02-21T09:18:43Z</time>
      </trkpt>
      <trkpt lat="43.55689" lon="6.65451">
        <ele>270.1</ele>
        <time>2021-02-21T09:18:58Z</time>
      </trkpt>
      <trkpt lat="43.55683" lon="6.65441">
        <ele>270.2</ele>
        <time>2021-02-21T09:19:11Z</time>
      </trkpt>
      <trkpt lat="43.55675" lon="6.65433">
        <ele>271.4</ele>
        <time>2021-02-21T09:19:20Z</time>
      </trkpt>
      <trkpt lat="43.55668" lon="6.65425">
        <ele>272.7</ele>
        <time>2021-02-21T09:19:35Z</time>
      </trkpt>
      <trkpt lat="43.5566" lon="6.65421">
        <ele>274</ele>
        <time>2021-02-21T09:19:47Z</time>
      </trkpt>
      <trkpt lat="43.55653" lon="6.65412">
        <ele>275.6</ele>
        <time>2021-02-21T09:19:58Z</time>
      </trkpt>
      <trkpt lat="43.55645" lon="6.65407">
        <ele>276.7</ele>
        <time>2021-02-21T09:20:08Z</time>
      </trkpt>
      <trkpt lat="43.55638" lon="6.65399">
        <ele>278</ele>
        <time>2021-02-21T09:20:19Z</time>
      </trkpt>
      <trkpt lat="43.55629" lon="6.65394">
        <ele>280.2</ele>
        <time>2021-02-21T09:20:36Z</time>
      </trkpt>
      <trkpt lat="43.55621" lon="6.65388">
        <ele>283.5</ele>
        <time>2021-02-21T09:20:51Z</time>
      </trkpt>
      <trkpt lat="43.55614" lon="6.65378">
        <ele>285.4</ele>
        <time>2021-02-21T09:21:07Z</time>
      </trkpt>
      <trkpt lat="43.55613" lon="6.65373">
        <ele>285.2</ele>
        <time>2021-02-21T09:21:12Z</time>
      </trkpt>
      <trkpt lat="43.55613" lon="6.65373">
        <ele>285.5</ele>
        <time>2021-02-21T09:21:13Z</time>
      </trkpt>
      <trkpt lat="43.55611" lon="6.6536">
        <ele>287</ele>
        <time>2021-02-21T09:21:26Z</time>
      </trkpt>
      <trkpt lat="43.55607" lon="6.65348">
        <ele>287.1</ele>
        <time>2021-02-21T09:21:37Z</time>
      </trkpt>
      <trkpt lat="43.55604" lon="6.65335">
        <ele>288</ele>
        <time>2021-02-21T09:21:49Z</time>
      </trkpt>
      <trkpt lat="43.556" lon="6.65323">
        <ele>288.4</ele>
        <time>2021-02-21T09:22:01Z</time>
      </trkpt>
      <trkpt lat="43.55596" lon="6.65312">
        <ele>289.9</ele>
        <time>2021-02-21T09:22:12Z</time>
      </trkpt>
      <trkpt lat="43.55591" lon="6.65301">
        <ele>292.7</ele>
        <time>2021-02-21T09:22:26Z</time>
      </trkpt>
      <trkpt lat="43.5559" lon="6.65288">
        <ele>293.7</ele>
        <time>2021-02-21T09:22:38Z</time>
      </trkpt>
      <trkpt lat="43.55585" lon="6.65277">
        <ele>292.9</ele>
        <time>2021-02-21T09:22:46Z</time>
      </trkpt>
      <trkpt lat="43.55582" lon="6.65274">
        <ele>292.7</ele>
        <time>2021-02-21T09:22:52Z</time>
      </trkpt>
      <trkpt lat="43.55581" lon="6.65274">
        <ele>292.9</ele>
        <time>2021-02-21T09:22:53Z</time>
      </trkpt>
      <trkpt lat="43.55585" lon="6.65274">
        <ele>292.4</ele>
        <time>2021-02-21T09:23:00Z</time>
      </trkpt>
      <trkpt lat="43.55585" lon="6.65274">
        <ele>292.4</ele>
        <time>2021-02-21T09:23:01Z</time>
      </trkpt>
      <trkpt lat="43.55585" lon="6.65274">
        <ele>292.8</ele>
        <time>2021-02-21T09:23:03Z</time>
      </trkpt>
      <trkpt lat="43.55585" lon="6.65275">
        <ele>292.6</ele>
        <time>2021-02-21T09:23:04Z</time>
      </trkpt>
      <trkpt lat="43.55585" lon="6.65274">
        <ele>291.8</ele>
        <time>2021-02-21T09:23:06Z</time>
      </trkpt>
      <trkpt lat="43.55585" lon="6.65274">
        <ele>293.5</ele>
        <time>2021-02-21T09:23:13Z</time>
      </trkpt>
      <trkpt lat="43.55585" lon="6.65274">
        <ele>293.7</ele>
        <time>2021-02-21T09:23:14Z</time>
      </trkpt>
      <trkpt lat="43.55585" lon="6.65274">
        <ele>292.8</ele>
        <time>2021-02-21T09:23:16Z</time>
      </trkpt>
      <trkpt lat="43.55585" lon="6.65274">
        <ele>292.7</ele>
        <time>2021-02-21T09:23:17Z</time>
      </trkpt>
      <trkpt lat="43.55584" lon="6.65275">
        <ele>292.8</ele>
        <time>2021-02-21T09:23:19Z</time>
      </trkpt>
      <trkpt lat="43.55584" lon="6.65275">
        <ele>292.7</ele>
        <time>2021-02-21T09:23:21Z</time>
      </trkpt>
      <trkpt lat="43.55584" lon="6.65275">
        <ele>293</ele>
        <time>2021-02-21T09:23:29Z</time>
      </trkpt>
      <trkpt lat="43.55584" lon="6.65275">
        <ele>292.9</ele>
        <time>2021-02-21T09:23:30Z</time>
      </trkpt>
      <trkpt lat="43.55584" lon="6.65275">
        <ele>292.9</ele>
        <time>2021-02-21T09:23:35Z</time>
      </trkpt>
      <trkpt lat="43.55584" lon="6.65275">
        <ele>293</ele>
        <time>2021-02-21T09:23:36Z</time>
      </trkpt>
      <trkpt lat="43.55584" lon="6.65275">
        <ele>292.9</ele>
        <time>2021-02-21T09:23:42Z</time>
      </trkpt>
      <trkpt lat="43.55584" lon="6.65275">
        <ele>293</ele>
        <time>2021-02-21T09:23:43Z</time>
      </trkpt>
      <trkpt lat="43.55584" lon="6.65275">
        <ele>292.7</ele>
        <time>2021-02-21T09:23:48Z</time>
      </trkpt>
      <trkpt lat="43.55584" lon="6.65274">
        <ele>292.7</ele>
        <time>2021-02-21T09:23:51Z</time>
      </trkpt>
      <trkpt lat="43.55583" lon="6.65274">
        <ele>292.8</ele>
        <time>2021-02-21T09:23:52Z</time>
      </trkpt>
      <trkpt lat="43.55584" lon="6.65274">
        <ele>293</ele>
        <time>2021-02-21T09:24:11Z</time>
      </trkpt>
      <trkpt lat="43.55583" lon="6.65274">
        <ele>292.6</ele>
        <time>2021-02-21T09:24:30Z</time>
      </trkpt>
      <trkpt lat="43.55583" lon="6.65274">
        <ele>292.6</ele>
        <time>2021-02-21T09:24:31Z</time>
      </trkpt>
      <trkpt lat="43.55583" lon="6.65274">
        <ele>293</ele>
        <time>2021-02-21T09:24:42Z</time>
      </trkpt>
      <trkpt lat="43.55583" lon="6.65274">
        <ele>293.2</ele>
        <time>2021-02-21T09:24:43Z</time>
      </trkpt>
      <trkpt lat="43.55583" lon="6.65274">
        <ele>293.3</ele>
        <time>2021-02-21T09:24:45Z</time>
      </trkpt>
      <trkpt lat="43.55582" lon="6.65274">
        <ele>293.2</ele>
        <time>2021-02-21T09:24:47Z</time>
      </trkpt>
      <trkpt lat="43.55582" lon="6.65273">
        <ele>293.1</ele>
        <time>2021-02-21T09:24:51Z</time>
      </trkpt>
      <trkpt lat="43.55582" lon="6.65273">
        <ele>293.1</ele>
        <time>2021-02-21T09:24:52Z</time>
      </trkpt>
      <trkpt lat="43.55582" lon="6.65273">
        <ele>293.1</ele>
        <time>2021-02-21T09:24:56Z</time>
      </trkpt>
      <trkpt lat="43.5558" lon="6.65272">
        <ele>292.7</ele>
        <time>2021-02-21T09:25:00Z</time>
      </trkpt>
      <trkpt lat="43.55581" lon="6.65272">
        <ele>294</ele>
        <time>2021-02-21T09:25:20Z</time>
      </trkpt>
      <trkpt lat="43.5558" lon="6.65271">
        <ele>293.6</ele>
        <time>2021-02-21T09:25:22Z</time>
      </trkpt>
      <trkpt lat="43.5558" lon="6.65271">
        <ele>293.5</ele>
        <time>2021-02-21T09:25:23Z</time>
      </trkpt>
      <trkpt lat="43.5558" lon="6.65272">
        <ele>293.2</ele>
        <time>2021-02-21T09:25:26Z</time>
      </trkpt>
      <trkpt lat="43.5558" lon="6.65272">
        <ele>293.6</ele>
        <time>2021-02-21T09:25:30Z</time>
      </trkpt>
      <trkpt lat="43.5558" lon="6.65275">
        <ele>292</ele>
        <time>2021-02-21T09:25:40Z</time>
      </trkpt>
      <trkpt lat="43.5558" lon="6.65275">
        <ele>292.7</ele>
        <time>2021-02-21T09:25:41Z</time>
      </trkpt>
      <trkpt lat="43.5558" lon="6.65275">
        <ele>291</ele>
        <time>2021-02-21T09:25:42Z</time>
      </trkpt>
      <trkpt lat="43.55581" lon="6.65275">
        <ele>291.7</ele>
        <time>2021-02-21T09:25:44Z</time>
      </trkpt>
      <trkpt lat="43.55576" lon="6.65264">
        <ele>292.8</ele>
        <time>2021-02-21T09:25:55Z</time>
      </trkpt>
      <trkpt lat="43.55571" lon="6.6526">
        <ele>292.7</ele>
        <time>2021-02-21T09:26:04Z</time>
      </trkpt>
      <trkpt lat="43.55571" lon="6.6526">
        <ele>284.7</ele>
        <time>2021-02-21T09:26:07Z</time>
      </trkpt>
      <trkpt lat="43.55572" lon="6.65262">
        <ele>292.6</ele>
        <time>2021-02-21T09:26:11Z</time>
      </trkpt>
      <trkpt lat="43.55572" lon="6.65262">
        <ele>293.1</ele>
        <time>2021-02-21T09:26:15Z</time>
      </trkpt>
      <trkpt lat="43.55572" lon="6.65262">
        <ele>292.8</ele>
        <time>2021-02-21T09:26:18Z</time>
      </trkpt>
      <trkpt lat="43.55572" lon="6.65262">
        <ele>293.1</ele>
        <time>2021-02-21T09:26:21Z</time>
      </trkpt>
      <trkpt lat="43.55572" lon="6.65262">
        <ele>293.1</ele>
        <time>2021-02-21T09:26:23Z</time>
      </trkpt>
      <trkpt lat="43.55572" lon="6.65262">
        <ele>292.8</ele>
        <time>2021-02-21T09:26:32Z</time>
      </trkpt>
      <trkpt lat="43.5557" lon="6.65256">
        <ele>291.4</ele>
        <time>2021-02-21T09:26:44Z</time>
      </trkpt>
      <trkpt lat="43.55569" lon="6.65256">
        <ele>291.2</ele>
        <time>2021-02-21T09:26:45Z</time>
      </trkpt>
      <trkpt lat="43.55569" lon="6.65256">
        <ele>290.8</ele>
        <time>2021-02-21T09:26:47Z</time>
      </trkpt>
      <trkpt lat="43.55568" lon="6.65256">
        <ele>290.8</ele>
        <time>2021-02-21T09:26:51Z</time>
      </trkpt>
      <trkpt lat="43.55569" lon="6.65255">
        <ele>290.4</ele>
        <time>2021-02-21T09:26:59Z</time>
      </trkpt>
      <trkpt lat="43.55569" lon="6.65254">
        <ele>290.3</ele>
        <time>2021-02-21T09:27:02Z</time>
      </trkpt>
      <trkpt lat="43.55562" lon="6.65245">
        <ele>289.5</ele>
        <time>2021-02-21T09:27:19Z</time>
      </trkpt>
      <trkpt lat="43.55556" lon="6.65235">
        <ele>288.3</ele>
        <time>2021-02-21T09:27:32Z</time>
      </trkpt>
      <trkpt lat="43.5555" lon="6.65225">
        <ele>286.7</ele>
        <time>2021-02-21T09:27:43Z</time>
      </trkpt>
      <trkpt lat="43.55544" lon="6.65214">
        <ele>285.7</ele>
        <time>2021-02-21T09:27:55Z</time>
      </trkpt>
      <trkpt lat="43.55541" lon="6.65213">
        <ele>286</ele>
        <time>2021-02-21T09:28:01Z</time>
      </trkpt>
      <trkpt lat="43.55541" lon="6.65212">
        <ele>286.5</ele>
        <time>2021-02-21T09:28:03Z</time>
      </trkpt>
      <trkpt lat="43.55541" lon="6.65211">
        <ele>286.6</ele>
        <time>2021-02-21T09:28:06Z</time>
      </trkpt>
      <trkpt lat="43.5554" lon="6.65211">
        <ele>286.5</ele>
        <time>2021-02-21T09:28:07Z</time>
      </trkpt>
      <trkpt lat="43.5554" lon="6.65211">
        <ele>287.4</ele>
        <time>2021-02-21T09:28:11Z</time>
      </trkpt>
      <trkpt lat="43.5554" lon="6.65211">
        <ele>287.1</ele>
        <time>2021-02-21T09:28:13Z</time>
      </trkpt>
      <trkpt lat="43.55539" lon="6.6521">
        <ele>287.5</ele>
        <time>2021-02-21T09:28:16Z</time>
      </trkpt>
      <trkpt lat="43.55539" lon="6.6521">
        <ele>287.3</ele>
        <time>2021-02-21T09:28:17Z</time>
      </trkpt>
      <trkpt lat="43.55535" lon="6.65205">
        <ele>289.3</ele>
        <time>2021-02-21T09:28:28Z</time>
      </trkpt>
      <trkpt lat="43.55535" lon="6.65204">
        <ele>289.6</ele>
        <time>2021-02-21T09:28:29Z</time>
      </trkpt>
      <trkpt lat="43.55528" lon="6.65195">
        <ele>292</ele>
        <time>2021-02-21T09:28:47Z</time>
      </trkpt>
      <trkpt lat="43.55522" lon="6.65186">
        <ele>295.7</ele>
        <time>2021-02-21T09:29:07Z</time>
      </trkpt>
      <trkpt lat="43.55517" lon="6.65183">
        <ele>296.5</ele>
        <time>2021-02-21T09:29:16Z</time>
      </trkpt>
      <trkpt lat="43.55517" lon="6.65183">
        <ele>296.4</ele>
        <time>2021-02-21T09:29:21Z</time>
      </trkpt>
      <trkpt lat="43.55508" lon="6.65179">
        <ele>296.2</ele>
        <time>2021-02-21T09:29:34Z</time>
      </trkpt>
      <trkpt lat="43.55499" lon="6.65174">
        <ele>294.7</ele>
        <time>2021-02-21T09:29:42Z</time>
      </trkpt>
      <trkpt lat="43.55491" lon="6.6517">
        <ele>294.8</ele>
        <time>2021-02-21T09:29:52Z</time>
      </trkpt>
      <trkpt lat="43.55483" lon="6.65163">
        <ele>294.5</ele>
        <time>2021-02-21T09:30:03Z</time>
      </trkpt>
      <trkpt lat="43.55474" lon="6.65158">
        <ele>291.6</ele>
        <time>2021-02-21T09:30:14Z</time>
      </trkpt>
      <trkpt lat="43.55465" lon="6.65153">
        <ele>289.3</ele>
        <time>2021-02-21T09:30:25Z</time>
      </trkpt>
      <trkpt lat="43.55457" lon="6.65146">
        <ele>287.9</ele>
        <time>2021-02-21T09:30:39Z</time>
      </trkpt>
      <trkpt lat="43.55449" lon="6.65139">
        <ele>287.3</ele>
        <time>2021-02-21T09:30:47Z</time>
      </trkpt>
      <trkpt lat="43.55441" lon="6.65133">
        <ele>287.9</ele>
        <time>2021-02-21T09:30:56Z</time>
      </trkpt>
      <trkpt lat="43.55432" lon="6.65129">
        <ele>288.1</ele>
        <time>2021-02-21T09:31:04Z</time>
      </trkpt>
      <trkpt lat="43.55423" lon="6.65122">
        <ele>288.5</ele>
        <time>2021-02-21T09:31:12Z</time>
      </trkpt>
      <trkpt lat="43.55415" lon="6.65117">
        <ele>290.2</ele>
        <time>2021-02-21T09:31:22Z</time>
      </trkpt>
      <trkpt lat="43.55407" lon="6.65111">
        <ele>290.8</ele>
        <time>2021-02-21T09:31:33Z</time>
      </trkpt>
      <trkpt lat="43.55406" lon="6.6511">
        <ele>288.2</ele>
        <time>2021-02-21T09:31:36Z</time>
      </trkpt>
      <trkpt lat="43.55406" lon="6.65109">
        <ele>292.1</ele>
        <time>2021-02-21T09:31:38Z</time>
      </trkpt>
      <trkpt lat="43.55399" lon="6.65102">
        <ele>293.8</ele>
        <time>2021-02-21T09:31:52Z</time>
      </trkpt>
      <trkpt lat="43.55393" lon="6.65098">
        <ele>295.6</ele>
        <time>2021-02-21T09:32:02Z</time>
      </trkpt>
      <trkpt lat="43.55393" lon="6.65098">
        <ele>295.8</ele>
        <time>2021-02-21T09:32:03Z</time>
      </trkpt>
      <trkpt lat="43.55385" lon="6.65093">
        <ele>298</ele>
        <time>2021-02-21T09:32:17Z</time>
      </trkpt>
      <trkpt lat="43.55377" lon="6.65087">
        <ele>299.4</ele>
        <time>2021-02-21T09:32:29Z</time>
      </trkpt>
      <trkpt lat="43.5537" lon="6.65083">
        <ele>301.3</ele>
        <time>2021-02-21T09:32:40Z</time>
      </trkpt>
      <trkpt lat="43.55369" lon="6.65083">
        <ele>301.3</ele>
        <time>2021-02-21T09:32:41Z</time>
      </trkpt>
      <trkpt lat="43.55369" lon="6.65083">
        <ele>301.4</ele>
        <time>2021-02-21T09:32:42Z</time>
      </trkpt>
      <trkpt lat="43.5537" lon="6.65083">
        <ele>301.2</ele>
        <time>2021-02-21T09:32:59Z</time>
      </trkpt>
      <trkpt lat="43.5537" lon="6.65083">
        <ele>301.2</ele>
        <time>2021-02-21T09:33:00Z</time>
      </trkpt>
      <trkpt lat="43.5537" lon="6.65083">
        <ele>301.3</ele>
        <time>2021-02-21T09:33:07Z</time>
      </trkpt>
      <trkpt lat="43.5537" lon="6.65084">
        <ele>301.5</ele>
        <time>2021-02-21T09:33:09Z</time>
      </trkpt>
      <trkpt lat="43.5537" lon="6.65084">
        <ele>301.5</ele>
        <time>2021-02-21T09:33:13Z</time>
      </trkpt>
      <trkpt lat="43.5537" lon="6.65084">
        <ele>301.4</ele>
        <time>2021-02-21T09:33:14Z</time>
      </trkpt>
      <trkpt lat="43.5537" lon="6.65084">
        <ele>301.4</ele>
        <time>2021-02-21T09:33:19Z</time>
      </trkpt>
      <trkpt lat="43.55367" lon="6.65085">
        <ele>301.7</ele>
        <time>2021-02-21T09:33:25Z</time>
      </trkpt>
      <trkpt lat="43.55367" lon="6.65086">
        <ele>301.4</ele>
        <time>2021-02-21T09:33:29Z</time>
      </trkpt>
      <trkpt lat="43.55367" lon="6.65086">
        <ele>301.4</ele>
        <time>2021-02-21T09:33:31Z</time>
      </trkpt>
      <trkpt lat="43.55367" lon="6.65086">
        <ele>302.2</ele>
        <time>2021-02-21T09:33:32Z</time>
      </trkpt>
      <trkpt lat="43.55366" lon="6.65086">
        <ele>301.8</ele>
        <time>2021-02-21T09:33:34Z</time>
      </trkpt>
      <trkpt lat="43.55367" lon="6.65086">
        <ele>301.7</ele>
        <time>2021-02-21T09:33:35Z</time>
      </trkpt>
      <trkpt lat="43.55368" lon="6.65087">
        <ele>301.9</ele>
        <time>2021-02-21T09:33:39Z</time>
      </trkpt>
      <trkpt lat="43.55368" lon="6.65087">
        <ele>301.7</ele>
        <time>2021-02-21T09:33:49Z</time>
      </trkpt>
      <trkpt lat="43.55368" lon="6.65087">
        <ele>301.8</ele>
        <time>2021-02-21T09:33:50Z</time>
      </trkpt>
      <trkpt lat="43.55369" lon="6.65087">
        <ele>301.7</ele>
        <time>2021-02-21T09:33:55Z</time>
      </trkpt>
      <trkpt lat="43.55369" lon="6.65087">
        <ele>301.7</ele>
        <time>2021-02-21T09:33:56Z</time>
      </trkpt>
      <trkpt lat="43.55368" lon="6.65087">
        <ele>301.9</ele>
        <time>2021-02-21T09:34:07Z</time>
      </trkpt>
      <trkpt lat="43.55368" lon="6.65087">
        <ele>301.8</ele>
        <time>2021-02-21T09:34:08Z</time>
      </trkpt>
      <trkpt lat="43.55368" lon="6.65087">
        <ele>301.7</ele>
        <time>2021-02-21T09:34:31Z</time>
      </trkpt>
      <trkpt lat="43.55368" lon="6.65087">
        <ele>301.7</ele>
        <time>2021-02-21T09:34:32Z</time>
      </trkpt>
      <trkpt lat="43.55368" lon="6.65087">
        <ele>301.4</ele>
        <time>2021-02-21T09:34:42Z</time>
      </trkpt>
      <trkpt lat="43.55368" lon="6.65087">
        <ele>301.5</ele>
        <time>2021-02-21T09:34:43Z</time>
      </trkpt>
      <trkpt lat="43.55368" lon="6.65088">
        <ele>301.4</ele>
        <time>2021-02-21T09:35:03Z</time>
      </trkpt>
      <trkpt lat="43.55369" lon="6.65087">
        <ele>301.3</ele>
        <time>2021-02-21T09:35:07Z</time>
      </trkpt>
      <trkpt lat="43.55369" lon="6.65088">
        <ele>301.4</ele>
        <time>2021-02-21T09:35:08Z</time>
      </trkpt>
      <trkpt lat="43.55369" lon="6.65088">
        <ele>301.5</ele>
        <time>2021-02-21T09:35:11Z</time>
      </trkpt>
      <trkpt lat="43.55369" lon="6.65088">
        <ele>301.5</ele>
        <time>2021-02-21T09:35:13Z</time>
      </trkpt>
      <trkpt lat="43.55369" lon="6.65088">
        <ele>301.5</ele>
        <time>2021-02-21T09:35:14Z</time>
      </trkpt>
      <trkpt lat="43.55368" lon="6.65088">
        <ele>301.5</ele>
        <time>2021-02-21T09:35:44Z</time>
      </trkpt>
      <trkpt lat="43.55368" lon="6.65088">
        <ele>301.4</ele>
        <time>2021-02-21T09:35:45Z</time>
      </trkpt>
      <trkpt lat="43.55368" lon="6.65087">
        <ele>300.9</ele>
        <time>2021-02-21T09:36:21Z</time>
      </trkpt>
      <trkpt lat="43.55368" lon="6.65086">
        <ele>301.6</ele>
        <time>2021-02-21T09:36:24Z</time>
      </trkpt>
      <trkpt lat="43.55368" lon="6.65086">
        <ele>301.4</ele>
        <time>2021-02-21T09:36:41Z</time>
      </trkpt>
      <trkpt lat="43.55368" lon="6.65086">
        <ele>301.4</ele>
        <time>2021-02-21T09:36:42Z</time>
      </trkpt>
      <trkpt lat="43.55368" lon="6.65085">
        <ele>301.5</ele>
        <time>2021-02-21T09:36:56Z</time>
      </trkpt>
      <trkpt lat="43.5537" lon="6.65088">
        <ele>301.2</ele>
        <time>2021-02-21T09:37:02Z</time>
      </trkpt>
      <trkpt lat="43.5537" lon="6.65087">
        <ele>301.6</ele>
        <time>2021-02-21T09:37:07Z</time>
      </trkpt>
      <trkpt lat="43.55366" lon="6.65075">
        <ele>302</ele>
        <time>2021-02-21T09:37:18Z</time>
      </trkpt>
      <trkpt lat="43.55361" lon="6.65063">
        <ele>301.7</ele>
        <time>2021-02-21T09:37:28Z</time>
      </trkpt>
      <trkpt lat="43.55354" lon="6.65055">
        <ele>301.2</ele>
        <time>2021-02-21T09:37:35Z</time>
      </trkpt>
      <trkpt lat="43.55348" lon="6.65044">
        <ele>300.7</ele>
        <time>2021-02-21T09:37:43Z</time>
      </trkpt>
      <trkpt lat="43.55342" lon="6.65032">
        <ele>299.8</ele>
        <time>2021-02-21T09:37:52Z</time>
      </trkpt>
      <trkpt lat="43.55338" lon="6.6502">
        <ele>299.4</ele>
        <time>2021-02-21T09:38:00Z</time>
      </trkpt>
      <trkpt lat="43.55332" lon="6.65009">
        <ele>298.5</ele>
        <time>2021-02-21T09:38:08Z</time>
      </trkpt>
      <trkpt lat="43.55328" lon="6.64997">
        <ele>297.8</ele>
        <time>2021-02-21T09:38:16Z</time>
      </trkpt>
      <trkpt lat="43.55322" lon="6.64987">
        <ele>297</ele>
        <time>2021-02-21T09:38:23Z</time>
      </trkpt>
      <trkpt lat="43.55316" lon="6.64976">
        <ele>297.2</ele>
        <time>2021-02-21T09:38:31Z</time>
      </trkpt>
      <trkpt lat="43.55309" lon="6.64965">
        <ele>296.8</ele>
        <time>2021-02-21T09:38:39Z</time>
      </trkpt>
      <trkpt lat="43.55303" lon="6.64955">
        <ele>296.5</ele>
        <time>2021-02-21T09:38:48Z</time>
      </trkpt>
      <trkpt lat="43.55299" lon="6.64943">
        <ele>297</ele>
        <time>2021-02-21T09:38:56Z</time>
      </trkpt>
      <trkpt lat="43.55297" lon="6.64931">
        <ele>295.8</ele>
        <time>2021-02-21T09:39:04Z</time>
      </trkpt>
      <trkpt lat="43.55294" lon="6.64918">
        <ele>296</ele>
        <time>2021-02-21T09:39:12Z</time>
      </trkpt>
      <trkpt lat="43.55289" lon="6.64906">
        <ele>296.5</ele>
        <time>2021-02-21T09:39:19Z</time>
      </trkpt>
      <trkpt lat="43.55285" lon="6.64895">
        <ele>296.2</ele>
        <time>2021-02-21T09:39:26Z</time>
      </trkpt>
      <trkpt lat="43.55279" lon="6.64884">
        <ele>295.8</ele>
        <time>2021-02-21T09:39:34Z</time>
      </trkpt>
      <trkpt lat="43.55272" lon="6.64874">
        <ele>294.7</ele>
        <time>2021-02-21T09:39:40Z</time>
      </trkpt>
      <trkpt lat="43.55264" lon="6.64868">
        <ele>295</ele>
        <time>2021-02-21T09:39:48Z</time>
      </trkpt>
      <trkpt lat="43.55254" lon="6.64868">
        <ele>293.5</ele>
        <time>2021-02-21T09:39:55Z</time>
      </trkpt>
      <trkpt lat="43.55245" lon="6.64872">
        <ele>293.4</ele>
        <time>2021-02-21T09:40:01Z</time>
      </trkpt>
      <trkpt lat="43.55236" lon="6.64875">
        <ele>291.8</ele>
        <time>2021-02-21T09:40:09Z</time>
      </trkpt>
      <trkpt lat="43.55228" lon="6.64879">
        <ele>291.4</ele>
        <time>2021-02-21T09:40:16Z</time>
      </trkpt>
      <trkpt lat="43.55218" lon="6.64882">
        <ele>290.9</ele>
        <time>2021-02-21T09:40:23Z</time>
      </trkpt>
      <trkpt lat="43.55209" lon="6.64886">
        <ele>290.7</ele>
        <time>2021-02-21T09:40:30Z</time>
      </trkpt>
      <trkpt lat="43.552" lon="6.64889">
        <ele>289.3</ele>
        <time>2021-02-21T09:40:38Z</time>
      </trkpt>
      <trkpt lat="43.5519" lon="6.64892">
        <ele>289.6</ele>
        <time>2021-02-21T09:40:46Z</time>
      </trkpt>
      <trkpt lat="43.55182" lon="6.64897">
        <ele>289.1</ele>
        <time>2021-02-21T09:40:53Z</time>
      </trkpt>
      <trkpt lat="43.55173" lon="6.64899">
        <ele>288.6</ele>
        <time>2021-02-21T09:41:00Z</time>
      </trkpt>
      <trkpt lat="43.55163" lon="6.649">
        <ele>288.2</ele>
        <time>2021-02-21T09:41:08Z</time>
      </trkpt>
      <trkpt lat="43.55154" lon="6.64898">
        <ele>289.1</ele>
        <time>2021-02-21T09:41:16Z</time>
      </trkpt>
      <trkpt lat="43.55145" lon="6.64894">
        <ele>289.7</ele>
        <time>2021-02-21T09:41:25Z</time>
      </trkpt>
      <trkpt lat="43.55137" lon="6.64886">
        <ele>289.1</ele>
        <time>2021-02-21T09:41:35Z</time>
      </trkpt>
      <trkpt lat="43.55131" lon="6.64875">
        <ele>289.2</ele>
        <time>2021-02-21T09:41:44Z</time>
      </trkpt>
      <trkpt lat="43.55125" lon="6.64866">
        <ele>289.6</ele>
        <time>2021-02-21T09:41:52Z</time>
      </trkpt>
      <trkpt lat="43.55117" lon="6.64856">
        <ele>290.7</ele>
        <time>2021-02-21T09:42:00Z</time>
      </trkpt>
      <trkpt lat="43.5511" lon="6.64846">
        <ele>290.8</ele>
        <time>2021-02-21T09:42:08Z</time>
      </trkpt>
      <trkpt lat="43.55104" lon="6.64836">
        <ele>291</ele>
        <time>2021-02-21T09:42:17Z</time>
      </trkpt>
      <trkpt lat="43.5511" lon="6.64825">
        <ele>290.5</ele>
        <time>2021-02-21T09:42:27Z</time>
      </trkpt>
      <trkpt lat="43.5512" lon="6.64826">
        <ele>290.9</ele>
        <time>2021-02-21T09:42:38Z</time>
      </trkpt>
      <trkpt lat="43.55128" lon="6.64821">
        <ele>290.9</ele>
        <time>2021-02-21T09:42:45Z</time>
      </trkpt>
      <trkpt lat="43.55137" lon="6.64815">
        <ele>289.9</ele>
        <time>2021-02-21T09:42:52Z</time>
      </trkpt>
      <trkpt lat="43.55146" lon="6.64809">
        <ele>290.6</ele>
        <time>2021-02-21T09:43:00Z</time>
      </trkpt>
      <trkpt lat="43.55154" lon="6.64802">
        <ele>290</ele>
        <time>2021-02-21T09:43:08Z</time>
      </trkpt>
      <trkpt lat="43.55161" lon="6.64793">
        <ele>289.4</ele>
        <time>2021-02-21T09:43:15Z</time>
      </trkpt>
      <trkpt lat="43.55166" lon="6.64782">
        <ele>289.4</ele>
        <time>2021-02-21T09:43:23Z</time>
      </trkpt>
      <trkpt lat="43.55171" lon="6.6477">
        <ele>289.2</ele>
        <time>2021-02-21T09:43:31Z</time>
      </trkpt>
      <trkpt lat="43.55176" lon="6.64757">
        <ele>289.6</ele>
        <time>2021-02-21T09:43:40Z</time>
      </trkpt>
      <trkpt lat="43.55181" lon="6.64746">
        <ele>290.2</ele>
        <time>2021-02-21T09:43:48Z</time>
      </trkpt>
      <trkpt lat="43.55187" lon="6.64738">
        <ele>290</ele>
        <time>2021-02-21T09:43:56Z</time>
      </trkpt>
      <trkpt lat="43.55194" lon="6.64729">
        <ele>290.5</ele>
        <time>2021-02-21T09:44:05Z</time>
      </trkpt>
      <trkpt lat="43.55202" lon="6.6472">
        <ele>290.6</ele>
        <time>2021-02-21T09:44:13Z</time>
      </trkpt>
      <trkpt lat="43.5521" lon="6.64712">
        <ele>290.8</ele>
        <time>2021-02-21T09:44:21Z</time>
      </trkpt>
      <trkpt lat="43.55215" lon="6.64701">
        <ele>291.1</ele>
        <time>2021-02-21T09:44:29Z</time>
      </trkpt>
      <trkpt lat="43.55219" lon="6.6469">
        <ele>291.9</ele>
        <time>2021-02-21T09:44:36Z</time>
      </trkpt>
      <trkpt lat="43.55222" lon="6.64677">
        <ele>292.1</ele>
        <time>2021-02-21T09:44:44Z</time>
      </trkpt>
      <trkpt lat="43.55221" lon="6.64663">
        <ele>293</ele>
        <time>2021-02-21T09:44:52Z</time>
      </trkpt>
      <trkpt lat="43.55221" lon="6.64651">
        <ele>294</ele>
        <time>2021-02-21T09:45:00Z</time>
      </trkpt>
      <trkpt lat="43.55224" lon="6.64639">
        <ele>293.7</ele>
        <time>2021-02-21T09:45:07Z</time>
      </trkpt>
      <trkpt lat="43.55224" lon="6.64626">
        <ele>294.1</ele>
        <time>2021-02-21T09:45:15Z</time>
      </trkpt>
      <trkpt lat="43.5522" lon="6.64614">
        <ele>294.2</ele>
        <time>2021-02-21T09:45:22Z</time>
      </trkpt>
      <trkpt lat="43.55214" lon="6.64603">
        <ele>294.4</ele>
        <time>2021-02-21T09:45:29Z</time>
      </trkpt>
      <trkpt lat="43.55207" lon="6.64594">
        <ele>294.4</ele>
        <time>2021-02-21T09:45:36Z</time>
      </trkpt>
      <trkpt lat="43.55199" lon="6.64588">
        <ele>295.4</ele>
        <time>2021-02-21T09:45:43Z</time>
      </trkpt>
      <trkpt lat="43.5519" lon="6.64582">
        <ele>295</ele>
        <time>2021-02-21T09:45:50Z</time>
      </trkpt>
      <trkpt lat="43.55181" lon="6.64577">
        <ele>295.9</ele>
        <time>2021-02-21T09:45:58Z</time>
      </trkpt>
      <trkpt lat="43.55175" lon="6.64568">
        <ele>295.1</ele>
        <time>2021-02-21T09:46:08Z</time>
      </trkpt>
      <trkpt lat="43.55173" lon="6.64555">
        <ele>295.5</ele>
        <time>2021-02-21T09:46:17Z</time>
      </trkpt>
      <trkpt lat="43.55178" lon="6.64542">
        <ele>294.7</ele>
        <time>2021-02-21T09:46:25Z</time>
      </trkpt>
      <trkpt lat="43.55184" lon="6.64534">
        <ele>294.2</ele>
        <time>2021-02-21T09:46:33Z</time>
      </trkpt>
      <trkpt lat="43.5519" lon="6.64522">
        <ele>295.3</ele>
        <time>2021-02-21T09:46:43Z</time>
      </trkpt>
      <trkpt lat="43.55199" lon="6.64516">
        <ele>295.8</ele>
        <time>2021-02-21T09:46:51Z</time>
      </trkpt>
      <trkpt lat="43.55206" lon="6.64506">
        <ele>295.6</ele>
        <time>2021-02-21T09:47:00Z</time>
      </trkpt>
      <trkpt lat="43.55213" lon="6.64497">
        <ele>296.2</ele>
        <time>2021-02-21T09:47:07Z</time>
      </trkpt>
      <trkpt lat="43.55215" lon="6.64484">
        <ele>296.5</ele>
        <time>2021-02-21T09:47:14Z</time>
      </trkpt>
      <trkpt lat="43.55215" lon="6.64471">
        <ele>297.3</ele>
        <time>2021-02-21T09:47:21Z</time>
      </trkpt>
      <trkpt lat="43.55215" lon="6.64459">
        <ele>297.5</ele>
        <time>2021-02-21T09:47:28Z</time>
      </trkpt>
      <trkpt lat="43.55216" lon="6.64446">
        <ele>298.1</ele>
        <time>2021-02-21T09:47:36Z</time>
      </trkpt>
      <trkpt lat="43.55213" lon="6.64434">
        <ele>297.8</ele>
        <time>2021-02-21T09:47:44Z</time>
      </trkpt>
      <trkpt lat="43.55213" lon="6.64421">
        <ele>298.4</ele>
        <time>2021-02-21T09:47:53Z</time>
      </trkpt>
      <trkpt lat="43.55212" lon="6.64408">
        <ele>299</ele>
        <time>2021-02-21T09:48:01Z</time>
      </trkpt>
      <trkpt lat="43.55211" lon="6.64395">
        <ele>299</ele>
        <time>2021-02-21T09:48:10Z</time>
      </trkpt>
      <trkpt lat="43.55213" lon="6.64383">
        <ele>298.8</ele>
        <time>2021-02-21T09:48:19Z</time>
      </trkpt>
      <trkpt lat="43.55219" lon="6.64372">
        <ele>299.8</ele>
        <time>2021-02-21T09:48:31Z</time>
      </trkpt>
      <trkpt lat="43.55228" lon="6.64365">
        <ele>300.2</ele>
        <time>2021-02-21T09:48:40Z</time>
      </trkpt>
      <trkpt lat="43.55236" lon="6.64358">
        <ele>300.5</ele>
        <time>2021-02-21T09:48:49Z</time>
      </trkpt>
      <trkpt lat="43.55242" lon="6.64349">
        <ele>300.8</ele>
        <time>2021-02-21T09:48:56Z</time>
      </trkpt>
      <trkpt lat="43.55249" lon="6.6434">
        <ele>301.4</ele>
        <time>2021-02-21T09:49:03Z</time>
      </trkpt>
      <trkpt lat="43.55256" lon="6.64331">
        <ele>302.6</ele>
        <time>2021-02-21T09:49:11Z</time>
      </trkpt>
      <trkpt lat="43.55263" lon="6.64322">
        <ele>303</ele>
        <time>2021-02-21T09:49:18Z</time>
      </trkpt>
      <trkpt lat="43.55269" lon="6.64312">
        <ele>303.4</ele>
        <time>2021-02-21T09:49:26Z</time>
      </trkpt>
      <trkpt lat="43.55274" lon="6.64301">
        <ele>304</ele>
        <time>2021-02-21T09:49:34Z</time>
      </trkpt>
      <trkpt lat="43.55274" lon="6.64288">
        <ele>303.4</ele>
        <time>2021-02-21T09:49:41Z</time>
      </trkpt>
      <trkpt lat="43.55269" lon="6.64277">
        <ele>302.3</ele>
        <time>2021-02-21T09:49:49Z</time>
      </trkpt>
      <trkpt lat="43.55263" lon="6.64268">
        <ele>301.6</ele>
        <time>2021-02-21T09:49:56Z</time>
      </trkpt>
      <trkpt lat="43.55256" lon="6.64258">
        <ele>300.4</ele>
        <time>2021-02-21T09:50:04Z</time>
      </trkpt>
      <trkpt lat="43.55248" lon="6.6425">
        <ele>300</ele>
        <time>2021-02-21T09:50:11Z</time>
      </trkpt>
      <trkpt lat="43.55239" lon="6.64245">
        <ele>298.8</ele>
        <time>2021-02-21T09:50:20Z</time>
      </trkpt>
      <trkpt lat="43.55231" lon="6.64237">
        <ele>298.2</ele>
        <time>2021-02-21T09:50:28Z</time>
      </trkpt>
      <trkpt lat="43.55224" lon="6.64228">
        <ele>297.7</ele>
        <time>2021-02-21T09:50:36Z</time>
      </trkpt>
      <trkpt lat="43.55215" lon="6.64221">
        <ele>297</ele>
        <time>2021-02-21T09:50:45Z</time>
      </trkpt>
      <trkpt lat="43.55208" lon="6.64211">
        <ele>296.1</ele>
        <time>2021-02-21T09:50:54Z</time>
      </trkpt>
      <trkpt lat="43.55202" lon="6.64202">
        <ele>295.8</ele>
        <time>2021-02-21T09:51:01Z</time>
      </trkpt>
      <trkpt lat="43.55195" lon="6.64193">
        <ele>295.4</ele>
        <time>2021-02-21T09:51:09Z</time>
      </trkpt>
      <trkpt lat="43.55189" lon="6.64183">
        <ele>295</ele>
        <time>2021-02-21T09:51:16Z</time>
      </trkpt>
      <trkpt lat="43.55187" lon="6.6417">
        <ele>294.1</ele>
        <time>2021-02-21T09:51:26Z</time>
      </trkpt>
      <trkpt lat="43.55185" lon="6.64158">
        <ele>293.2</ele>
        <time>2021-02-21T09:51:34Z</time>
      </trkpt>
      <trkpt lat="43.55183" lon="6.64145">
        <ele>292.6</ele>
        <time>2021-02-21T09:51:42Z</time>
      </trkpt>
      <trkpt lat="43.55179" lon="6.64132">
        <ele>292.4</ele>
        <time>2021-02-21T09:51:51Z</time>
      </trkpt>
      <trkpt lat="43.55172" lon="6.64122">
        <ele>292.3</ele>
        <time>2021-02-21T09:51:58Z</time>
      </trkpt>
      <trkpt lat="43.55164" lon="6.64114">
        <ele>292.5</ele>
        <time>2021-02-21T09:52:06Z</time>
      </trkpt>
      <trkpt lat="43.55158" lon="6.64104">
        <ele>291.3</ele>
        <time>2021-02-21T09:52:12Z</time>
      </trkpt>
      <trkpt lat="43.55153" lon="6.64092">
        <ele>290.8</ele>
        <time>2021-02-21T09:52:20Z</time>
      </trkpt>
      <trkpt lat="43.55148" lon="6.64082">
        <ele>290.8</ele>
        <time>2021-02-21T09:52:28Z</time>
      </trkpt>
      <trkpt lat="43.55142" lon="6.6407">
        <ele>291</ele>
        <time>2021-02-21T09:52:36Z</time>
      </trkpt>
      <trkpt lat="43.55135" lon="6.6406">
        <ele>290.7</ele>
        <time>2021-02-21T09:52:43Z</time>
      </trkpt>
      <trkpt lat="43.55126" lon="6.64052">
        <ele>291.1</ele>
        <time>2021-02-21T09:52:51Z</time>
      </trkpt>
      <trkpt lat="43.55117" lon="6.64047">
        <ele>291.2</ele>
        <time>2021-02-21T09:52:59Z</time>
      </trkpt>
      <trkpt lat="43.55107" lon="6.64047">
        <ele>290.6</ele>
        <time>2021-02-21T09:53:07Z</time>
      </trkpt>
      <trkpt lat="43.55098" lon="6.64049">
        <ele>289.8</ele>
        <time>2021-02-21T09:53:15Z</time>
      </trkpt>
      <trkpt lat="43.55088" lon="6.6405">
        <ele>289.4</ele>
        <time>2021-02-21T09:53:22Z</time>
      </trkpt>
      <trkpt lat="43.55079" lon="6.64045">
        <ele>288.6</ele>
        <time>2021-02-21T09:53:33Z</time>
      </trkpt>
      <trkpt lat="43.55072" lon="6.64035">
        <ele>288</ele>
        <time>2021-02-21T09:53:43Z</time>
      </trkpt>
      <trkpt lat="43.55064" lon="6.64028">
        <ele>288.1</ele>
        <time>2021-02-21T09:53:49Z</time>
      </trkpt>
      <trkpt lat="43.55055" lon="6.64023">
        <ele>288.1</ele>
        <time>2021-02-21T09:53:56Z</time>
      </trkpt>
      <trkpt lat="43.55047" lon="6.64019">
        <ele>288.6</ele>
        <time>2021-02-21T09:54:02Z</time>
      </trkpt>
      <trkpt lat="43.55037" lon="6.64014">
        <ele>288.7</ele>
        <time>2021-02-21T09:54:09Z</time>
      </trkpt>
      <trkpt lat="43.55027" lon="6.6401">
        <ele>288.8</ele>
        <time>2021-02-21T09:54:17Z</time>
      </trkpt>
      <trkpt lat="43.55017" lon="6.64007">
        <ele>288.6</ele>
        <time>2021-02-21T09:54:25Z</time>
      </trkpt>
      <trkpt lat="43.55008" lon="6.64008">
        <ele>288.7</ele>
        <time>2021-02-21T09:54:32Z</time>
      </trkpt>
      <trkpt lat="43.54998" lon="6.64009">
        <ele>288.9</ele>
        <time>2021-02-21T09:54:40Z</time>
      </trkpt>
      <trkpt lat="43.54989" lon="6.64011">
        <ele>288.7</ele>
        <time>2021-02-21T09:54:49Z</time>
      </trkpt>
      <trkpt lat="43.5498" lon="6.64014">
        <ele>289.3</ele>
        <time>2021-02-21T09:54:57Z</time>
      </trkpt>
      <trkpt lat="43.54972" lon="6.64019">
        <ele>289.8</ele>
        <time>2021-02-21T09:55:05Z</time>
      </trkpt>
      <trkpt lat="43.54963" lon="6.64025">
        <ele>290.7</ele>
        <time>2021-02-21T09:55:13Z</time>
      </trkpt>
      <trkpt lat="43.54956" lon="6.64035">
        <ele>291.3</ele>
        <time>2021-02-21T09:55:21Z</time>
      </trkpt>
      <trkpt lat="43.54948" lon="6.64042">
        <ele>291.2</ele>
        <time>2021-02-21T09:55:28Z</time>
      </trkpt>
      <trkpt lat="43.54941" lon="6.64049">
        <ele>292.1</ele>
        <time>2021-02-21T09:55:36Z</time>
      </trkpt>
      <trkpt lat="43.54931" lon="6.64049">
        <ele>292.2</ele>
        <time>2021-02-21T09:55:44Z</time>
      </trkpt>
      <trkpt lat="43.54921" lon="6.6405">
        <ele>292.2</ele>
        <time>2021-02-21T09:55:52Z</time>
      </trkpt>
      <trkpt lat="43.54911" lon="6.6405">
        <ele>292.2</ele>
        <time>2021-02-21T09:56:01Z</time>
      </trkpt>
      <trkpt lat="43.54901" lon="6.64049">
        <ele>292.6</ele>
        <time>2021-02-21T09:56:09Z</time>
      </trkpt>
      <trkpt lat="43.54891" lon="6.64051">
        <ele>292.5</ele>
        <time>2021-02-21T09:56:17Z</time>
      </trkpt>
      <trkpt lat="43.54882" lon="6.6405">
        <ele>292.1</ele>
        <time>2021-02-21T09:56:25Z</time>
      </trkpt>
      <trkpt lat="43.54872" lon="6.64048">
        <ele>292.1</ele>
        <time>2021-02-21T09:56:32Z</time>
      </trkpt>
      <trkpt lat="43.54863" lon="6.64048">
        <ele>291.9</ele>
        <time>2021-02-21T09:56:42Z</time>
      </trkpt>
      <trkpt lat="43.54853" lon="6.64045">
        <ele>292</ele>
        <time>2021-02-21T09:56:49Z</time>
      </trkpt>
      <trkpt lat="43.54844" lon="6.64046">
        <ele>291.9</ele>
        <time>2021-02-21T09:56:56Z</time>
      </trkpt>
      <trkpt lat="43.54835" lon="6.64046">
        <ele>292.1</ele>
        <time>2021-02-21T09:57:02Z</time>
      </trkpt>
      <trkpt lat="43.54826" lon="6.64047">
        <ele>292.4</ele>
        <time>2021-02-21T09:57:09Z</time>
      </trkpt>
      <trkpt lat="43.54819" lon="6.64038">
        <ele>292.8</ele>
        <time>2021-02-21T09:57:22Z</time>
      </trkpt>
      <trkpt lat="43.54824" lon="6.64027">
        <ele>293.1</ele>
        <time>2021-02-21T09:57:33Z</time>
      </trkpt>
      <trkpt lat="43.54831" lon="6.64018">
        <ele>293.3</ele>
        <time>2021-02-21T09:57:43Z</time>
      </trkpt>
      <trkpt lat="43.54838" lon="6.6401">
        <ele>294</ele>
        <time>2021-02-21T09:57:51Z</time>
      </trkpt>
      <trkpt lat="43.54847" lon="6.64003">
        <ele>294.6</ele>
        <time>2021-02-21T09:58:02Z</time>
      </trkpt>
      <trkpt lat="43.54856" lon="6.63999">
        <ele>295.4</ele>
        <time>2021-02-21T09:58:12Z</time>
      </trkpt>
      <trkpt lat="43.54863" lon="6.63991">
        <ele>296.1</ele>
        <time>2021-02-21T09:58:21Z</time>
      </trkpt>
      <trkpt lat="43.54872" lon="6.63983">
        <ele>297.1</ele>
        <time>2021-02-21T09:58:29Z</time>
      </trkpt>
      <trkpt lat="43.5488" lon="6.63974">
        <ele>298.1</ele>
        <time>2021-02-21T09:58:37Z</time>
      </trkpt>
      <trkpt lat="43.54887" lon="6.63965">
        <ele>299</ele>
        <time>2021-02-21T09:58:46Z</time>
      </trkpt>
      <trkpt lat="43.54894" lon="6.63956">
        <ele>300.2</ele>
        <time>2021-02-21T09:58:55Z</time>
      </trkpt>
      <trkpt lat="43.549" lon="6.63947">
        <ele>301</ele>
        <time>2021-02-21T09:59:05Z</time>
      </trkpt>
      <trkpt lat="43.54906" lon="6.63936">
        <ele>301.5</ele>
        <time>2021-02-21T09:59:14Z</time>
      </trkpt>
      <trkpt lat="43.54911" lon="6.63924">
        <ele>302.1</ele>
        <time>2021-02-21T09:59:25Z</time>
      </trkpt>
      <trkpt lat="43.54916" lon="6.63912">
        <ele>302.6</ele>
        <time>2021-02-21T09:59:34Z</time>
      </trkpt>
      <trkpt lat="43.54923" lon="6.63903">
        <ele>303.9</ele>
        <time>2021-02-21T09:59:42Z</time>
      </trkpt>
      <trkpt lat="43.54927" lon="6.63892">
        <ele>306.1</ele>
        <time>2021-02-21T09:59:54Z</time>
      </trkpt>
      <trkpt lat="43.54933" lon="6.63882">
        <ele>306.5</ele>
        <time>2021-02-21T10:00:03Z</time>
      </trkpt>
      <trkpt lat="43.54938" lon="6.6387">
        <ele>307.8</ele>
        <time>2021-02-21T10:00:14Z</time>
      </trkpt>
      <trkpt lat="43.54943" lon="6.63863">
        <ele>308.4</ele>
        <time>2021-02-21T10:00:24Z</time>
      </trkpt>
      <trkpt lat="43.54944" lon="6.63862">
        <ele>308.4</ele>
        <time>2021-02-21T10:00:25Z</time>
      </trkpt>
      <trkpt lat="43.5495" lon="6.63852">
        <ele>308.8</ele>
        <time>2021-02-21T10:00:34Z</time>
      </trkpt>
      <trkpt lat="43.54953" lon="6.6384">
        <ele>309.4</ele>
        <time>2021-02-21T10:00:42Z</time>
      </trkpt>
      <trkpt lat="43.54957" lon="6.63829">
        <ele>308.7</ele>
        <time>2021-02-21T10:00:50Z</time>
      </trkpt>
      <trkpt lat="43.54959" lon="6.63825">
        <ele>309.2</ele>
        <time>2021-02-21T10:01:09Z</time>
      </trkpt>
      <trkpt lat="43.54959" lon="6.63825">
        <ele>308.2</ele>
        <time>2021-02-21T10:01:19Z</time>
      </trkpt>
      <trkpt lat="43.54959" lon="6.63825">
        <ele>308.2</ele>
        <time>2021-02-21T10:01:20Z</time>
      </trkpt>
      <trkpt lat="43.54958" lon="6.63825">
        <ele>309.3</ele>
        <time>2021-02-21T10:01:41Z</time>
      </trkpt>
      <trkpt lat="43.54958" lon="6.63825">
        <ele>309.1</ele>
        <time>2021-02-21T10:01:42Z</time>
      </trkpt>
      <trkpt lat="43.54958" lon="6.63825">
        <ele>309.9</ele>
        <time>2021-02-21T10:02:00Z</time>
      </trkpt>
      <trkpt lat="43.54958" lon="6.63825">
        <ele>309.9</ele>
        <time>2021-02-21T10:02:01Z</time>
      </trkpt>
      <trkpt lat="43.54958" lon="6.63826">
        <ele>310.4</ele>
        <time>2021-02-21T10:02:29Z</time>
      </trkpt>
      <trkpt lat="43.54958" lon="6.63826">
        <ele>310.3</ele>
        <time>2021-02-21T10:02:30Z</time>
      </trkpt>
      <trkpt lat="43.54958" lon="6.63826">
        <ele>309.4</ele>
        <time>2021-02-21T10:02:47Z</time>
      </trkpt>
      <trkpt lat="43.5496" lon="6.63813">
        <ele>310</ele>
        <time>2021-02-21T10:03:02Z</time>
      </trkpt>
      <trkpt lat="43.54965" lon="6.63803">
        <ele>310.1</ele>
        <time>2021-02-21T10:03:11Z</time>
      </trkpt>
      <trkpt lat="43.54971" lon="6.63792">
        <ele>309.8</ele>
        <time>2021-02-21T10:03:23Z</time>
      </trkpt>
      <trkpt lat="43.54971" lon="6.63792">
        <ele>309.6</ele>
        <time>2021-02-21T10:03:24Z</time>
      </trkpt>
      <trkpt lat="43.54971" lon="6.63792">
        <ele>309.7</ele>
        <time>2021-02-21T10:03:26Z</time>
      </trkpt>
      <trkpt lat="43.54977" lon="6.63783">
        <ele>310.1</ele>
        <time>2021-02-21T10:03:41Z</time>
      </trkpt>
      <trkpt lat="43.54982" lon="6.63771">
        <ele>311.2</ele>
        <time>2021-02-21T10:03:50Z</time>
      </trkpt>
      <trkpt lat="43.54984" lon="6.63764">
        <ele>313.7</ele>
        <time>2021-02-21T10:04:00Z</time>
      </trkpt>
      <trkpt lat="43.54984" lon="6.63764">
        <ele>312.4</ele>
        <time>2021-02-21T10:04:10Z</time>
      </trkpt>
      <trkpt lat="43.54983" lon="6.63765">
        <ele>312</ele>
        <time>2021-02-21T10:04:14Z</time>
      </trkpt>
      <trkpt lat="43.54983" lon="6.63765">
        <ele>312.1</ele>
        <time>2021-02-21T10:04:17Z</time>
      </trkpt>
      <trkpt lat="43.54983" lon="6.63765">
        <ele>312.1</ele>
        <time>2021-02-21T10:04:19Z</time>
      </trkpt>
      <trkpt lat="43.54983" lon="6.63765">
        <ele>312.2</ele>
        <time>2021-02-21T10:04:20Z</time>
      </trkpt>
      <trkpt lat="43.54981" lon="6.63765">
        <ele>312.6</ele>
        <time>2021-02-21T10:04:25Z</time>
      </trkpt>
      <trkpt lat="43.54981" lon="6.63765">
        <ele>312.5</ele>
        <time>2021-02-21T10:04:26Z</time>
      </trkpt>
      <trkpt lat="43.54982" lon="6.63766">
        <ele>311.6</ele>
        <time>2021-02-21T10:04:29Z</time>
      </trkpt>
      <trkpt lat="43.54982" lon="6.63765">
        <ele>311.7</ele>
        <time>2021-02-21T10:04:30Z</time>
      </trkpt>
      <trkpt lat="43.54982" lon="6.63765">
        <ele>311.8</ele>
        <time>2021-02-21T10:04:31Z</time>
      </trkpt>
      <trkpt lat="43.54982" lon="6.63766">
        <ele>311.8</ele>
        <time>2021-02-21T10:05:03Z</time>
      </trkpt>
      <trkpt lat="43.54982" lon="6.63766">
        <ele>311.3</ele>
        <time>2021-02-21T10:05:04Z</time>
      </trkpt>
      <trkpt lat="43.54982" lon="6.63765">
        <ele>311.9</ele>
        <time>2021-02-21T10:05:07Z</time>
      </trkpt>
      <trkpt lat="43.54983" lon="6.63764">
        <ele>314.2</ele>
        <time>2021-02-21T10:05:13Z</time>
      </trkpt>
      <trkpt lat="43.54983" lon="6.63765">
        <ele>313.8</ele>
        <time>2021-02-21T10:05:15Z</time>
      </trkpt>
      <trkpt lat="43.54983" lon="6.63765">
        <ele>313.5</ele>
        <time>2021-02-21T10:05:17Z</time>
      </trkpt>
      <trkpt lat="43.54983" lon="6.63765">
        <ele>313</ele>
        <time>2021-02-21T10:05:23Z</time>
      </trkpt>
      <trkpt lat="43.54983" lon="6.63765">
        <ele>312.9</ele>
        <time>2021-02-21T10:05:24Z</time>
      </trkpt>
      <trkpt lat="43.54982" lon="6.63765">
        <ele>312.8</ele>
        <time>2021-02-21T10:05:27Z</time>
      </trkpt>
      <trkpt lat="43.5498" lon="6.63766">
        <ele>310.4</ele>
        <time>2021-02-21T10:05:34Z</time>
      </trkpt>
      <trkpt lat="43.54981" lon="6.63766">
        <ele>314.1</ele>
        <time>2021-02-21T10:05:37Z</time>
      </trkpt>
      <trkpt lat="43.54982" lon="6.63759">
        <ele>315</ele>
        <time>2021-02-21T10:05:47Z</time>
      </trkpt>
      <trkpt lat="43.54982" lon="6.63759">
        <ele>314.4</ele>
        <time>2021-02-21T10:05:48Z</time>
      </trkpt>
      <trkpt lat="43.54982" lon="6.63759">
        <ele>313.2</ele>
        <time>2021-02-21T10:05:49Z</time>
      </trkpt>
      <trkpt lat="43.54983" lon="6.63758">
        <ele>312.9</ele>
        <time>2021-02-21T10:05:50Z</time>
      </trkpt>
      <trkpt lat="43.54987" lon="6.63748">
        <ele>314.5</ele>
        <time>2021-02-21T10:06:01Z</time>
      </trkpt>
      <trkpt lat="43.54987" lon="6.63748">
        <ele>314.2</ele>
        <time>2021-02-21T10:06:04Z</time>
      </trkpt>
      <trkpt lat="43.54986" lon="6.63748">
        <ele>312.7</ele>
        <time>2021-02-21T10:06:06Z</time>
      </trkpt>
      <trkpt lat="43.54986" lon="6.63748">
        <ele>313</ele>
        <time>2021-02-21T10:06:08Z</time>
      </trkpt>
      <trkpt lat="43.54991" lon="6.63736">
        <ele>313.8</ele>
        <time>2021-02-21T10:06:19Z</time>
      </trkpt>
      <trkpt lat="43.54994" lon="6.63723">
        <ele>313.5</ele>
        <time>2021-02-21T10:06:27Z</time>
      </trkpt>
      <trkpt lat="43.54997" lon="6.63711">
        <ele>311.7</ele>
        <time>2021-02-21T10:06:34Z</time>
      </trkpt>
      <trkpt lat="43.54999" lon="6.63697">
        <ele>310.4</ele>
        <time>2021-02-21T10:06:43Z</time>
      </trkpt>
      <trkpt lat="43.55002" lon="6.63683">
        <ele>308.8</ele>
        <time>2021-02-21T10:06:51Z</time>
      </trkpt>
      <trkpt lat="43.55005" lon="6.63671">
        <ele>308.6</ele>
        <time>2021-02-21T10:06:59Z</time>
      </trkpt>
      <trkpt lat="43.55007" lon="6.63659">
        <ele>308</ele>
        <time>2021-02-21T10:07:07Z</time>
      </trkpt>
      <trkpt lat="43.55011" lon="6.63646">
        <ele>306.7</ele>
        <time>2021-02-21T10:07:15Z</time>
      </trkpt>
      <trkpt lat="43.55012" lon="6.63634">
        <ele>305.3</ele>
        <time>2021-02-21T10:07:22Z</time>
      </trkpt>
      <trkpt lat="43.55013" lon="6.63621">
        <ele>303</ele>
        <time>2021-02-21T10:07:30Z</time>
      </trkpt>
      <trkpt lat="43.55017" lon="6.63608">
        <ele>303.2</ele>
        <time>2021-02-21T10:07:38Z</time>
      </trkpt>
      <trkpt lat="43.55019" lon="6.63595">
        <ele>302.5</ele>
        <time>2021-02-21T10:07:46Z</time>
      </trkpt>
      <trkpt lat="43.55023" lon="6.63584">
        <ele>301.8</ele>
        <time>2021-02-21T10:07:53Z</time>
      </trkpt>
      <trkpt lat="43.55029" lon="6.63574">
        <ele>300.9</ele>
        <time>2021-02-21T10:08:01Z</time>
      </trkpt>
      <trkpt lat="43.55036" lon="6.63565">
        <ele>300.8</ele>
        <time>2021-02-21T10:08:09Z</time>
      </trkpt>
      <trkpt lat="43.55045" lon="6.63561">
        <ele>299.7</ele>
        <time>2021-02-21T10:08:19Z</time>
      </trkpt>
      <trkpt lat="43.55054" lon="6.63562">
        <ele>299.9</ele>
        <time>2021-02-21T10:08:27Z</time>
      </trkpt>
      <trkpt lat="43.55065" lon="6.63562">
        <ele>300.1</ele>
        <time>2021-02-21T10:08:34Z</time>
      </trkpt>
      <trkpt lat="43.55074" lon="6.63562">
        <ele>299.3</ele>
        <time>2021-02-21T10:08:40Z</time>
      </trkpt>
      <trkpt lat="43.55081" lon="6.6356">
        <ele>298.3</ele>
        <time>2021-02-21T10:08:51Z</time>
      </trkpt>
      <trkpt lat="43.55081" lon="6.6356">
        <ele>298.2</ele>
        <time>2021-02-21T10:08:52Z</time>
      </trkpt>
      <trkpt lat="43.55089" lon="6.63552">
        <ele>298</ele>
        <time>2021-02-21T10:08:57Z</time>
      </trkpt>
      <trkpt lat="43.55096" lon="6.63544">
        <ele>297.7</ele>
        <time>2021-02-21T10:09:03Z</time>
      </trkpt>
      <trkpt lat="43.55102" lon="6.63533">
        <ele>298</ele>
        <time>2021-02-21T10:09:10Z</time>
      </trkpt>
      <trkpt lat="43.55104" lon="6.63521">
        <ele>297.6</ele>
        <time>2021-02-21T10:09:17Z</time>
      </trkpt>
      <trkpt lat="43.55109" lon="6.63509">
        <ele>295.8</ele>
        <time>2021-02-21T10:09:25Z</time>
      </trkpt>
      <trkpt lat="43.55109" lon="6.63496">
        <ele>294.3</ele>
        <time>2021-02-21T10:09:33Z</time>
      </trkpt>
      <trkpt lat="43.5511" lon="6.63483">
        <ele>292.8</ele>
        <time>2021-02-21T10:09:42Z</time>
      </trkpt>
      <trkpt lat="43.55111" lon="6.6347">
        <ele>291.8</ele>
        <time>2021-02-21T10:09:50Z</time>
      </trkpt>
      <trkpt lat="43.55114" lon="6.63458">
        <ele>290.5</ele>
        <time>2021-02-21T10:10:00Z</time>
      </trkpt>
      <trkpt lat="43.55116" lon="6.63446">
        <ele>289.4</ele>
        <time>2021-02-21T10:10:11Z</time>
      </trkpt>
      <trkpt lat="43.55118" lon="6.63432">
        <ele>289.4</ele>
        <time>2021-02-21T10:10:19Z</time>
      </trkpt>
      <trkpt lat="43.55118" lon="6.63418">
        <ele>288.5</ele>
        <time>2021-02-21T10:10:29Z</time>
      </trkpt>
      <trkpt lat="43.55121" lon="6.63405">
        <ele>287.2</ele>
        <time>2021-02-21T10:10:38Z</time>
      </trkpt>
      <trkpt lat="43.55125" lon="6.63394">
        <ele>287.4</ele>
        <time>2021-02-21T10:10:46Z</time>
      </trkpt>
      <trkpt lat="43.55129" lon="6.63382">
        <ele>286.6</ele>
        <time>2021-02-21T10:10:55Z</time>
      </trkpt>
      <trkpt lat="43.55132" lon="6.6337">
        <ele>284.4</ele>
        <time>2021-02-21T10:11:05Z</time>
      </trkpt>
      <trkpt lat="43.55139" lon="6.63362">
        <ele>283.8</ele>
        <time>2021-02-21T10:11:14Z</time>
      </trkpt>
      <trkpt lat="43.55147" lon="6.63355">
        <ele>283</ele>
        <time>2021-02-21T10:11:24Z</time>
      </trkpt>
      <trkpt lat="43.55155" lon="6.63348">
        <ele>282.7</ele>
        <time>2021-02-21T10:11:33Z</time>
      </trkpt>
      <trkpt lat="43.55162" lon="6.6334">
        <ele>281.8</ele>
        <time>2021-02-21T10:11:44Z</time>
      </trkpt>
      <trkpt lat="43.55171" lon="6.63333">
        <ele>281.5</ele>
        <time>2021-02-21T10:11:51Z</time>
      </trkpt>
      <trkpt lat="43.55179" lon="6.63326">
        <ele>280.9</ele>
        <time>2021-02-21T10:11:59Z</time>
      </trkpt>
      <trkpt lat="43.55189" lon="6.63321">
        <ele>280.5</ele>
        <time>2021-02-21T10:12:07Z</time>
      </trkpt>
      <trkpt lat="43.55198" lon="6.63318">
        <ele>279.9</ele>
        <time>2021-02-21T10:12:17Z</time>
      </trkpt>
      <trkpt lat="43.55207" lon="6.63314">
        <ele>278.9</ele>
        <time>2021-02-21T10:12:26Z</time>
      </trkpt>
      <trkpt lat="43.55215" lon="6.63308">
        <ele>277.9</ele>
        <time>2021-02-21T10:12:37Z</time>
      </trkpt>
      <trkpt lat="43.5522" lon="6.63296">
        <ele>278</ele>
        <time>2021-02-21T10:12:45Z</time>
      </trkpt>
      <trkpt lat="43.55224" lon="6.63284">
        <ele>277.9</ele>
        <time>2021-02-21T10:12:52Z</time>
      </trkpt>
      <trkpt lat="43.55223" lon="6.63272">
        <ele>277.4</ele>
        <time>2021-02-21T10:13:00Z</time>
      </trkpt>
      <trkpt lat="43.55226" lon="6.63259">
        <ele>276.6</ele>
        <time>2021-02-21T10:13:09Z</time>
      </trkpt>
      <trkpt lat="43.5523" lon="6.63247">
        <ele>275.9</ele>
        <time>2021-02-21T10:13:18Z</time>
      </trkpt>
      <trkpt lat="43.55233" lon="6.63235">
        <ele>275.4</ele>
        <time>2021-02-21T10:13:27Z</time>
      </trkpt>
      <trkpt lat="43.55241" lon="6.63228">
        <ele>274.7</ele>
        <time>2021-02-21T10:13:36Z</time>
      </trkpt>
      <trkpt lat="43.5525" lon="6.63222">
        <ele>274.4</ele>
        <time>2021-02-21T10:13:44Z</time>
      </trkpt>
      <trkpt lat="43.55253" lon="6.6322">
        <ele>275.2</ele>
        <time>2021-02-21T10:13:50Z</time>
      </trkpt>
      <trkpt lat="43.55253" lon="6.6322">
        <ele>275.2</ele>
        <time>2021-02-21T10:13:51Z</time>
      </trkpt>
      <trkpt lat="43.55262" lon="6.63226">
        <ele>274.4</ele>
        <time>2021-02-21T10:14:01Z</time>
      </trkpt>
      <trkpt lat="43.5527" lon="6.63233">
        <ele>274.6</ele>
        <time>2021-02-21T10:14:08Z</time>
      </trkpt>
      <trkpt lat="43.55279" lon="6.63239">
        <ele>274.3</ele>
        <time>2021-02-21T10:14:17Z</time>
      </trkpt>
      <trkpt lat="43.55285" lon="6.63248">
        <ele>274.2</ele>
        <time>2021-02-21T10:14:24Z</time>
      </trkpt>
      <trkpt lat="43.55292" lon="6.63258">
        <ele>274</ele>
        <time>2021-02-21T10:14:33Z</time>
      </trkpt>
      <trkpt lat="43.55301" lon="6.63263">
        <ele>273.9</ele>
        <time>2021-02-21T10:14:41Z</time>
      </trkpt>
      <trkpt lat="43.55308" lon="6.63271">
        <ele>273.5</ele>
        <time>2021-02-21T10:14:49Z</time>
      </trkpt>
      <trkpt lat="43.55318" lon="6.63274">
        <ele>273</ele>
        <time>2021-02-21T10:14:57Z</time>
      </trkpt>
      <trkpt lat="43.55327" lon="6.63276">
        <ele>274.3</ele>
        <time>2021-02-21T10:15:06Z</time>
      </trkpt>
      <trkpt lat="43.55336" lon="6.63277">
        <ele>275.3</ele>
        <time>2021-02-21T10:15:14Z</time>
      </trkpt>
      <trkpt lat="43.55345" lon="6.63281">
        <ele>274.6</ele>
        <time>2021-02-21T10:15:22Z</time>
      </trkpt>
      <trkpt lat="43.55355" lon="6.6328">
        <ele>273.9</ele>
        <time>2021-02-21T10:15:31Z</time>
      </trkpt>
      <trkpt lat="43.55363" lon="6.63274">
        <ele>273.8</ele>
        <time>2021-02-21T10:15:38Z</time>
      </trkpt>
      <trkpt lat="43.5537" lon="6.63265">
        <ele>272.7</ele>
        <time>2021-02-21T10:15:45Z</time>
      </trkpt>
      <trkpt lat="43.55376" lon="6.63254">
        <ele>272.4</ele>
        <time>2021-02-21T10:15:53Z</time>
      </trkpt>
      <trkpt lat="43.55381" lon="6.63243">
        <ele>271.9</ele>
        <time>2021-02-21T10:16:01Z</time>
      </trkpt>
      <trkpt lat="43.55384" lon="6.63231">
        <ele>271.3</ele>
        <time>2021-02-21T10:16:10Z</time>
      </trkpt>
      <trkpt lat="43.55387" lon="6.63218">
        <ele>270.4</ele>
        <time>2021-02-21T10:16:19Z</time>
      </trkpt>
      <trkpt lat="43.5539" lon="6.63205">
        <ele>269.4</ele>
        <time>2021-02-21T10:16:28Z</time>
      </trkpt>
      <trkpt lat="43.55389" lon="6.63193">
        <ele>269</ele>
        <time>2021-02-21T10:16:36Z</time>
      </trkpt>
      <trkpt lat="43.5539" lon="6.63179">
        <ele>268</ele>
        <time>2021-02-21T10:16:45Z</time>
      </trkpt>
      <trkpt lat="43.55389" lon="6.63165">
        <ele>266.7</ele>
        <time>2021-02-21T10:16:54Z</time>
      </trkpt>
      <trkpt lat="43.55387" lon="6.63152">
        <ele>265.8</ele>
        <time>2021-02-21T10:17:02Z</time>
      </trkpt>
      <trkpt lat="43.55388" lon="6.63139">
        <ele>265.9</ele>
        <time>2021-02-21T10:17:11Z</time>
      </trkpt>
      <trkpt lat="43.55388" lon="6.63125">
        <ele>264.6</ele>
        <time>2021-02-21T10:17:19Z</time>
      </trkpt>
      <trkpt lat="43.55388" lon="6.63113">
        <ele>265</ele>
        <time>2021-02-21T10:17:26Z</time>
      </trkpt>
      <trkpt lat="43.5539" lon="6.63099">
        <ele>264.2</ele>
        <time>2021-02-21T10:17:34Z</time>
      </trkpt>
      <trkpt lat="43.55392" lon="6.63087">
        <ele>262.7</ele>
        <time>2021-02-21T10:17:43Z</time>
      </trkpt>
      <trkpt lat="43.55396" lon="6.63075">
        <ele>262.7</ele>
        <time>2021-02-21T10:17:53Z</time>
      </trkpt>
      <trkpt lat="43.554" lon="6.63064">
        <ele>262.6</ele>
        <time>2021-02-21T10:18:01Z</time>
      </trkpt>
      <trkpt lat="43.55406" lon="6.63054">
        <ele>261.6</ele>
        <time>2021-02-21T10:18:09Z</time>
      </trkpt>
      <trkpt lat="43.55409" lon="6.63041">
        <ele>261.4</ele>
        <time>2021-02-21T10:18:17Z</time>
      </trkpt>
      <trkpt lat="43.55412" lon="6.63029">
        <ele>260.4</ele>
        <time>2021-02-21T10:18:25Z</time>
      </trkpt>
      <trkpt lat="43.55415" lon="6.63016">
        <ele>258.5</ele>
        <time>2021-02-21T10:18:33Z</time>
      </trkpt>
      <trkpt lat="43.55416" lon="6.63002">
        <ele>258.3</ele>
        <time>2021-02-21T10:18:43Z</time>
      </trkpt>
      <trkpt lat="43.55413" lon="6.6299">
        <ele>257.3</ele>
        <time>2021-02-21T10:18:52Z</time>
      </trkpt>
      <trkpt lat="43.55411" lon="6.62977">
        <ele>257.3</ele>
        <time>2021-02-21T10:19:01Z</time>
      </trkpt>
      <trkpt lat="43.55414" lon="6.62964">
        <ele>256.5</ele>
        <time>2021-02-21T10:19:10Z</time>
      </trkpt>
      <trkpt lat="43.55419" lon="6.62953">
        <ele>255.3</ele>
        <time>2021-02-21T10:19:18Z</time>
      </trkpt>
      <trkpt lat="43.55424" lon="6.62941">
        <ele>255.2</ele>
        <time>2021-02-21T10:19:28Z</time>
      </trkpt>
      <trkpt lat="43.5543" lon="6.62931">
        <ele>254.9</ele>
        <time>2021-02-21T10:19:37Z</time>
      </trkpt>
      <trkpt lat="43.55435" lon="6.62921">
        <ele>254.3</ele>
        <time>2021-02-21T10:19:46Z</time>
      </trkpt>
      <trkpt lat="43.55437" lon="6.62918">
        <ele>254</ele>
        <time>2021-02-21T10:19:53Z</time>
      </trkpt>
      <trkpt lat="43.55437" lon="6.62918">
        <ele>254.3</ele>
        <time>2021-02-21T10:20:04Z</time>
      </trkpt>
      <trkpt lat="43.55437" lon="6.62918">
        <ele>254.4</ele>
        <time>2021-02-21T10:20:05Z</time>
      </trkpt>
      <trkpt lat="43.55437" lon="6.62917">
        <ele>253.8</ele>
        <time>2021-02-21T10:20:22Z</time>
      </trkpt>
      <trkpt lat="43.55437" lon="6.62917">
        <ele>253.7</ele>
        <time>2021-02-21T10:20:23Z</time>
      </trkpt>
      <trkpt lat="43.55437" lon="6.62917">
        <ele>253.8</ele>
        <time>2021-02-21T10:20:34Z</time>
      </trkpt>
      <trkpt lat="43.55437" lon="6.62917">
        <ele>253.7</ele>
        <time>2021-02-21T10:20:35Z</time>
      </trkpt>
      <trkpt lat="43.55437" lon="6.62917">
        <ele>253.7</ele>
        <time>2021-02-21T10:20:36Z</time>
      </trkpt>
      <trkpt lat="43.55437" lon="6.62917">
        <ele>253.9</ele>
        <time>2021-02-21T10:20:38Z</time>
      </trkpt>
      <trkpt lat="43.55437" lon="6.62917">
        <ele>253.9</ele>
        <time>2021-02-21T10:21:09Z</time>
      </trkpt>
      <trkpt lat="43.55438" lon="6.62915">
        <ele>253.7</ele>
        <time>2021-02-21T10:21:14Z</time>
      </trkpt>
      <trkpt lat="43.55438" lon="6.62915">
        <ele>253.4</ele>
        <time>2021-02-21T10:21:37Z</time>
      </trkpt>
      <trkpt lat="43.55445" lon="6.62905">
        <ele>253.4</ele>
        <time>2021-02-21T10:21:49Z</time>
      </trkpt>
      <trkpt lat="43.55453" lon="6.62898">
        <ele>252.7</ele>
        <time>2021-02-21T10:21:58Z</time>
      </trkpt>
      <trkpt lat="43.55461" lon="6.62892">
        <ele>252.5</ele>
        <time>2021-02-21T10:22:08Z</time>
      </trkpt>
      <trkpt lat="43.55471" lon="6.62887">
        <ele>252.1</ele>
        <time>2021-02-21T10:22:17Z</time>
      </trkpt>
      <trkpt lat="43.55481" lon="6.62882">
        <ele>251.6</ele>
        <time>2021-02-21T10:22:25Z</time>
      </trkpt>
      <trkpt lat="43.5549" lon="6.6288">
        <ele>250.7</ele>
        <time>2021-02-21T10:22:33Z</time>
      </trkpt>
      <trkpt lat="43.55499" lon="6.62874">
        <ele>249.8</ele>
        <time>2021-02-21T10:22:42Z</time>
      </trkpt>
      <trkpt lat="43.555" lon="6.62873">
        <ele>249.8</ele>
        <time>2021-02-21T10:22:46Z</time>
      </trkpt>
      <trkpt lat="43.555" lon="6.62873">
        <ele>249.8</ele>
        <time>2021-02-21T10:22:47Z</time>
      </trkpt>
      <trkpt lat="43.555" lon="6.62873">
        <ele>249.9</ele>
        <time>2021-02-21T10:22:48Z</time>
      </trkpt>
      <trkpt lat="43.555" lon="6.62873">
        <ele>249.9</ele>
        <time>2021-02-21T10:22:58Z</time>
      </trkpt>
      <trkpt lat="43.555" lon="6.62873">
        <ele>250</ele>
        <time>2021-02-21T10:23:00Z</time>
      </trkpt>
      <trkpt lat="43.555" lon="6.62873">
        <ele>250</ele>
        <time>2021-02-21T10:23:01Z</time>
      </trkpt>
      <trkpt lat="43.555" lon="6.62873">
        <ele>250</ele>
        <time>2021-02-21T10:23:04Z</time>
      </trkpt>
      <trkpt lat="43.555" lon="6.62872">
        <ele>250.1</ele>
        <time>2021-02-21T10:23:06Z</time>
      </trkpt>
      <trkpt lat="43.555" lon="6.62869">
        <ele>249.7</ele>
        <time>2021-02-21T10:23:14Z</time>
      </trkpt>
      <trkpt lat="43.55501" lon="6.62868">
        <ele>249.2</ele>
        <time>2021-02-21T10:23:20Z</time>
      </trkpt>
      <trkpt lat="43.55502" lon="6.62867">
        <ele>249.5</ele>
        <time>2021-02-21T10:23:24Z</time>
      </trkpt>
      <trkpt lat="43.55501" lon="6.62868">
        <ele>249.4</ele>
        <time>2021-02-21T10:23:26Z</time>
      </trkpt>
      <trkpt lat="43.55501" lon="6.62868">
        <ele>249.5</ele>
        <time>2021-02-21T10:23:28Z</time>
      </trkpt>
      <trkpt lat="43.55501" lon="6.62868">
        <ele>249.8</ele>
        <time>2021-02-21T10:23:41Z</time>
      </trkpt>
      <trkpt lat="43.55501" lon="6.62867">
        <ele>249.7</ele>
        <time>2021-02-21T10:23:44Z</time>
      </trkpt>
      <trkpt lat="43.55502" lon="6.62867">
        <ele>249.5</ele>
        <time>2021-02-21T10:23:46Z</time>
      </trkpt>
      <trkpt lat="43.55502" lon="6.62867">
        <ele>249.3</ele>
        <time>2021-02-21T10:23:48Z</time>
      </trkpt>
      <trkpt lat="43.55502" lon="6.62867">
        <ele>249.5</ele>
        <time>2021-02-21T10:24:00Z</time>
      </trkpt>
      <trkpt lat="43.55502" lon="6.62867">
        <ele>249.3</ele>
        <time>2021-02-21T10:24:01Z</time>
      </trkpt>
      <trkpt lat="43.55501" lon="6.62867">
        <ele>249.3</ele>
        <time>2021-02-21T10:24:02Z</time>
      </trkpt>
      <trkpt lat="43.55497" lon="6.62866">
        <ele>249.4</ele>
        <time>2021-02-21T10:24:07Z</time>
      </trkpt>
      <trkpt lat="43.55497" lon="6.62866">
        <ele>249.6</ele>
        <time>2021-02-21T10:24:15Z</time>
      </trkpt>
      <trkpt lat="43.55497" lon="6.62866">
        <ele>249.7</ele>
        <time>2021-02-21T10:24:16Z</time>
      </trkpt>
      <trkpt lat="43.55497" lon="6.62866">
        <ele>249.7</ele>
        <time>2021-02-21T10:24:20Z</time>
      </trkpt>
      <trkpt lat="43.55497" lon="6.62866">
        <ele>249.4</ele>
        <time>2021-02-21T10:24:23Z</time>
      </trkpt>
      <trkpt lat="43.55497" lon="6.62867">
        <ele>249.6</ele>
        <time>2021-02-21T10:24:32Z</time>
      </trkpt>
      <trkpt lat="43.55496" lon="6.62867">
        <ele>249.6</ele>
        <time>2021-02-21T10:24:37Z</time>
      </trkpt>
      <trkpt lat="43.55496" lon="6.62867">
        <ele>249.4</ele>
        <time>2021-02-21T10:24:42Z</time>
      </trkpt>
      <trkpt lat="43.55498" lon="6.62863">
        <ele>249</ele>
        <time>2021-02-21T10:24:50Z</time>
      </trkpt>
      <trkpt lat="43.55498" lon="6.62863">
        <ele>249</ele>
        <time>2021-02-21T10:24:52Z</time>
      </trkpt>
      <trkpt lat="43.55497" lon="6.62862">
        <ele>249</ele>
        <time>2021-02-21T10:24:55Z</time>
      </trkpt>
      <trkpt lat="43.55497" lon="6.62862">
        <ele>249.1</ele>
        <time>2021-02-21T10:24:56Z</time>
      </trkpt>
      <trkpt lat="43.55497" lon="6.62862">
        <ele>249.1</ele>
        <time>2021-02-21T10:24:57Z</time>
      </trkpt>
      <trkpt lat="43.55498" lon="6.62862">
        <ele>249.1</ele>
        <time>2021-02-21T10:24:58Z</time>
      </trkpt>
      <trkpt lat="43.55498" lon="6.62862">
        <ele>249</ele>
        <time>2021-02-21T10:25:00Z</time>
      </trkpt>
      <trkpt lat="43.55498" lon="6.62861">
        <ele>249</ele>
        <time>2021-02-21T10:25:06Z</time>
      </trkpt>
      <trkpt lat="43.55498" lon="6.62859">
        <ele>248.6</ele>
        <time>2021-02-21T10:25:11Z</time>
      </trkpt>
      <trkpt lat="43.55498" lon="6.62858">
        <ele>248.7</ele>
        <time>2021-02-21T10:25:14Z</time>
      </trkpt>
      <trkpt lat="43.555" lon="6.62846">
        <ele>247.7</ele>
        <time>2021-02-21T10:25:25Z</time>
      </trkpt>
      <trkpt lat="43.55501" lon="6.62833">
        <ele>247</ele>
        <time>2021-02-21T10:25:38Z</time>
      </trkpt>
      <trkpt lat="43.555" lon="6.62819">
        <ele>246.3</ele>
        <time>2021-02-21T10:25:49Z</time>
      </trkpt>
      <trkpt lat="43.55499" lon="6.62807">
        <ele>245.9</ele>
        <time>2021-02-21T10:25:58Z</time>
      </trkpt>
      <trkpt lat="43.55498" lon="6.62794">
        <ele>245.3</ele>
        <time>2021-02-21T10:26:09Z</time>
      </trkpt>
      <trkpt lat="43.55498" lon="6.62785">
        <ele>243.9</ele>
        <time>2021-02-21T10:26:20Z</time>
      </trkpt>
      <trkpt lat="43.55498" lon="6.62785">
        <ele>243.9</ele>
        <time>2021-02-21T10:26:21Z</time>
      </trkpt>
      <trkpt lat="43.55498" lon="6.62772">
        <ele>243.2</ele>
        <time>2021-02-21T10:26:32Z</time>
      </trkpt>
      <trkpt lat="43.55495" lon="6.62758">
        <ele>242.9</ele>
        <time>2021-02-21T10:26:40Z</time>
      </trkpt>
      <trkpt lat="43.55495" lon="6.62744">
        <ele>242.2</ele>
        <time>2021-02-21T10:26:49Z</time>
      </trkpt>
      <trkpt lat="43.55495" lon="6.62731">
        <ele>242</ele>
        <time>2021-02-21T10:26:57Z</time>
      </trkpt>
      <trkpt lat="43.55497" lon="6.62718">
        <ele>241.2</ele>
        <time>2021-02-21T10:27:06Z</time>
      </trkpt>
      <trkpt lat="43.55495" lon="6.62705">
        <ele>240.4</ele>
        <time>2021-02-21T10:27:15Z</time>
      </trkpt>
      <trkpt lat="43.55495" lon="6.62692">
        <ele>239.7</ele>
        <time>2021-02-21T10:27:24Z</time>
      </trkpt>
      <trkpt lat="43.55493" lon="6.62679">
        <ele>238.5</ele>
        <time>2021-02-21T10:27:34Z</time>
      </trkpt>
      <trkpt lat="43.55492" lon="6.62666">
        <ele>237.9</ele>
        <time>2021-02-21T10:27:42Z</time>
      </trkpt>
      <trkpt lat="43.55491" lon="6.62652">
        <ele>236.8</ele>
        <time>2021-02-21T10:27:51Z</time>
      </trkpt>
      <trkpt lat="43.55491" lon="6.62639">
        <ele>236.9</ele>
        <time>2021-02-21T10:28:00Z</time>
      </trkpt>
      <trkpt lat="43.55489" lon="6.62626">
        <ele>236.2</ele>
        <time>2021-02-21T10:28:08Z</time>
      </trkpt>
      <trkpt lat="43.55487" lon="6.62613">
        <ele>236.3</ele>
        <time>2021-02-21T10:28:17Z</time>
      </trkpt>
      <trkpt lat="43.55484" lon="6.62599">
        <ele>236.2</ele>
        <time>2021-02-21T10:28:26Z</time>
      </trkpt>
      <trkpt lat="43.55483" lon="6.62586">
        <ele>235.6</ele>
        <time>2021-02-21T10:28:35Z</time>
      </trkpt>
      <trkpt lat="43.55477" lon="6.62575">
        <ele>234.8</ele>
        <time>2021-02-21T10:28:44Z</time>
      </trkpt>
      <trkpt lat="43.55467" lon="6.62569">
        <ele>235.4</ele>
        <time>2021-02-21T10:28:56Z</time>
      </trkpt>
      <trkpt lat="43.55458" lon="6.62569">
        <ele>236.1</ele>
        <time>2021-02-21T10:29:05Z</time>
      </trkpt>
      <trkpt lat="43.55449" lon="6.6257">
        <ele>236.5</ele>
        <time>2021-02-21T10:29:12Z</time>
      </trkpt>
      <trkpt lat="43.5544" lon="6.62574">
        <ele>237</ele>
        <time>2021-02-21T10:29:21Z</time>
      </trkpt>
      <trkpt lat="43.55431" lon="6.62578">
        <ele>237.5</ele>
        <time>2021-02-21T10:29:29Z</time>
      </trkpt>
      <trkpt lat="43.55422" lon="6.62581">
        <ele>237.5</ele>
        <time>2021-02-21T10:29:37Z</time>
      </trkpt>
      <trkpt lat="43.55413" lon="6.62587">
        <ele>237.3</ele>
        <time>2021-02-21T10:29:45Z</time>
      </trkpt>
      <trkpt lat="43.55405" lon="6.62593">
        <ele>237.1</ele>
        <time>2021-02-21T10:29:53Z</time>
      </trkpt>
      <trkpt lat="43.55395" lon="6.62595">
        <ele>236.9</ele>
        <time>2021-02-21T10:30:00Z</time>
      </trkpt>
      <trkpt lat="43.55385" lon="6.6259">
        <ele>237.5</ele>
        <time>2021-02-21T10:30:08Z</time>
      </trkpt>
      <trkpt lat="43.55382" lon="6.62587">
        <ele>236.6</ele>
        <time>2021-02-21T10:30:14Z</time>
      </trkpt>
      <trkpt lat="43.55382" lon="6.62587">
        <ele>236.6</ele>
        <time>2021-02-21T10:30:15Z</time>
      </trkpt>
      <trkpt lat="43.55376" lon="6.62577">
        <ele>235.9</ele>
        <time>2021-02-21T10:30:23Z</time>
      </trkpt>
      <trkpt lat="43.55374" lon="6.62564">
        <ele>235.4</ele>
        <time>2021-02-21T10:30:30Z</time>
      </trkpt>
      <trkpt lat="43.55374" lon="6.62551">
        <ele>234.9</ele>
        <time>2021-02-21T10:30:38Z</time>
      </trkpt>
      <trkpt lat="43.55377" lon="6.62539">
        <ele>234</ele>
        <time>2021-02-21T10:30:46Z</time>
      </trkpt>
      <trkpt lat="43.55381" lon="6.62527">
        <ele>233.4</ele>
        <time>2021-02-21T10:30:55Z</time>
      </trkpt>
      <trkpt lat="43.55384" lon="6.62515">
        <ele>232.4</ele>
        <time>2021-02-21T10:31:03Z</time>
      </trkpt>
      <trkpt lat="43.55379" lon="6.62503">
        <ele>232</ele>
        <time>2021-02-21T10:31:11Z</time>
      </trkpt>
      <trkpt lat="43.55372" lon="6.62494">
        <ele>230.5</ele>
        <time>2021-02-21T10:31:19Z</time>
      </trkpt>
      <trkpt lat="43.55364" lon="6.62487">
        <ele>229.9</ele>
        <time>2021-02-21T10:31:27Z</time>
      </trkpt>
      <trkpt lat="43.55357" lon="6.62479">
        <ele>229.2</ele>
        <time>2021-02-21T10:31:35Z</time>
      </trkpt>
      <trkpt lat="43.5535" lon="6.62469">
        <ele>228.4</ele>
        <time>2021-02-21T10:31:44Z</time>
      </trkpt>
      <trkpt lat="43.55348" lon="6.62457">
        <ele>227.5</ele>
        <time>2021-02-21T10:31:53Z</time>
      </trkpt>
      <trkpt lat="43.55349" lon="6.62445">
        <ele>227.1</ele>
        <time>2021-02-21T10:32:01Z</time>
      </trkpt>
      <trkpt lat="43.55349" lon="6.62431">
        <ele>225.9</ele>
        <time>2021-02-21T10:32:11Z</time>
      </trkpt>
      <trkpt lat="43.55348" lon="6.62417">
        <ele>224.6</ele>
        <time>2021-02-21T10:32:21Z</time>
      </trkpt>
      <trkpt lat="43.55348" lon="6.62404">
        <ele>223.3</ele>
        <time>2021-02-21T10:32:30Z</time>
      </trkpt>
      <trkpt lat="43.55347" lon="6.62391">
        <ele>222.5</ele>
        <time>2021-02-21T10:32:40Z</time>
      </trkpt>
      <trkpt lat="43.55346" lon="6.62378">
        <ele>221.3</ele>
        <time>2021-02-21T10:32:48Z</time>
      </trkpt>
      <trkpt lat="43.55344" lon="6.62365">
        <ele>220.1</ele>
        <time>2021-02-21T10:32:57Z</time>
      </trkpt>
      <trkpt lat="43.55343" lon="6.62352">
        <ele>218.4</ele>
        <time>2021-02-21T10:33:07Z</time>
      </trkpt>
      <trkpt lat="43.55343" lon="6.62339">
        <ele>217.9</ele>
        <time>2021-02-21T10:33:15Z</time>
      </trkpt>
      <trkpt lat="43.55342" lon="6.62325">
        <ele>217.2</ele>
        <time>2021-02-21T10:33:24Z</time>
      </trkpt>
      <trkpt lat="43.55343" lon="6.62312">
        <ele>216.4</ele>
        <time>2021-02-21T10:33:33Z</time>
      </trkpt>
      <trkpt lat="43.55341" lon="6.62299">
        <ele>216.2</ele>
        <time>2021-02-21T10:33:41Z</time>
      </trkpt>
      <trkpt lat="43.55343" lon="6.62285">
        <ele>215</ele>
        <time>2021-02-21T10:33:50Z</time>
      </trkpt>
      <trkpt lat="43.55343" lon="6.62273">
        <ele>214.5</ele>
        <time>2021-02-21T10:33:58Z</time>
      </trkpt>
      <trkpt lat="43.55343" lon="6.62258">
        <ele>212.5</ele>
        <time>2021-02-21T10:34:06Z</time>
      </trkpt>
      <trkpt lat="43.55345" lon="6.62245">
        <ele>212.1</ele>
        <time>2021-02-21T10:34:15Z</time>
      </trkpt>
      <trkpt lat="43.55344" lon="6.62232">
        <ele>211.8</ele>
        <time>2021-02-21T10:34:24Z</time>
      </trkpt>
      <trkpt lat="43.55345" lon="6.6222">
        <ele>210.4</ele>
        <time>2021-02-21T10:34:33Z</time>
      </trkpt>
      <trkpt lat="43.55344" lon="6.62207">
        <ele>209.5</ele>
        <time>2021-02-21T10:34:41Z</time>
      </trkpt>
      <trkpt lat="43.55344" lon="6.62194">
        <ele>209.1</ele>
        <time>2021-02-21T10:34:50Z</time>
      </trkpt>
      <trkpt lat="43.55344" lon="6.62181">
        <ele>208.7</ele>
        <time>2021-02-21T10:34:58Z</time>
      </trkpt>
      <trkpt lat="43.55346" lon="6.62168">
        <ele>207.9</ele>
        <time>2021-02-21T10:35:09Z</time>
      </trkpt>
      <trkpt lat="43.55345" lon="6.62167">
        <ele>207.9</ele>
        <time>2021-02-21T10:35:11Z</time>
      </trkpt>
      <trkpt lat="43.55345" lon="6.62167">
        <ele>207.6</ele>
        <time>2021-02-21T10:35:16Z</time>
      </trkpt>
      <trkpt lat="43.55344" lon="6.62155">
        <ele>207.7</ele>
        <time>2021-02-21T10:35:25Z</time>
      </trkpt>
      <trkpt lat="43.55345" lon="6.62142">
        <ele>206.7</ele>
        <time>2021-02-21T10:35:33Z</time>
      </trkpt>
      <trkpt lat="43.55345" lon="6.62129">
        <ele>206.9</ele>
        <time>2021-02-21T10:35:41Z</time>
      </trkpt>
      <trkpt lat="43.55347" lon="6.62115">
        <ele>206.1</ele>
        <time>2021-02-21T10:35:50Z</time>
      </trkpt>
      <trkpt lat="43.55347" lon="6.62102">
        <ele>205.6</ele>
        <time>2021-02-21T10:35:57Z</time>
      </trkpt>
      <trkpt lat="43.55349" lon="6.62089">
        <ele>205.5</ele>
        <time>2021-02-21T10:36:05Z</time>
      </trkpt>
      <trkpt lat="43.5535" lon="6.62075">
        <ele>205</ele>
        <time>2021-02-21T10:36:14Z</time>
      </trkpt>
      <trkpt lat="43.55349" lon="6.62062">
        <ele>204.4</ele>
        <time>2021-02-21T10:36:22Z</time>
      </trkpt>
      <trkpt lat="43.5535" lon="6.62049">
        <ele>203.3</ele>
        <time>2021-02-21T10:36:31Z</time>
      </trkpt>
      <trkpt lat="43.55352" lon="6.62037">
        <ele>202.4</ele>
        <time>2021-02-21T10:36:39Z</time>
      </trkpt>
      <trkpt lat="43.5535" lon="6.62023">
        <ele>200.8</ele>
        <time>2021-02-21T10:36:48Z</time>
      </trkpt>
      <trkpt lat="43.5535" lon="6.62009">
        <ele>200.6</ele>
        <time>2021-02-21T10:36:56Z</time>
      </trkpt>
      <trkpt lat="43.55348" lon="6.61996">
        <ele>199.8</ele>
        <time>2021-02-21T10:37:04Z</time>
      </trkpt>
      <trkpt lat="43.55346" lon="6.61983">
        <ele>199</ele>
        <time>2021-02-21T10:37:12Z</time>
      </trkpt>
      <trkpt lat="43.55343" lon="6.61971">
        <ele>198.3</ele>
        <time>2021-02-21T10:37:20Z</time>
      </trkpt>
      <trkpt lat="43.55339" lon="6.61959">
        <ele>198.4</ele>
        <time>2021-02-21T10:37:29Z</time>
      </trkpt>
      <trkpt lat="43.55334" lon="6.61949">
        <ele>197.8</ele>
        <time>2021-02-21T10:37:37Z</time>
      </trkpt>
      <trkpt lat="43.55329" lon="6.61938">
        <ele>197.4</ele>
        <time>2021-02-21T10:37:45Z</time>
      </trkpt>
      <trkpt lat="43.55323" lon="6.61927">
        <ele>197.7</ele>
        <time>2021-02-21T10:37:53Z</time>
      </trkpt>
      <trkpt lat="43.5532" lon="6.61914">
        <ele>197.3</ele>
        <time>2021-02-21T10:38:01Z</time>
      </trkpt>
      <trkpt lat="43.55314" lon="6.61902">
        <ele>196.6</ele>
        <time>2021-02-21T10:38:10Z</time>
      </trkpt>
      <trkpt lat="43.55309" lon="6.61891">
        <ele>196.1</ele>
        <time>2021-02-21T10:38:21Z</time>
      </trkpt>
      <trkpt lat="43.55304" lon="6.61878">
        <ele>195.3</ele>
        <time>2021-02-21T10:38:31Z</time>
      </trkpt>
      <trkpt lat="43.55299" lon="6.61867">
        <ele>194.2</ele>
        <time>2021-02-21T10:38:39Z</time>
      </trkpt>
      <trkpt lat="43.55295" lon="6.61854">
        <ele>192.8</ele>
        <time>2021-02-21T10:38:47Z</time>
      </trkpt>
      <trkpt lat="43.55294" lon="6.6184">
        <ele>192</ele>
        <time>2021-02-21T10:38:55Z</time>
      </trkpt>
      <trkpt lat="43.55296" lon="6.61827">
        <ele>191.1</ele>
        <time>2021-02-21T10:39:03Z</time>
      </trkpt>
      <trkpt lat="43.55293" lon="6.61815">
        <ele>190.3</ele>
        <time>2021-02-21T10:39:10Z</time>
      </trkpt>
      <trkpt lat="43.55291" lon="6.61801">
        <ele>190.4</ele>
        <time>2021-02-21T10:39:20Z</time>
      </trkpt>
      <trkpt lat="43.5529" lon="6.61789">
        <ele>190.5</ele>
        <time>2021-02-21T10:39:28Z</time>
      </trkpt>
      <trkpt lat="43.55287" lon="6.61777">
        <ele>190.9</ele>
        <time>2021-02-21T10:39:35Z</time>
      </trkpt>
      <trkpt lat="43.55282" lon="6.61766">
        <ele>191.6</ele>
        <time>2021-02-21T10:39:46Z</time>
      </trkpt>
      <trkpt lat="43.55276" lon="6.61757">
        <ele>193.1</ele>
        <time>2021-02-21T10:39:58Z</time>
      </trkpt>
      <trkpt lat="43.55269" lon="6.61748">
        <ele>193.5</ele>
        <time>2021-02-21T10:40:05Z</time>
      </trkpt>
      <trkpt lat="43.55263" lon="6.61739">
        <ele>193.6</ele>
        <time>2021-02-21T10:40:13Z</time>
      </trkpt>
      <trkpt lat="43.55258" lon="6.61727">
        <ele>192.6</ele>
        <time>2021-02-21T10:40:20Z</time>
      </trkpt>
      <trkpt lat="43.55255" lon="6.61715">
        <ele>192.7</ele>
        <time>2021-02-21T10:40:27Z</time>
      </trkpt>
      <trkpt lat="43.55253" lon="6.61701">
        <ele>192.1</ele>
        <time>2021-02-21T10:40:35Z</time>
      </trkpt>
      <trkpt lat="43.55253" lon="6.61688">
        <ele>191.4</ele>
        <time>2021-02-21T10:40:44Z</time>
      </trkpt>
      <trkpt lat="43.55252" lon="6.61675">
        <ele>191.5</ele>
        <time>2021-02-21T10:40:50Z</time>
      </trkpt>
      <trkpt lat="43.5525" lon="6.61663">
        <ele>191</ele>
        <time>2021-02-21T10:40:57Z</time>
      </trkpt>
      <trkpt lat="43.55248" lon="6.61649">
        <ele>191.2</ele>
        <time>2021-02-21T10:41:06Z</time>
      </trkpt>
      <trkpt lat="43.55246" lon="6.61636">
        <ele>191.4</ele>
        <time>2021-02-21T10:41:14Z</time>
      </trkpt>
      <trkpt lat="43.55244" lon="6.61623">
        <ele>191.1</ele>
        <time>2021-02-21T10:41:24Z</time>
      </trkpt>
      <trkpt lat="43.5524" lon="6.61611">
        <ele>190.6</ele>
        <time>2021-02-21T10:41:31Z</time>
      </trkpt>
      <trkpt lat="43.55236" lon="6.61599">
        <ele>189.8</ele>
        <time>2021-02-21T10:41:38Z</time>
      </trkpt>
      <trkpt lat="43.55231" lon="6.61588">
        <ele>189.1</ele>
        <time>2021-02-21T10:41:45Z</time>
      </trkpt>
      <trkpt lat="43.55227" lon="6.61577">
        <ele>188.5</ele>
        <time>2021-02-21T10:41:52Z</time>
      </trkpt>
      <trkpt lat="43.55223" lon="6.61564">
        <ele>187.3</ele>
        <time>2021-02-21T10:42:00Z</time>
      </trkpt>
      <trkpt lat="43.55217" lon="6.61553">
        <ele>185.6</ele>
        <time>2021-02-21T10:42:08Z</time>
      </trkpt>
      <trkpt lat="43.55211" lon="6.61542">
        <ele>184.9</ele>
        <time>2021-02-21T10:42:19Z</time>
      </trkpt>
      <trkpt lat="43.55206" lon="6.6153">
        <ele>184</ele>
        <time>2021-02-21T10:42:28Z</time>
      </trkpt>
      <trkpt lat="43.55201" lon="6.61518">
        <ele>183.5</ele>
        <time>2021-02-21T10:42:38Z</time>
      </trkpt>
      <trkpt lat="43.55196" lon="6.61507">
        <ele>183.2</ele>
        <time>2021-02-21T10:42:47Z</time>
      </trkpt>
      <trkpt lat="43.55191" lon="6.61496">
        <ele>182.9</ele>
        <time>2021-02-21T10:42:54Z</time>
      </trkpt>
      <trkpt lat="43.55191" lon="6.61482">
        <ele>182.8</ele>
        <time>2021-02-21T10:43:05Z</time>
      </trkpt>
      <trkpt lat="43.55188" lon="6.61469">
        <ele>182.8</ele>
        <time>2021-02-21T10:43:12Z</time>
      </trkpt>
      <trkpt lat="43.55186" lon="6.61456">
        <ele>182.9</ele>
        <time>2021-02-21T10:43:20Z</time>
      </trkpt>
      <trkpt lat="43.55184" lon="6.61443">
        <ele>183.3</ele>
        <time>2021-02-21T10:43:27Z</time>
      </trkpt>
      <trkpt lat="43.55181" lon="6.6143">
        <ele>182.5</ele>
        <time>2021-02-21T10:43:34Z</time>
      </trkpt>
      <trkpt lat="43.55181" lon="6.61416">
        <ele>181.5</ele>
        <time>2021-02-21T10:43:43Z</time>
      </trkpt>
      <trkpt lat="43.55182" lon="6.61402">
        <ele>181.2</ele>
        <time>2021-02-21T10:43:51Z</time>
      </trkpt>
      <trkpt lat="43.55183" lon="6.61389">
        <ele>181.3</ele>
        <time>2021-02-21T10:43:59Z</time>
      </trkpt>
      <trkpt lat="43.55184" lon="6.61375">
        <ele>180.4</ele>
        <time>2021-02-21T10:44:07Z</time>
      </trkpt>
      <trkpt lat="43.55185" lon="6.61362">
        <ele>179.9</ele>
        <time>2021-02-21T10:44:16Z</time>
      </trkpt>
      <trkpt lat="43.55187" lon="6.61349">
        <ele>178.9</ele>
        <time>2021-02-21T10:44:24Z</time>
      </trkpt>
      <trkpt lat="43.55187" lon="6.61336">
        <ele>177.4</ele>
        <time>2021-02-21T10:44:33Z</time>
      </trkpt>
      <trkpt lat="43.55188" lon="6.61323">
        <ele>176.8</ele>
        <time>2021-02-21T10:44:41Z</time>
      </trkpt>
      <trkpt lat="43.55189" lon="6.61309">
        <ele>175.5</ele>
        <time>2021-02-21T10:44:50Z</time>
      </trkpt>
      <trkpt lat="43.5519" lon="6.61297">
        <ele>175.3</ele>
        <time>2021-02-21T10:44:57Z</time>
      </trkpt>
      <trkpt lat="43.5519" lon="6.61284">
        <ele>174</ele>
        <time>2021-02-21T10:45:05Z</time>
      </trkpt>
      <trkpt lat="43.55192" lon="6.6127">
        <ele>173.1</ele>
        <time>2021-02-21T10:45:15Z</time>
      </trkpt>
      <trkpt lat="43.5519" lon="6.61257">
        <ele>172.5</ele>
        <time>2021-02-21T10:45:23Z</time>
      </trkpt>
      <trkpt lat="43.55186" lon="6.61245">
        <ele>171.2</ele>
        <time>2021-02-21T10:45:31Z</time>
      </trkpt>
      <trkpt lat="43.5518" lon="6.61235">
        <ele>170.2</ele>
        <time>2021-02-21T10:45:38Z</time>
      </trkpt>
      <trkpt lat="43.55174" lon="6.61225">
        <ele>170.2</ele>
        <time>2021-02-21T10:45:46Z</time>
      </trkpt>
      <trkpt lat="43.55171" lon="6.61212">
        <ele>168.6</ele>
        <time>2021-02-21T10:45:57Z</time>
      </trkpt>
      <trkpt lat="43.55167" lon="6.61199">
        <ele>167.7</ele>
        <time>2021-02-21T10:46:05Z</time>
      </trkpt>
      <trkpt lat="43.55166" lon="6.61185">
        <ele>166.8</ele>
        <time>2021-02-21T10:46:13Z</time>
      </trkpt>
      <trkpt lat="43.55163" lon="6.61178">
        <ele>166.2</ele>
        <time>2021-02-21T10:46:22Z</time>
      </trkpt>
      <trkpt lat="43.55163" lon="6.61178">
        <ele>165.9</ele>
        <time>2021-02-21T10:46:23Z</time>
      </trkpt>
      <trkpt lat="43.55164" lon="6.61177">
        <ele>166.4</ele>
        <time>2021-02-21T10:46:29Z</time>
      </trkpt>
      <trkpt lat="43.55164" lon="6.61177">
        <ele>166.4</ele>
        <time>2021-02-21T10:46:30Z</time>
      </trkpt>
      <trkpt lat="43.55164" lon="6.61177">
        <ele>166.3</ele>
        <time>2021-02-21T10:46:31Z</time>
      </trkpt>
      <trkpt lat="43.55164" lon="6.61178">
        <ele>166.4</ele>
        <time>2021-02-21T10:46:34Z</time>
      </trkpt>
      <trkpt lat="43.55164" lon="6.61177">
        <ele>166.2</ele>
        <time>2021-02-21T10:46:36Z</time>
      </trkpt>
      <trkpt lat="43.55165" lon="6.61177">
        <ele>165.5</ele>
        <time>2021-02-21T10:46:44Z</time>
      </trkpt>
      <trkpt lat="43.55164" lon="6.61178">
        <ele>166.2</ele>
        <time>2021-02-21T10:46:48Z</time>
      </trkpt>
      <trkpt lat="43.55164" lon="6.61178">
        <ele>166.3</ele>
        <time>2021-02-21T10:46:51Z</time>
      </trkpt>
      <trkpt lat="43.55164" lon="6.61178">
        <ele>166.3</ele>
        <time>2021-02-21T10:46:52Z</time>
      </trkpt>
      <trkpt lat="43.55164" lon="6.61178">
        <ele>166.6</ele>
        <time>2021-02-21T10:46:56Z</time>
      </trkpt>
      <trkpt lat="43.55162" lon="6.61175">
        <ele>165.6</ele>
        <time>2021-02-21T10:47:04Z</time>
      </trkpt>
      <trkpt lat="43.55162" lon="6.61175">
        <ele>165.9</ele>
        <time>2021-02-21T10:47:16Z</time>
      </trkpt>
      <trkpt lat="43.55161" lon="6.61162">
        <ele>165.2</ele>
        <time>2021-02-21T10:47:28Z</time>
      </trkpt>
      <trkpt lat="43.55159" lon="6.61149">
        <ele>164.4</ele>
        <time>2021-02-21T10:47:37Z</time>
      </trkpt>
      <trkpt lat="43.55156" lon="6.61136">
        <ele>163.6</ele>
        <time>2021-02-21T10:47:46Z</time>
      </trkpt>
      <trkpt lat="43.55153" lon="6.61123">
        <ele>162.7</ele>
        <time>2021-02-21T10:47:54Z</time>
      </trkpt>
      <trkpt lat="43.55152" lon="6.61113">
        <ele>161.5</ele>
        <time>2021-02-21T10:48:06Z</time>
      </trkpt>
      <trkpt lat="43.55152" lon="6.61114">
        <ele>161.4</ele>
        <time>2021-02-21T10:48:10Z</time>
      </trkpt>
      <trkpt lat="43.5515" lon="6.61101">
        <ele>160</ele>
        <time>2021-02-21T10:48:22Z</time>
      </trkpt>
      <trkpt lat="43.55149" lon="6.61088">
        <ele>158.6</ele>
        <time>2021-02-21T10:48:37Z</time>
      </trkpt>
      <trkpt lat="43.55145" lon="6.61076">
        <ele>158.4</ele>
        <time>2021-02-21T10:48:44Z</time>
      </trkpt>
      <trkpt lat="43.55143" lon="6.61063">
        <ele>157.5</ele>
        <time>2021-02-21T10:48:52Z</time>
      </trkpt>
      <trkpt lat="43.5514" lon="6.6105">
        <ele>156.6</ele>
        <time>2021-02-21T10:49:00Z</time>
      </trkpt>
      <trkpt lat="43.55135" lon="6.61039">
        <ele>156.2</ele>
        <time>2021-02-21T10:49:07Z</time>
      </trkpt>
      <trkpt lat="43.55129" lon="6.6103">
        <ele>154.8</ele>
        <time>2021-02-21T10:49:14Z</time>
      </trkpt>
      <trkpt lat="43.55122" lon="6.61022">
        <ele>153.8</ele>
        <time>2021-02-21T10:49:22Z</time>
      </trkpt>
      <trkpt lat="43.55116" lon="6.61012">
        <ele>152.6</ele>
        <time>2021-02-21T10:49:30Z</time>
      </trkpt>
      <trkpt lat="43.55109" lon="6.61002">
        <ele>151.9</ele>
        <time>2021-02-21T10:49:39Z</time>
      </trkpt>
      <trkpt lat="43.55102" lon="6.60993">
        <ele>150.6</ele>
        <time>2021-02-21T10:49:47Z</time>
      </trkpt>
      <trkpt lat="43.55098" lon="6.60981">
        <ele>149.5</ele>
        <time>2021-02-21T10:49:57Z</time>
      </trkpt>
      <trkpt lat="43.55095" lon="6.60968">
        <ele>148.1</ele>
        <time>2021-02-21T10:50:07Z</time>
      </trkpt>
      <trkpt lat="43.55093" lon="6.60955">
        <ele>146.9</ele>
        <time>2021-02-21T10:50:16Z</time>
      </trkpt>
      <trkpt lat="43.55093" lon="6.60941">
        <ele>145.4</ele>
        <time>2021-02-21T10:50:25Z</time>
      </trkpt>
      <trkpt lat="43.55093" lon="6.60928">
        <ele>144.6</ele>
        <time>2021-02-21T10:50:33Z</time>
      </trkpt>
      <trkpt lat="43.55094" lon="6.60914">
        <ele>143.6</ele>
        <time>2021-02-21T10:50:42Z</time>
      </trkpt>
      <trkpt lat="43.55096" lon="6.60901">
        <ele>142.7</ele>
        <time>2021-02-21T10:50:50Z</time>
      </trkpt>
      <trkpt lat="43.55101" lon="6.60889">
        <ele>141.2</ele>
        <time>2021-02-21T10:51:00Z</time>
      </trkpt>
      <trkpt lat="43.55105" lon="6.60877">
        <ele>139.7</ele>
        <time>2021-02-21T10:51:10Z</time>
      </trkpt>
      <trkpt lat="43.5511" lon="6.60867">
        <ele>138.5</ele>
        <time>2021-02-21T10:51:19Z</time>
      </trkpt>
      <trkpt lat="43.55115" lon="6.60856">
        <ele>136.4</ele>
        <time>2021-02-21T10:51:30Z</time>
      </trkpt>
      <trkpt lat="43.55121" lon="6.60845">
        <ele>136.1</ele>
        <time>2021-02-21T10:51:38Z</time>
      </trkpt>
      <trkpt lat="43.55124" lon="6.60832">
        <ele>134.6</ele>
        <time>2021-02-21T10:51:47Z</time>
      </trkpt>
      <trkpt lat="43.55126" lon="6.6082">
        <ele>133.1</ele>
        <time>2021-02-21T10:51:55Z</time>
      </trkpt>
      <trkpt lat="43.55127" lon="6.60806">
        <ele>131.7</ele>
        <time>2021-02-21T10:52:03Z</time>
      </trkpt>
      <trkpt lat="43.55128" lon="6.60793">
        <ele>131</ele>
        <time>2021-02-21T10:52:12Z</time>
      </trkpt>
      <trkpt lat="43.55128" lon="6.60793">
        <ele>130.9</ele>
        <time>2021-02-21T10:52:14Z</time>
      </trkpt>
      <trkpt lat="43.55129" lon="6.60793">
        <ele>130.8</ele>
        <time>2021-02-21T10:52:25Z</time>
      </trkpt>
      <trkpt lat="43.55134" lon="6.60782">
        <ele>129.3</ele>
        <time>2021-02-21T10:52:37Z</time>
      </trkpt>
      <trkpt lat="43.55137" lon="6.6078">
        <ele>128.8</ele>
        <time>2021-02-21T10:52:44Z</time>
      </trkpt>
      <trkpt lat="43.55136" lon="6.6078">
        <ele>128.8</ele>
        <time>2021-02-21T10:52:45Z</time>
      </trkpt>
      <trkpt lat="43.55136" lon="6.6078">
        <ele>128.9</ele>
        <time>2021-02-21T10:52:48Z</time>
      </trkpt>
      <trkpt lat="43.55136" lon="6.60781">
        <ele>129.1</ele>
        <time>2021-02-21T10:52:51Z</time>
      </trkpt>
      <trkpt lat="43.55136" lon="6.60781">
        <ele>129.1</ele>
        <time>2021-02-21T10:52:52Z</time>
      </trkpt>
      <trkpt lat="43.55136" lon="6.60781">
        <ele>129.3</ele>
        <time>2021-02-21T10:53:01Z</time>
      </trkpt>
      <trkpt lat="43.55136" lon="6.60781">
        <ele>129.4</ele>
        <time>2021-02-21T10:53:02Z</time>
      </trkpt>
      <trkpt lat="43.55136" lon="6.60781">
        <ele>129.4</ele>
        <time>2021-02-21T10:53:06Z</time>
      </trkpt>
      <trkpt lat="43.55145" lon="6.60781">
        <ele>128.2</ele>
        <time>2021-02-21T10:53:19Z</time>
      </trkpt>
      <trkpt lat="43.55154" lon="6.60788">
        <ele>127.4</ele>
        <time>2021-02-21T10:53:29Z</time>
      </trkpt>
      <trkpt lat="43.55158" lon="6.608">
        <ele>126.3</ele>
        <time>2021-02-21T10:53:39Z</time>
      </trkpt>
      <trkpt lat="43.55164" lon="6.6081">
        <ele>125.8</ele>
        <time>2021-02-21T10:53:48Z</time>
      </trkpt>
      <trkpt lat="43.55173" lon="6.60815">
        <ele>124.9</ele>
        <time>2021-02-21T10:53:59Z</time>
      </trkpt>
      <trkpt lat="43.55175" lon="6.60816">
        <ele>125</ele>
        <time>2021-02-21T10:54:03Z</time>
      </trkpt>
      <trkpt lat="43.55175" lon="6.60817">
        <ele>125</ele>
        <time>2021-02-21T10:54:08Z</time>
      </trkpt>
      <trkpt lat="43.55183" lon="6.60824">
        <ele>124.8</ele>
        <time>2021-02-21T10:54:19Z</time>
      </trkpt>
      <trkpt lat="43.55187" lon="6.60823">
        <ele>124.6</ele>
        <time>2021-02-21T10:54:28Z</time>
      </trkpt>
      <trkpt lat="43.55187" lon="6.60823">
        <ele>124.6</ele>
        <time>2021-02-21T10:54:32Z</time>
      </trkpt>
      <trkpt lat="43.55187" lon="6.60823">
        <ele>124.6</ele>
        <time>2021-02-21T10:54:33Z</time>
      </trkpt>
      <trkpt lat="43.55188" lon="6.60823">
        <ele>124.4</ele>
        <time>2021-02-21T10:54:40Z</time>
      </trkpt>
      <trkpt lat="43.55188" lon="6.60823">
        <ele>124.3</ele>
        <time>2021-02-21T10:54:41Z</time>
      </trkpt>
      <trkpt lat="43.55188" lon="6.60822">
        <ele>124.2</ele>
        <time>2021-02-21T10:54:44Z</time>
      </trkpt>
      <trkpt lat="43.55188" lon="6.60822">
        <ele>124.3</ele>
        <time>2021-02-21T10:54:47Z</time>
      </trkpt>
      <trkpt lat="43.55188" lon="6.60821">
        <ele>124.3</ele>
        <time>2021-02-21T10:54:49Z</time>
      </trkpt>
      <trkpt lat="43.55189" lon="6.60823">
        <ele>123.9</ele>
        <time>2021-02-21T10:55:01Z</time>
      </trkpt>
      <trkpt lat="43.55189" lon="6.60823">
        <ele>123.8</ele>
        <time>2021-02-21T10:55:02Z</time>
      </trkpt>
      <trkpt lat="43.55193" lon="6.60821">
        <ele>123.8</ele>
        <time>2021-02-21T10:55:34Z</time>
      </trkpt>
      <trkpt lat="43.55193" lon="6.60822">
        <ele>123.9</ele>
        <time>2021-02-21T10:55:37Z</time>
      </trkpt>
      <trkpt lat="43.55201" lon="6.60815">
        <ele>123.6</ele>
        <time>2021-02-21T10:55:46Z</time>
      </trkpt>
      <trkpt lat="43.55201" lon="6.60815">
        <ele>123.7</ele>
        <time>2021-02-21T10:55:48Z</time>
      </trkpt>
      <trkpt lat="43.55201" lon="6.60815">
        <ele>123.9</ele>
        <time>2021-02-21T10:55:49Z</time>
      </trkpt>
      <trkpt lat="43.55201" lon="6.60815">
        <ele>123.8</ele>
        <time>2021-02-21T10:55:50Z</time>
      </trkpt>
      <trkpt lat="43.55201" lon="6.60815">
        <ele>123.7</ele>
        <time>2021-02-21T10:55:52Z</time>
      </trkpt>
      <trkpt lat="43.55207" lon="6.60814">
        <ele>124.1</ele>
        <time>2021-02-21T10:56:02Z</time>
      </trkpt>
      <trkpt lat="43.55206" lon="6.60814">
        <ele>124.1</ele>
        <time>2021-02-21T10:56:06Z</time>
      </trkpt>
      <trkpt lat="43.55206" lon="6.60814">
        <ele>124.2</ele>
        <time>2021-02-21T10:56:08Z</time>
      </trkpt>
      <trkpt lat="43.55206" lon="6.60814">
        <ele>124.4</ele>
        <time>2021-02-21T10:56:13Z</time>
      </trkpt>
      <trkpt lat="43.55213" lon="6.60806">
        <ele>124.3</ele>
        <time>2021-02-21T10:56:22Z</time>
      </trkpt>
      <trkpt lat="43.55218" lon="6.608">
        <ele>124.2</ele>
        <time>2021-02-21T10:56:33Z</time>
      </trkpt>
      <trkpt lat="43.55218" lon="6.608">
        <ele>124.2</ele>
        <time>2021-02-21T10:56:34Z</time>
      </trkpt>
      <trkpt lat="43.55215" lon="6.60806">
        <ele>124</ele>
        <time>2021-02-21T10:56:44Z</time>
      </trkpt>
      <trkpt lat="43.55215" lon="6.60806">
        <ele>122.9</ele>
        <time>2021-02-21T10:56:45Z</time>
      </trkpt>
      <trkpt lat="43.55214" lon="6.60807">
        <ele>110.4</ele>
        <time>2021-02-21T10:56:48Z</time>
      </trkpt>
      <trkpt lat="43.55215" lon="6.60807">
        <ele>110.2</ele>
        <time>2021-02-21T10:56:49Z</time>
      </trkpt>
      <trkpt lat="43.55215" lon="6.60807">
        <ele>119.9</ele>
        <time>2021-02-21T10:56:50Z</time>
      </trkpt>
      <trkpt lat="43.55214" lon="6.60807">
        <ele>124.5</ele>
        <time>2021-02-21T10:56:51Z</time>
      </trkpt>
      <trkpt lat="43.55219" lon="6.60819">
        <ele>126.1</ele>
        <time>2021-02-21T10:57:14Z</time>
      </trkpt>
      <trkpt lat="43.55216" lon="6.60831">
        <ele>126.9</ele>
        <time>2021-02-21T10:57:28Z</time>
      </trkpt>
      <trkpt lat="43.55216" lon="6.60832">
        <ele>127</ele>
        <time>2021-02-21T10:57:31Z</time>
      </trkpt>
      <trkpt lat="43.55216" lon="6.60832">
        <ele>127.2</ele>
        <time>2021-02-21T10:57:32Z</time>
      </trkpt>
      <trkpt lat="43.55216" lon="6.60832">
        <ele>127.2</ele>
        <time>2021-02-21T10:57:33Z</time>
      </trkpt>
      <trkpt lat="43.55216" lon="6.60831">
        <ele>127.6</ele>
        <time>2021-02-21T10:57:41Z</time>
      </trkpt>
      <trkpt lat="43.55218" lon="6.60818">
        <ele>127.1</ele>
        <time>2021-02-21T10:57:51Z</time>
      </trkpt>
      <trkpt lat="43.55217" lon="6.60816">
        <ele>126.6</ele>
        <time>2021-02-21T10:57:54Z</time>
      </trkpt>
      <trkpt lat="43.55217" lon="6.60816">
        <ele>126.3</ele>
        <time>2021-02-21T10:57:55Z</time>
      </trkpt>
      <trkpt lat="43.55216" lon="6.6081">
        <ele>125.5</ele>
        <time>2021-02-21T10:58:09Z</time>
      </trkpt>
      <trkpt lat="43.55216" lon="6.6081">
        <ele>125.4</ele>
        <time>2021-02-21T10:58:10Z</time>
      </trkpt>
      <trkpt lat="43.55218" lon="6.60798">
        <ele>124.3</ele>
        <time>2021-02-21T10:58:29Z</time>
      </trkpt>
      <trkpt lat="43.55218" lon="6.60798">
        <ele>124.4</ele>
        <time>2021-02-21T10:58:31Z</time>
      </trkpt>
      <trkpt lat="43.55217" lon="6.60799">
        <ele>124.5</ele>
        <time>2021-02-21T10:58:34Z</time>
      </trkpt>
      <trkpt lat="43.55217" lon="6.60799">
        <ele>124.8</ele>
        <time>2021-02-21T10:58:35Z</time>
      </trkpt>
      <trkpt lat="43.55217" lon="6.60799">
        <ele>124.7</ele>
        <time>2021-02-21T10:58:36Z</time>
      </trkpt>
      <trkpt lat="43.55217" lon="6.60799">
        <ele>124.7</ele>
        <time>2021-02-21T10:58:37Z</time>
      </trkpt>
      <trkpt lat="43.55217" lon="6.60799">
        <ele>125.5</ele>
        <time>2021-02-21T10:58:44Z</time>
      </trkpt>
      <trkpt lat="43.55218" lon="6.60799">
        <ele>124.9</ele>
        <time>2021-02-21T10:58:49Z</time>
      </trkpt>
      <trkpt lat="43.55222" lon="6.60786">
        <ele>125.5</ele>
        <time>2021-02-21T10:59:02Z</time>
      </trkpt>
      <trkpt lat="43.55224" lon="6.60774">
        <ele>124.4</ele>
        <time>2021-02-21T10:59:10Z</time>
      </trkpt>
      <trkpt lat="43.55221" lon="6.60762">
        <ele>125.6</ele>
        <time>2021-02-21T10:59:19Z</time>
      </trkpt>
      <trkpt lat="43.55216" lon="6.6075">
        <ele>126.5</ele>
        <time>2021-02-21T10:59:30Z</time>
      </trkpt>
      <trkpt lat="43.55212" lon="6.60738">
        <ele>126.3</ele>
        <time>2021-02-21T10:59:38Z</time>
      </trkpt>
      <trkpt lat="43.55207" lon="6.60727">
        <ele>126.2</ele>
        <time>2021-02-21T10:59:47Z</time>
      </trkpt>
      <trkpt lat="43.55201" lon="6.60717">
        <ele>127</ele>
        <time>2021-02-21T10:59:58Z</time>
      </trkpt>
      <trkpt lat="43.55195" lon="6.60712">
        <ele>128.1</ele>
        <time>2021-02-21T11:00:13Z</time>
      </trkpt>
      <trkpt lat="43.55195" lon="6.60711">
        <ele>127.7</ele>
        <time>2021-02-21T11:00:19Z</time>
      </trkpt>
      <trkpt lat="43.55193" lon="6.60707">
        <ele>125.8</ele>
        <time>2021-02-21T11:00:29Z</time>
      </trkpt>
      <trkpt lat="43.55193" lon="6.60707">
        <ele>126.3</ele>
        <time>2021-02-21T11:00:30Z</time>
      </trkpt>
      <trkpt lat="43.55202" lon="6.60709">
        <ele>128.2</ele>
        <time>2021-02-21T11:00:43Z</time>
      </trkpt>
      <trkpt lat="43.55211" lon="6.60713">
        <ele>130.5</ele>
        <time>2021-02-21T11:00:57Z</time>
      </trkpt>
      <trkpt lat="43.55218" lon="6.60722">
        <ele>132.5</ele>
        <time>2021-02-21T11:01:09Z</time>
      </trkpt>
      <trkpt lat="43.55226" lon="6.60729">
        <ele>133.2</ele>
        <time>2021-02-21T11:01:22Z</time>
      </trkpt>
      <trkpt lat="43.55235" lon="6.60729">
        <ele>134.5</ele>
        <time>2021-02-21T11:01:33Z</time>
      </trkpt>
      <trkpt lat="43.55243" lon="6.60723">
        <ele>135.9</ele>
        <time>2021-02-21T11:01:43Z</time>
      </trkpt>
      <trkpt lat="43.55252" lon="6.6072">
        <ele>136.7</ele>
        <time>2021-02-21T11:01:57Z</time>
      </trkpt>
      <trkpt lat="43.55262" lon="6.6072">
        <ele>138.4</ele>
        <time>2021-02-21T11:02:11Z</time>
      </trkpt>
      <trkpt lat="43.55269" lon="6.60728">
        <ele>139.9</ele>
        <time>2021-02-21T11:02:27Z</time>
      </trkpt>
      <trkpt lat="43.55276" lon="6.60737">
        <ele>140.3</ele>
        <time>2021-02-21T11:02:39Z</time>
      </trkpt>
      <trkpt lat="43.55284" lon="6.60743">
        <ele>142.7</ele>
        <time>2021-02-21T11:02:50Z</time>
      </trkpt>
      <trkpt lat="43.55285" lon="6.60745">
        <ele>142.1</ele>
        <time>2021-02-21T11:02:54Z</time>
      </trkpt>
      <trkpt lat="43.55285" lon="6.60745">
        <ele>141.9</ele>
        <time>2021-02-21T11:02:55Z</time>
      </trkpt>
      <trkpt lat="43.55285" lon="6.60745">
        <ele>141.9</ele>
        <time>2021-02-21T11:02:56Z</time>
      </trkpt>
      <trkpt lat="43.55285" lon="6.60745">
        <ele>142.1</ele>
        <time>2021-02-21T11:02:58Z</time>
      </trkpt>
      <trkpt lat="43.55285" lon="6.60745">
        <ele>141.7</ele>
        <time>2021-02-21T11:02:59Z</time>
      </trkpt>
      <trkpt lat="43.55286" lon="6.60745">
        <ele>141.3</ele>
        <time>2021-02-21T11:03:01Z</time>
      </trkpt>
      <trkpt lat="43.55286" lon="6.60745">
        <ele>141.5</ele>
        <time>2021-02-21T11:03:03Z</time>
      </trkpt>
      <trkpt lat="43.55287" lon="6.60745">
        <ele>141.8</ele>
        <time>2021-02-21T11:03:04Z</time>
      </trkpt>
      <trkpt lat="43.55294" lon="6.60754">
        <ele>144.7</ele>
        <time>2021-02-21T11:03:19Z</time>
      </trkpt>
      <trkpt lat="43.55301" lon="6.60763">
        <ele>145</ele>
        <time>2021-02-21T11:03:30Z</time>
      </trkpt>
      <trkpt lat="43.55306" lon="6.60774">
        <ele>145.4</ele>
        <time>2021-02-21T11:03:41Z</time>
      </trkpt>
      <trkpt lat="43.55311" lon="6.60785">
        <ele>146</ele>
        <time>2021-02-21T11:03:53Z</time>
      </trkpt>
      <trkpt lat="43.55316" lon="6.60795">
        <ele>147.2</ele>
        <time>2021-02-21T11:04:03Z</time>
      </trkpt>
      <trkpt lat="43.5532" lon="6.60807">
        <ele>148.3</ele>
        <time>2021-02-21T11:04:15Z</time>
      </trkpt>
      <trkpt lat="43.55326" lon="6.60817">
        <ele>150.2</ele>
        <time>2021-02-21T11:04:27Z</time>
      </trkpt>
      <trkpt lat="43.55329" lon="6.6083">
        <ele>151.1</ele>
        <time>2021-02-21T11:04:38Z</time>
      </trkpt>
      <trkpt lat="43.55327" lon="6.60842">
        <ele>152.4</ele>
        <time>2021-02-21T11:04:51Z</time>
      </trkpt>
      <trkpt lat="43.55324" lon="6.60855">
        <ele>155.5</ele>
        <time>2021-02-21T11:05:05Z</time>
      </trkpt>
      <trkpt lat="43.55321" lon="6.60868">
        <ele>155.1</ele>
        <time>2021-02-21T11:05:17Z</time>
      </trkpt>
      <trkpt lat="43.55318" lon="6.60881">
        <ele>156.6</ele>
        <time>2021-02-21T11:05:30Z</time>
      </trkpt>
      <trkpt lat="43.55324" lon="6.6089">
        <ele>158.2</ele>
        <time>2021-02-21T11:05:43Z</time>
      </trkpt>
      <trkpt lat="43.55329" lon="6.609">
        <ele>159.6</ele>
        <time>2021-02-21T11:05:56Z</time>
      </trkpt>
      <trkpt lat="43.55336" lon="6.60909">
        <ele>162.2</ele>
        <time>2021-02-21T11:06:11Z</time>
      </trkpt>
      <trkpt lat="43.55344" lon="6.60915">
        <ele>163.2</ele>
        <time>2021-02-21T11:06:24Z</time>
      </trkpt>
      <trkpt lat="43.55353" lon="6.60922">
        <ele>164.8</ele>
        <time>2021-02-21T11:06:36Z</time>
      </trkpt>
      <trkpt lat="43.55362" lon="6.60928">
        <ele>165.4</ele>
        <time>2021-02-21T11:06:46Z</time>
      </trkpt>
      <trkpt lat="43.55368" lon="6.60937">
        <ele>166</ele>
        <time>2021-02-21T11:06:56Z</time>
      </trkpt>
      <trkpt lat="43.55377" lon="6.60943">
        <ele>165.3</ele>
        <time>2021-02-21T11:07:09Z</time>
      </trkpt>
      <trkpt lat="43.55386" lon="6.60946">
        <ele>167</ele>
        <time>2021-02-21T11:07:21Z</time>
      </trkpt>
      <trkpt lat="43.55394" lon="6.60939">
        <ele>166.8</ele>
        <time>2021-02-21T11:07:35Z</time>
      </trkpt>
      <trkpt lat="43.55399" lon="6.60931">
        <ele>167.6</ele>
        <time>2021-02-21T11:07:51Z</time>
      </trkpt>
      <trkpt lat="43.554" lon="6.6093">
        <ele>167.3</ele>
        <time>2021-02-21T11:07:57Z</time>
      </trkpt>
      <trkpt lat="43.55408" lon="6.60923">
        <ele>166.9</ele>
        <time>2021-02-21T11:08:12Z</time>
      </trkpt>
      <trkpt lat="43.55416" lon="6.60916">
        <ele>167.5</ele>
        <time>2021-02-21T11:08:21Z</time>
      </trkpt>
      <trkpt lat="43.55424" lon="6.6091">
        <ele>168.9</ele>
        <time>2021-02-21T11:08:31Z</time>
      </trkpt>
      <trkpt lat="43.55428" lon="6.60908">
        <ele>168.3</ele>
        <time>2021-02-21T11:08:41Z</time>
      </trkpt>
      <trkpt lat="43.55429" lon="6.60907">
        <ele>168.3</ele>
        <time>2021-02-21T11:08:42Z</time>
      </trkpt>
      <trkpt lat="43.55431" lon="6.60903">
        <ele>169.1</ele>
        <time>2021-02-21T11:19:56Z</time>
      </trkpt>
      <trkpt lat="43.55431" lon="6.60904">
        <ele>168.8</ele>
        <time>2021-02-21T11:20:00Z</time>
      </trkpt>
      <trkpt lat="43.55431" lon="6.60905">
        <ele>168.9</ele>
        <time>2021-02-21T11:20:03Z</time>
      </trkpt>
      <trkpt lat="43.55431" lon="6.60906">
        <ele>168.8</ele>
        <time>2021-02-21T11:20:05Z</time>
      </trkpt>
      <trkpt lat="43.55433" lon="6.60913">
        <ele>168.6</ele>
        <time>2021-02-21T11:20:14Z</time>
      </trkpt>
      <trkpt lat="43.55433" lon="6.60913">
        <ele>168.8</ele>
        <time>2021-02-21T11:20:20Z</time>
      </trkpt>
      <trkpt lat="43.55433" lon="6.60913">
        <ele>168.9</ele>
        <time>2021-02-21T11:20:21Z</time>
      </trkpt>
      <trkpt lat="43.55433" lon="6.60915">
        <ele>168.7</ele>
        <time>2021-02-21T11:20:24Z</time>
      </trkpt>
      <trkpt lat="43.55433" lon="6.60915">
        <ele>168.6</ele>
        <time>2021-02-21T11:20:25Z</time>
      </trkpt>
      <trkpt lat="43.55433" lon="6.60915">
        <ele>168.5</ele>
        <time>2021-02-21T11:20:28Z</time>
      </trkpt>
      <trkpt lat="43.55437" lon="6.60917">
        <ele>168.3</ele>
        <time>2021-02-21T11:20:40Z</time>
      </trkpt>
      <trkpt lat="43.55437" lon="6.60917">
        <ele>168.3</ele>
        <time>2021-02-21T11:20:42Z</time>
      </trkpt>
      <trkpt lat="43.55437" lon="6.60917">
        <ele>168.2</ele>
        <time>2021-02-21T11:20:43Z</time>
      </trkpt>
      <trkpt lat="43.55437" lon="6.60917">
        <ele>168.1</ele>
        <time>2021-02-21T11:20:44Z</time>
      </trkpt>
      <trkpt lat="43.55439" lon="6.60922">
        <ele>168</ele>
        <time>2021-02-21T11:20:53Z</time>
      </trkpt>
      <trkpt lat="43.55439" lon="6.60923">
        <ele>167.9</ele>
        <time>2021-02-21T11:20:55Z</time>
      </trkpt>
      <trkpt lat="43.55446" lon="6.60931">
        <ele>168</ele>
        <time>2021-02-21T11:21:11Z</time>
      </trkpt>
      <trkpt lat="43.55447" lon="6.60933">
        <ele>167.7</ele>
        <time>2021-02-21T11:21:15Z</time>
      </trkpt>
      <trkpt lat="43.55447" lon="6.60933">
        <ele>167.7</ele>
        <time>2021-02-21T11:21:18Z</time>
      </trkpt>
      <trkpt lat="43.55447" lon="6.60933">
        <ele>167.6</ele>
        <time>2021-02-21T11:21:19Z</time>
      </trkpt>
      <trkpt lat="43.55447" lon="6.60934">
        <ele>167.7</ele>
        <time>2021-02-21T11:21:20Z</time>
      </trkpt>
      <trkpt lat="43.55447" lon="6.60934">
        <ele>167.7</ele>
        <time>2021-02-21T11:21:21Z</time>
      </trkpt>
      <trkpt lat="43.55448" lon="6.60934">
        <ele>167.6</ele>
        <time>2021-02-21T11:21:22Z</time>
      </trkpt>
      <trkpt lat="43.55448" lon="6.60934">
        <ele>167.5</ele>
        <time>2021-02-21T11:21:23Z</time>
      </trkpt>
      <trkpt lat="43.55448" lon="6.60935">
        <ele>167.4</ele>
        <time>2021-02-21T11:21:29Z</time>
      </trkpt>
      <trkpt lat="43.55454" lon="6.60944">
        <ele>168.4</ele>
        <time>2021-02-21T11:21:46Z</time>
      </trkpt>
      <trkpt lat="43.5546" lon="6.60954">
        <ele>170.1</ele>
        <time>2021-02-21T11:22:08Z</time>
      </trkpt>
      <trkpt lat="43.55462" lon="6.60955">
        <ele>170.6</ele>
        <time>2021-02-21T11:22:13Z</time>
      </trkpt>
      <trkpt lat="43.55462" lon="6.60955">
        <ele>170.4</ele>
        <time>2021-02-21T11:22:16Z</time>
      </trkpt>
      <trkpt lat="43.55464" lon="6.60952">
        <ele>169.9</ele>
        <time>2021-02-21T11:22:21Z</time>
      </trkpt>
      <trkpt lat="43.55464" lon="6.60951">
        <ele>169.9</ele>
        <time>2021-02-21T11:22:22Z</time>
      </trkpt>
      <trkpt lat="43.55464" lon="6.60951">
        <ele>169.9</ele>
        <time>2021-02-21T11:22:23Z</time>
      </trkpt>
      <trkpt lat="43.55464" lon="6.60952">
        <ele>170.3</ele>
        <time>2021-02-21T11:24:33Z</time>
      </trkpt>
      <trkpt lat="43.55464" lon="6.60952">
        <ele>170.4</ele>
        <time>2021-02-21T11:24:34Z</time>
      </trkpt>
      <trkpt lat="43.55464" lon="6.60951">
        <ele>169.3</ele>
        <time>2021-02-21T11:25:13Z</time>
      </trkpt>
      <trkpt lat="43.55464" lon="6.60951">
        <ele>169.3</ele>
        <time>2021-02-21T11:25:15Z</time>
      </trkpt>
      <trkpt lat="43.55464" lon="6.60951">
        <ele>169.2</ele>
        <time>2021-02-21T11:25:16Z</time>
      </trkpt>
      <trkpt lat="43.55464" lon="6.60951">
        <ele>169.2</ele>
        <time>2021-02-21T11:25:17Z</time>
      </trkpt>
      <trkpt lat="43.55464" lon="6.60951">
        <ele>169.3</ele>
        <time>2021-02-21T11:25:18Z</time>
      </trkpt>
      <trkpt lat="43.55469" lon="6.60952">
        <ele>171.2</ele>
        <time>2021-02-21T11:25:30Z</time>
      </trkpt>
      <trkpt lat="43.55469" lon="6.60953">
        <ele>171</ele>
        <time>2021-02-21T11:25:33Z</time>
      </trkpt>
      <trkpt lat="43.55468" lon="6.60953">
        <ele>170.4</ele>
        <time>2021-02-21T11:25:37Z</time>
      </trkpt>
      <trkpt lat="43.55468" lon="6.60953">
        <ele>170.1</ele>
        <time>2021-02-21T11:25:41Z</time>
      </trkpt>
      <trkpt lat="43.55468" lon="6.60953">
        <ele>169.9</ele>
        <time>2021-02-21T11:25:43Z</time>
      </trkpt>
      <trkpt lat="43.55468" lon="6.60952">
        <ele>170.1</ele>
        <time>2021-02-21T11:25:46Z</time>
      </trkpt>
      <trkpt lat="43.55468" lon="6.60952">
        <ele>170.1</ele>
        <time>2021-02-21T11:25:47Z</time>
      </trkpt>
      <trkpt lat="43.55468" lon="6.60952">
        <ele>170.3</ele>
        <time>2021-02-21T11:25:50Z</time>
      </trkpt>
      <trkpt lat="43.55467" lon="6.60952">
        <ele>170.3</ele>
        <time>2021-02-21T11:25:52Z</time>
      </trkpt>
      <trkpt lat="43.55468" lon="6.60951">
        <ele>170.4</ele>
        <time>2021-02-21T11:26:00Z</time>
      </trkpt>
      <trkpt lat="43.55468" lon="6.60951">
        <ele>170.3</ele>
        <time>2021-02-21T11:26:01Z</time>
      </trkpt>
      <trkpt lat="43.55468" lon="6.60951">
        <ele>170.6</ele>
        <time>2021-02-21T11:26:14Z</time>
      </trkpt>
      <trkpt lat="43.55468" lon="6.60951">
        <ele>170.5</ele>
        <time>2021-02-21T11:26:15Z</time>
      </trkpt>
      <trkpt lat="43.55467" lon="6.60951">
        <ele>170.6</ele>
        <time>2021-02-21T11:26:16Z</time>
      </trkpt>
      <trkpt lat="43.55467" lon="6.60951">
        <ele>170.9</ele>
        <time>2021-02-21T11:26:20Z</time>
      </trkpt>
      <trkpt lat="43.55467" lon="6.60951">
        <ele>171.1</ele>
        <time>2021-02-21T11:26:55Z</time>
      </trkpt>
      <trkpt lat="43.55467" lon="6.6095">
        <ele>171.3</ele>
        <time>2021-02-21T11:26:58Z</time>
      </trkpt>
      <trkpt lat="43.55467" lon="6.6095">
        <ele>171.3</ele>
        <time>2021-02-21T11:26:59Z</time>
      </trkpt>
      <trkpt lat="43.55466" lon="6.60949">
        <ele>171.6</ele>
        <time>2021-02-21T11:27:07Z</time>
      </trkpt>
      <trkpt lat="43.55466" lon="6.60949">
        <ele>171.4</ele>
        <time>2021-02-21T11:27:08Z</time>
      </trkpt>
      <trkpt lat="43.55467" lon="6.60948">
        <ele>171.6</ele>
        <time>2021-02-21T11:27:16Z</time>
      </trkpt>
      <trkpt lat="43.55467" lon="6.60948">
        <ele>171.5</ele>
        <time>2021-02-21T11:27:31Z</time>
      </trkpt>
      <trkpt lat="43.55467" lon="6.60948">
        <ele>171.5</ele>
        <time>2021-02-21T11:27:32Z</time>
      </trkpt>
      <trkpt lat="43.55467" lon="6.60948">
        <ele>171.5</ele>
        <time>2021-02-21T11:27:33Z</time>
      </trkpt>
      <trkpt lat="43.55467" lon="6.60948">
        <ele>171.4</ele>
        <time>2021-02-21T11:27:34Z</time>
      </trkpt>
      <trkpt lat="43.55467" lon="6.60948">
        <ele>171.3</ele>
        <time>2021-02-21T11:27:37Z</time>
      </trkpt>
      <trkpt lat="43.55467" lon="6.60948">
        <ele>171.3</ele>
        <time>2021-02-21T11:27:38Z</time>
      </trkpt>
      <trkpt lat="43.55466" lon="6.60948">
        <ele>171.4</ele>
        <time>2021-02-21T11:27:41Z</time>
      </trkpt>
      <trkpt lat="43.55466" lon="6.60948">
        <ele>171.3</ele>
        <time>2021-02-21T11:27:42Z</time>
      </trkpt>
      <trkpt lat="43.55466" lon="6.60948">
        <ele>171.1</ele>
        <time>2021-02-21T11:27:49Z</time>
      </trkpt>
      <trkpt lat="43.55466" lon="6.60948">
        <ele>171.1</ele>
        <time>2021-02-21T11:27:50Z</time>
      </trkpt>
      <trkpt lat="43.55466" lon="6.60949">
        <ele>171.4</ele>
        <time>2021-02-21T11:27:52Z</time>
      </trkpt>
      <trkpt lat="43.55466" lon="6.60949">
        <ele>171.4</ele>
        <time>2021-02-21T11:27:53Z</time>
      </trkpt>
      <trkpt lat="43.55466" lon="6.60949">
        <ele>171.4</ele>
        <time>2021-02-21T11:27:55Z</time>
      </trkpt>
      <trkpt lat="43.55463" lon="6.60951">
        <ele>171.4</ele>
        <time>2021-02-21T11:28:02Z</time>
      </trkpt>
      <trkpt lat="43.55463" lon="6.60951">
        <ele>171.3</ele>
        <time>2021-02-21T11:28:03Z</time>
      </trkpt>
      <trkpt lat="43.55463" lon="6.60951">
        <ele>171.3</ele>
        <time>2021-02-21T11:28:04Z</time>
      </trkpt>
      <trkpt lat="43.55463" lon="6.60951">
        <ele>171.3</ele>
        <time>2021-02-21T11:28:05Z</time>
      </trkpt>
      <trkpt lat="43.5546" lon="6.6094">
        <ele>170.7</ele>
        <time>2021-02-21T11:28:18Z</time>
      </trkpt>
      <trkpt lat="43.55447" lon="6.60919">
        <ele>168.1</ele>
        <time>2021-02-21T11:28:38Z</time>
      </trkpt>
      <trkpt lat="43.55441" lon="6.60908">
        <ele>169.5</ele>
        <time>2021-02-21T11:28:48Z</time>
      </trkpt>
      <trkpt lat="43.55435" lon="6.609">
        <ele>170.4</ele>
        <time>2021-02-21T11:29:12Z</time>
      </trkpt>
      <trkpt lat="43.55412" lon="6.60902">
        <ele>172.1</ele>
        <time>2021-02-21T11:57:39Z</time>
      </trkpt>
      <trkpt lat="43.55404" lon="6.60909">
        <ele>171.7</ele>
        <time>2021-02-21T11:57:57Z</time>
      </trkpt>
      <trkpt lat="43.55395" lon="6.60915">
        <ele>172.2</ele>
        <time>2021-02-21T11:58:07Z</time>
      </trkpt>
      <trkpt lat="43.55389" lon="6.60925">
        <ele>171.3</ele>
        <time>2021-02-21T11:58:16Z</time>
      </trkpt>
      <trkpt lat="43.55389" lon="6.60939">
        <ele>170.8</ele>
        <time>2021-02-21T11:58:26Z</time>
      </trkpt>
      <trkpt lat="43.55393" lon="6.60952">
        <ele>169.3</ele>
        <time>2021-02-21T11:58:35Z</time>
      </trkpt>
      <trkpt lat="43.554" lon="6.60959">
        <ele>169</ele>
        <time>2021-02-21T11:58:43Z</time>
      </trkpt>
      <trkpt lat="43.55408" lon="6.60968">
        <ele>167.9</ele>
        <time>2021-02-21T11:58:51Z</time>
      </trkpt>
      <trkpt lat="43.55415" lon="6.60976">
        <ele>168.7</ele>
        <time>2021-02-21T11:58:59Z</time>
      </trkpt>
      <trkpt lat="43.55425" lon="6.60977">
        <ele>168.4</ele>
        <time>2021-02-21T11:59:07Z</time>
      </trkpt>
      <trkpt lat="43.55434" lon="6.60983">
        <ele>165.7</ele>
        <time>2021-02-21T11:59:16Z</time>
      </trkpt>
      <trkpt lat="43.55441" lon="6.60993">
        <ele>166.9</ele>
        <time>2021-02-21T11:59:25Z</time>
      </trkpt>
      <trkpt lat="43.55445" lon="6.61005">
        <ele>168.1</ele>
        <time>2021-02-21T11:59:34Z</time>
      </trkpt>
      <trkpt lat="43.55448" lon="6.61018">
        <ele>167.3</ele>
        <time>2021-02-21T11:59:42Z</time>
      </trkpt>
      <trkpt lat="43.55454" lon="6.61029">
        <ele>167.1</ele>
        <time>2021-02-21T11:59:51Z</time>
      </trkpt>
      <trkpt lat="43.55459" lon="6.61042">
        <ele>166.8</ele>
        <time>2021-02-21T12:00:00Z</time>
      </trkpt>
      <trkpt lat="43.55462" lon="6.61054">
        <ele>164.5</ele>
        <time>2021-02-21T12:00:08Z</time>
      </trkpt>
      <trkpt lat="43.55467" lon="6.61066">
        <ele>164.4</ele>
        <time>2021-02-21T12:00:16Z</time>
      </trkpt>
      <trkpt lat="43.55468" lon="6.61079">
        <ele>163.3</ele>
        <time>2021-02-21T12:00:23Z</time>
      </trkpt>
      <trkpt lat="43.55471" lon="6.61091">
        <ele>162.5</ele>
        <time>2021-02-21T12:00:32Z</time>
      </trkpt>
      <trkpt lat="43.55475" lon="6.61103">
        <ele>162.2</ele>
        <time>2021-02-21T12:00:42Z</time>
      </trkpt>
      <trkpt lat="43.55478" lon="6.61115">
        <ele>161.3</ele>
        <time>2021-02-21T12:00:51Z</time>
      </trkpt>
      <trkpt lat="43.55483" lon="6.61126">
        <ele>160.9</ele>
        <time>2021-02-21T12:01:00Z</time>
      </trkpt>
      <trkpt lat="43.55486" lon="6.61138">
        <ele>159.7</ele>
        <time>2021-02-21T12:01:09Z</time>
      </trkpt>
      <trkpt lat="43.55489" lon="6.61151">
        <ele>158.3</ele>
        <time>2021-02-21T12:01:18Z</time>
      </trkpt>
      <trkpt lat="43.55493" lon="6.61163">
        <ele>158.5</ele>
        <time>2021-02-21T12:01:26Z</time>
      </trkpt>
      <trkpt lat="43.55498" lon="6.61175">
        <ele>157.5</ele>
        <time>2021-02-21T12:01:35Z</time>
      </trkpt>
      <trkpt lat="43.55503" lon="6.61185">
        <ele>156.2</ele>
        <time>2021-02-21T12:01:43Z</time>
      </trkpt>
      <trkpt lat="43.55511" lon="6.61193">
        <ele>155.1</ele>
        <time>2021-02-21T12:01:52Z</time>
      </trkpt>
      <trkpt lat="43.55514" lon="6.61205">
        <ele>155.4</ele>
        <time>2021-02-21T12:02:01Z</time>
      </trkpt>
      <trkpt lat="43.55516" lon="6.61217">
        <ele>155</ele>
        <time>2021-02-21T12:02:09Z</time>
      </trkpt>
      <trkpt lat="43.55518" lon="6.6123">
        <ele>154.1</ele>
        <time>2021-02-21T12:02:17Z</time>
      </trkpt>
      <trkpt lat="43.55525" lon="6.61239">
        <ele>152.6</ele>
        <time>2021-02-21T12:02:26Z</time>
      </trkpt>
      <trkpt lat="43.55532" lon="6.61246">
        <ele>153.4</ele>
        <time>2021-02-21T12:02:34Z</time>
      </trkpt>
      <trkpt lat="43.5554" lon="6.61253">
        <ele>152.2</ele>
        <time>2021-02-21T12:02:42Z</time>
      </trkpt>
      <trkpt lat="43.55544" lon="6.61265">
        <ele>151.3</ele>
        <time>2021-02-21T12:02:49Z</time>
      </trkpt>
      <trkpt lat="43.5555" lon="6.61276">
        <ele>151.2</ele>
        <time>2021-02-21T12:02:57Z</time>
      </trkpt>
      <trkpt lat="43.55558" lon="6.61284">
        <ele>151.7</ele>
        <time>2021-02-21T12:03:06Z</time>
      </trkpt>
      <trkpt lat="43.55567" lon="6.61289">
        <ele>151.6</ele>
        <time>2021-02-21T12:03:14Z</time>
      </trkpt>
      <trkpt lat="43.55576" lon="6.61291">
        <ele>151.5</ele>
        <time>2021-02-21T12:03:23Z</time>
      </trkpt>
      <trkpt lat="43.55585" lon="6.61289">
        <ele>151.1</ele>
        <time>2021-02-21T12:03:30Z</time>
      </trkpt>
      <trkpt lat="43.55591" lon="6.61298">
        <ele>150</ele>
        <time>2021-02-21T12:03:40Z</time>
      </trkpt>
      <trkpt lat="43.55588" lon="6.61311">
        <ele>150.6</ele>
        <time>2021-02-21T12:03:49Z</time>
      </trkpt>
      <trkpt lat="43.55586" lon="6.61324">
        <ele>149.6</ele>
        <time>2021-02-21T12:03:57Z</time>
      </trkpt>
      <trkpt lat="43.5558" lon="6.61333">
        <ele>150.2</ele>
        <time>2021-02-21T12:04:06Z</time>
      </trkpt>
      <trkpt lat="43.55574" lon="6.61344">
        <ele>148.9</ele>
        <time>2021-02-21T12:04:14Z</time>
      </trkpt>
      <trkpt lat="43.55571" lon="6.61357">
        <ele>149</ele>
        <time>2021-02-21T12:04:22Z</time>
      </trkpt>
      <trkpt lat="43.55574" lon="6.61369">
        <ele>148.9</ele>
        <time>2021-02-21T12:04:30Z</time>
      </trkpt>
      <trkpt lat="43.5558" lon="6.6138">
        <ele>148.9</ele>
        <time>2021-02-21T12:04:38Z</time>
      </trkpt>
      <trkpt lat="43.55586" lon="6.6139">
        <ele>148.6</ele>
        <time>2021-02-21T12:04:46Z</time>
      </trkpt>
      <trkpt lat="43.55591" lon="6.614">
        <ele>149.8</ele>
        <time>2021-02-21T12:04:54Z</time>
      </trkpt>
      <trkpt lat="43.55597" lon="6.61409">
        <ele>149.8</ele>
        <time>2021-02-21T12:05:03Z</time>
      </trkpt>
      <trkpt lat="43.55601" lon="6.61421">
        <ele>150.2</ele>
        <time>2021-02-21T12:05:11Z</time>
      </trkpt>
      <trkpt lat="43.55605" lon="6.61434">
        <ele>150.5</ele>
        <time>2021-02-21T12:05:19Z</time>
      </trkpt>
      <trkpt lat="43.55607" lon="6.61448">
        <ele>151</ele>
        <time>2021-02-21T12:05:27Z</time>
      </trkpt>
      <trkpt lat="43.55609" lon="6.6146">
        <ele>151.4</ele>
        <time>2021-02-21T12:05:34Z</time>
      </trkpt>
      <trkpt lat="43.55611" lon="6.61473">
        <ele>151.8</ele>
        <time>2021-02-21T12:05:42Z</time>
      </trkpt>
      <trkpt lat="43.55614" lon="6.61485">
        <ele>151.9</ele>
        <time>2021-02-21T12:05:50Z</time>
      </trkpt>
      <trkpt lat="43.55619" lon="6.61496">
        <ele>151.2</ele>
        <time>2021-02-21T12:05:57Z</time>
      </trkpt>
      <trkpt lat="43.55627" lon="6.61504">
        <ele>152</ele>
        <time>2021-02-21T12:06:05Z</time>
      </trkpt>
      <trkpt lat="43.55627" lon="6.61517">
        <ele>152.5</ele>
        <time>2021-02-21T12:06:14Z</time>
      </trkpt>
      <trkpt lat="43.55628" lon="6.6153">
        <ele>152.2</ele>
        <time>2021-02-21T12:06:22Z</time>
      </trkpt>
      <trkpt lat="43.5563" lon="6.61544">
        <ele>152.6</ele>
        <time>2021-02-21T12:06:31Z</time>
      </trkpt>
      <trkpt lat="43.55633" lon="6.61556">
        <ele>152.4</ele>
        <time>2021-02-21T12:06:39Z</time>
      </trkpt>
      <trkpt lat="43.55637" lon="6.61568">
        <ele>153.1</ele>
        <time>2021-02-21T12:06:48Z</time>
      </trkpt>
      <trkpt lat="43.55641" lon="6.61579">
        <ele>152.5</ele>
        <time>2021-02-21T12:06:56Z</time>
      </trkpt>
      <trkpt lat="43.55644" lon="6.61592">
        <ele>152.5</ele>
        <time>2021-02-21T12:07:04Z</time>
      </trkpt>
      <trkpt lat="43.55648" lon="6.61604">
        <ele>152.4</ele>
        <time>2021-02-21T12:07:13Z</time>
      </trkpt>
      <trkpt lat="43.55651" lon="6.61617">
        <ele>151.9</ele>
        <time>2021-02-21T12:07:21Z</time>
      </trkpt>
      <trkpt lat="43.55656" lon="6.61629">
        <ele>152.4</ele>
        <time>2021-02-21T12:07:30Z</time>
      </trkpt>
      <trkpt lat="43.55659" lon="6.6164">
        <ele>154.8</ele>
        <time>2021-02-21T12:07:40Z</time>
      </trkpt>
      <trkpt lat="43.55659" lon="6.61641">
        <ele>154.7</ele>
        <time>2021-02-21T12:07:43Z</time>
      </trkpt>
      <trkpt lat="43.55659" lon="6.61644">
        <ele>154.4</ele>
        <time>2021-02-21T12:07:48Z</time>
      </trkpt>
      <trkpt lat="43.55659" lon="6.61644">
        <ele>153.4</ele>
        <time>2021-02-21T12:08:10Z</time>
      </trkpt>
      <trkpt lat="43.55659" lon="6.61644">
        <ele>153.4</ele>
        <time>2021-02-21T12:08:11Z</time>
      </trkpt>
      <trkpt lat="43.55659" lon="6.61644">
        <ele>153.3</ele>
        <time>2021-02-21T12:08:23Z</time>
      </trkpt>
      <trkpt lat="43.55659" lon="6.61644">
        <ele>153.4</ele>
        <time>2021-02-21T12:08:24Z</time>
      </trkpt>
      <trkpt lat="43.55659" lon="6.61644">
        <ele>153.9</ele>
        <time>2021-02-21T12:08:31Z</time>
      </trkpt>
      <trkpt lat="43.55662" lon="6.61657">
        <ele>153.6</ele>
        <time>2021-02-21T12:08:43Z</time>
      </trkpt>
      <trkpt lat="43.55666" lon="6.61669">
        <ele>154</ele>
        <time>2021-02-21T12:08:53Z</time>
      </trkpt>
      <trkpt lat="43.55669" lon="6.61681">
        <ele>155</ele>
        <time>2021-02-21T12:09:02Z</time>
      </trkpt>
      <trkpt lat="43.55673" lon="6.61693">
        <ele>154.9</ele>
        <time>2021-02-21T12:09:12Z</time>
      </trkpt>
      <trkpt lat="43.55679" lon="6.61704">
        <ele>154.7</ele>
        <time>2021-02-21T12:09:21Z</time>
      </trkpt>
      <trkpt lat="43.55682" lon="6.61716">
        <ele>154.9</ele>
        <time>2021-02-21T12:09:33Z</time>
      </trkpt>
      <trkpt lat="43.5569" lon="6.61725">
        <ele>155.8</ele>
        <time>2021-02-21T12:09:46Z</time>
      </trkpt>
      <trkpt lat="43.55695" lon="6.61735">
        <ele>155</ele>
        <time>2021-02-21T12:09:55Z</time>
      </trkpt>
      <trkpt lat="43.55701" lon="6.61744">
        <ele>154.3</ele>
        <time>2021-02-21T12:10:03Z</time>
      </trkpt>
      <trkpt lat="43.55708" lon="6.61754">
        <ele>152.1</ele>
        <time>2021-02-21T12:10:11Z</time>
      </trkpt>
      <trkpt lat="43.55712" lon="6.61762">
        <ele>152.1</ele>
        <time>2021-02-21T12:10:18Z</time>
      </trkpt>
      <trkpt lat="43.55712" lon="6.61762">
        <ele>151.6</ele>
        <time>2021-02-21T12:10:22Z</time>
      </trkpt>
      <trkpt lat="43.55719" lon="6.61771">
        <ele>152.5</ele>
        <time>2021-02-21T12:10:31Z</time>
      </trkpt>
      <trkpt lat="43.55724" lon="6.61783">
        <ele>153.3</ele>
        <time>2021-02-21T12:10:40Z</time>
      </trkpt>
      <trkpt lat="43.5573" lon="6.61794">
        <ele>153.1</ele>
        <time>2021-02-21T12:10:48Z</time>
      </trkpt>
      <trkpt lat="43.55736" lon="6.61804">
        <ele>152.8</ele>
        <time>2021-02-21T12:10:56Z</time>
      </trkpt>
      <trkpt lat="43.55744" lon="6.61811">
        <ele>148.9</ele>
        <time>2021-02-21T12:11:04Z</time>
      </trkpt>
      <trkpt lat="43.55754" lon="6.61814">
        <ele>147.4</ele>
        <time>2021-02-21T12:11:12Z</time>
      </trkpt>
      <trkpt lat="43.55763" lon="6.61813">
        <ele>150.6</ele>
        <time>2021-02-21T12:11:19Z</time>
      </trkpt>
      <trkpt lat="43.55772" lon="6.61808">
        <ele>150.1</ele>
        <time>2021-02-21T12:11:26Z</time>
      </trkpt>
      <trkpt lat="43.55777" lon="6.61806">
        <ele>150.4</ele>
        <time>2021-02-21T12:11:32Z</time>
      </trkpt>
      <trkpt lat="43.55777" lon="6.61806">
        <ele>150.4</ele>
        <time>2021-02-21T12:11:33Z</time>
      </trkpt>
      <trkpt lat="43.55777" lon="6.61806">
        <ele>150.7</ele>
        <time>2021-02-21T12:11:34Z</time>
      </trkpt>
      <trkpt lat="43.55777" lon="6.61807">
        <ele>150.6</ele>
        <time>2021-02-21T12:11:35Z</time>
      </trkpt>
      <trkpt lat="43.55781" lon="6.61806">
        <ele>150.9</ele>
        <time>2021-02-21T12:11:41Z</time>
      </trkpt>
      <trkpt lat="43.5578" lon="6.61807">
        <ele>150.7</ele>
        <time>2021-02-21T12:11:42Z</time>
      </trkpt>
      <trkpt lat="43.5578" lon="6.61807">
        <ele>150.4</ele>
        <time>2021-02-21T12:11:43Z</time>
      </trkpt>
      <trkpt lat="43.5578" lon="6.61807">
        <ele>149.8</ele>
        <time>2021-02-21T12:11:46Z</time>
      </trkpt>
      <trkpt lat="43.55789" lon="6.61801">
        <ele>150</ele>
        <time>2021-02-21T12:11:55Z</time>
      </trkpt>
      <trkpt lat="43.55798" lon="6.61796">
        <ele>149.6</ele>
        <time>2021-02-21T12:12:03Z</time>
      </trkpt>
      <trkpt lat="43.55807" lon="6.61796">
        <ele>150.3</ele>
        <time>2021-02-21T12:12:12Z</time>
      </trkpt>
      <trkpt lat="43.55816" lon="6.61791">
        <ele>150.8</ele>
        <time>2021-02-21T12:12:21Z</time>
      </trkpt>
      <trkpt lat="43.55826" lon="6.6179">
        <ele>151.1</ele>
        <time>2021-02-21T12:12:30Z</time>
      </trkpt>
      <trkpt lat="43.55836" lon="6.61785">
        <ele>150.7</ele>
        <time>2021-02-21T12:12:36Z</time>
      </trkpt>
      <trkpt lat="43.55845" lon="6.61789">
        <ele>151</ele>
        <time>2021-02-21T12:12:45Z</time>
      </trkpt>
      <trkpt lat="43.55852" lon="6.61796">
        <ele>150.7</ele>
        <time>2021-02-21T12:12:54Z</time>
      </trkpt>
      <trkpt lat="43.55861" lon="6.61797">
        <ele>149.6</ele>
        <time>2021-02-21T12:13:02Z</time>
      </trkpt>
      <trkpt lat="43.5587" lon="6.61801">
        <ele>149.4</ele>
        <time>2021-02-21T12:13:11Z</time>
      </trkpt>
      <trkpt lat="43.5588" lon="6.61805">
        <ele>150</ele>
        <time>2021-02-21T12:13:19Z</time>
      </trkpt>
      <trkpt lat="43.55889" lon="6.61806">
        <ele>149.6</ele>
        <time>2021-02-21T12:13:28Z</time>
      </trkpt>
      <trkpt lat="43.55899" lon="6.61808">
        <ele>150.2</ele>
        <time>2021-02-21T12:13:36Z</time>
      </trkpt>
      <trkpt lat="43.55908" lon="6.6181">
        <ele>148.3</ele>
        <time>2021-02-21T12:13:44Z</time>
      </trkpt>
      <trkpt lat="43.55918" lon="6.6181">
        <ele>151.4</ele>
        <time>2021-02-21T12:13:52Z</time>
      </trkpt>
      <trkpt lat="43.55928" lon="6.61811">
        <ele>149.9</ele>
        <time>2021-02-21T12:13:59Z</time>
      </trkpt>
      <trkpt lat="43.55936" lon="6.61805">
        <ele>148.9</ele>
        <time>2021-02-21T12:14:09Z</time>
      </trkpt>
      <trkpt lat="43.55944" lon="6.61796">
        <ele>147.7</ele>
        <time>2021-02-21T12:14:16Z</time>
      </trkpt>
      <trkpt lat="43.55951" lon="6.61788">
        <ele>148.2</ele>
        <time>2021-02-21T12:14:23Z</time>
      </trkpt>
      <trkpt lat="43.55959" lon="6.61782">
        <ele>148.1</ele>
        <time>2021-02-21T12:14:30Z</time>
      </trkpt>
      <trkpt lat="43.55963" lon="6.61779">
        <ele>147.4</ele>
        <time>2021-02-21T12:14:37Z</time>
      </trkpt>
      <trkpt lat="43.55963" lon="6.61779">
        <ele>147.1</ele>
        <time>2021-02-21T12:14:40Z</time>
      </trkpt>
      <trkpt lat="43.55963" lon="6.61779">
        <ele>147</ele>
        <time>2021-02-21T12:14:41Z</time>
      </trkpt>
      <trkpt lat="43.55963" lon="6.61779">
        <ele>146.8</ele>
        <time>2021-02-21T12:14:42Z</time>
      </trkpt>
      <trkpt lat="43.55969" lon="6.61769">
        <ele>146.3</ele>
        <time>2021-02-21T12:14:50Z</time>
      </trkpt>
      <trkpt lat="43.55976" lon="6.6176">
        <ele>146.3</ele>
        <time>2021-02-21T12:14:57Z</time>
      </trkpt>
      <trkpt lat="43.55982" lon="6.61751">
        <ele>144.5</ele>
        <time>2021-02-21T12:15:05Z</time>
      </trkpt>
      <trkpt lat="43.55991" lon="6.61745">
        <ele>144.3</ele>
        <time>2021-02-21T12:15:16Z</time>
      </trkpt>
      <trkpt lat="43.56001" lon="6.61745">
        <ele>144.9</ele>
        <time>2021-02-21T12:15:24Z</time>
      </trkpt>
      <trkpt lat="43.56007" lon="6.61745">
        <ele>145</ele>
        <time>2021-02-21T12:15:34Z</time>
      </trkpt>
      <trkpt lat="43.56007" lon="6.61745">
        <ele>145</ele>
        <time>2021-02-21T12:15:38Z</time>
      </trkpt>
      <trkpt lat="43.56007" lon="6.61745">
        <ele>144.9</ele>
        <time>2021-02-21T12:15:39Z</time>
      </trkpt>
      <trkpt lat="43.56007" lon="6.61745">
        <ele>144.7</ele>
        <time>2021-02-21T12:15:41Z</time>
      </trkpt>
      <trkpt lat="43.56015" lon="6.61737">
        <ele>143.4</ele>
        <time>2021-02-21T12:15:51Z</time>
      </trkpt>
      <trkpt lat="43.56025" lon="6.61736">
        <ele>143.3</ele>
        <time>2021-02-21T12:16:00Z</time>
      </trkpt>
      <trkpt lat="43.56034" lon="6.6173">
        <ele>141.8</ele>
        <time>2021-02-21T12:16:07Z</time>
      </trkpt>
      <trkpt lat="43.56042" lon="6.61725">
        <ele>143</ele>
        <time>2021-02-21T12:16:17Z</time>
      </trkpt>
      <trkpt lat="43.56051" lon="6.61723">
        <ele>143.4</ele>
        <time>2021-02-21T12:16:25Z</time>
      </trkpt>
      <trkpt lat="43.56061" lon="6.61721">
        <ele>143.3</ele>
        <time>2021-02-21T12:16:32Z</time>
      </trkpt>
      <trkpt lat="43.56069" lon="6.61714">
        <ele>142.7</ele>
        <time>2021-02-21T12:16:40Z</time>
      </trkpt>
      <trkpt lat="43.56078" lon="6.61707">
        <ele>143.4</ele>
        <time>2021-02-21T12:16:50Z</time>
      </trkpt>
      <trkpt lat="43.56086" lon="6.617">
        <ele>143.9</ele>
        <time>2021-02-21T12:16:59Z</time>
      </trkpt>
      <trkpt lat="43.56095" lon="6.61694">
        <ele>144.4</ele>
        <time>2021-02-21T12:17:08Z</time>
      </trkpt>
      <trkpt lat="43.56104" lon="6.61689">
        <ele>146</ele>
        <time>2021-02-21T12:17:17Z</time>
      </trkpt>
      <trkpt lat="43.56113" lon="6.61685">
        <ele>145.6</ele>
        <time>2021-02-21T12:17:26Z</time>
      </trkpt>
      <trkpt lat="43.56122" lon="6.61684">
        <ele>144.4</ele>
        <time>2021-02-21T12:17:33Z</time>
      </trkpt>
      <trkpt lat="43.56128" lon="6.61684">
        <ele>146.8</ele>
        <time>2021-02-21T12:17:42Z</time>
      </trkpt>
      <trkpt lat="43.56128" lon="6.61684">
        <ele>145.6</ele>
        <time>2021-02-21T12:17:45Z</time>
      </trkpt>
      <trkpt lat="43.56133" lon="6.61694">
        <ele>143.8</ele>
        <time>2021-02-21T12:18:00Z</time>
      </trkpt>
      <trkpt lat="43.56135" lon="6.61696">
        <ele>145.8</ele>
        <time>2021-02-21T12:18:08Z</time>
      </trkpt>
      <trkpt lat="43.56135" lon="6.61696">
        <ele>145.9</ele>
        <time>2021-02-21T12:18:09Z</time>
      </trkpt>
      <trkpt lat="43.56135" lon="6.61696">
        <ele>145.7</ele>
        <time>2021-02-21T12:18:10Z</time>
      </trkpt>
      <trkpt lat="43.56135" lon="6.61695">
        <ele>145.7</ele>
        <time>2021-02-21T12:18:11Z</time>
      </trkpt>
      <trkpt lat="43.56135" lon="6.61695">
        <ele>145.9</ele>
        <time>2021-02-21T12:18:12Z</time>
      </trkpt>
      <trkpt lat="43.56135" lon="6.61695">
        <ele>145.8</ele>
        <time>2021-02-21T12:18:15Z</time>
      </trkpt>
      <trkpt lat="43.56135" lon="6.61695">
        <ele>145.9</ele>
        <time>2021-02-21T12:18:17Z</time>
      </trkpt>
      <trkpt lat="43.56134" lon="6.61695">
        <ele>145.8</ele>
        <time>2021-02-21T12:18:18Z</time>
      </trkpt>
      <trkpt lat="43.56135" lon="6.61696">
        <ele>146.6</ele>
        <time>2021-02-21T12:18:23Z</time>
      </trkpt>
      <trkpt lat="43.56134" lon="6.61696">
        <ele>146.6</ele>
        <time>2021-02-21T12:18:24Z</time>
      </trkpt>
      <trkpt lat="43.56132" lon="6.61696">
        <ele>145.6</ele>
        <time>2021-02-21T12:18:30Z</time>
      </trkpt>
      <trkpt lat="43.56132" lon="6.61697">
        <ele>145.2</ele>
        <time>2021-02-21T12:18:32Z</time>
      </trkpt>
      <trkpt lat="43.56134" lon="6.61709">
        <ele>145.9</ele>
        <time>2021-02-21T12:18:44Z</time>
      </trkpt>
      <trkpt lat="43.5613" lon="6.61721">
        <ele>147.7</ele>
        <time>2021-02-21T12:18:55Z</time>
      </trkpt>
      <trkpt lat="43.56121" lon="6.61727">
        <ele>147.9</ele>
        <time>2021-02-21T12:19:06Z</time>
      </trkpt>
      <trkpt lat="43.56113" lon="6.61732">
        <ele>147.8</ele>
        <time>2021-02-21T12:19:17Z</time>
      </trkpt>
      <trkpt lat="43.56104" lon="6.61737">
        <ele>149.3</ele>
        <time>2021-02-21T12:19:28Z</time>
      </trkpt>
      <trkpt lat="43.56098" lon="6.61746">
        <ele>149.5</ele>
        <time>2021-02-21T12:19:38Z</time>
      </trkpt>
      <trkpt lat="43.5609" lon="6.61753">
        <ele>151.6</ele>
        <time>2021-02-21T12:19:49Z</time>
      </trkpt>
      <trkpt lat="43.56081" lon="6.61757">
        <ele>152.2</ele>
        <time>2021-02-21T12:19:59Z</time>
      </trkpt>
      <trkpt lat="43.56073" lon="6.61761">
        <ele>155</ele>
        <time>2021-02-21T12:20:09Z</time>
      </trkpt>
      <trkpt lat="43.56065" lon="6.61768">
        <ele>153.8</ele>
        <time>2021-02-21T12:20:18Z</time>
      </trkpt>
      <trkpt lat="43.56058" lon="6.61778">
        <ele>155.4</ele>
        <time>2021-02-21T12:20:28Z</time>
      </trkpt>
      <trkpt lat="43.56054" lon="6.61789">
        <ele>157.4</ele>
        <time>2021-02-21T12:20:40Z</time>
      </trkpt>
      <trkpt lat="43.5605" lon="6.61801">
        <ele>156.7</ele>
        <time>2021-02-21T12:20:50Z</time>
      </trkpt>
      <trkpt lat="43.56046" lon="6.61813">
        <ele>157.2</ele>
        <time>2021-02-21T12:21:01Z</time>
      </trkpt>
      <trkpt lat="43.56046" lon="6.61827">
        <ele>160.3</ele>
        <time>2021-02-21T12:21:12Z</time>
      </trkpt>
      <trkpt lat="43.56045" lon="6.61839">
        <ele>160.8</ele>
        <time>2021-02-21T12:21:22Z</time>
      </trkpt>
      <trkpt lat="43.56043" lon="6.61852">
        <ele>162.7</ele>
        <time>2021-02-21T12:21:34Z</time>
      </trkpt>
      <trkpt lat="43.56043" lon="6.61855">
        <ele>162.3</ele>
        <time>2021-02-21T12:21:39Z</time>
      </trkpt>
      <trkpt lat="43.56042" lon="6.61856">
        <ele>162.1</ele>
        <time>2021-02-21T12:21:40Z</time>
      </trkpt>
      <trkpt lat="43.56038" lon="6.61868">
        <ele>163</ele>
        <time>2021-02-21T12:21:50Z</time>
      </trkpt>
      <trkpt lat="43.56036" lon="6.61881">
        <ele>165.4</ele>
        <time>2021-02-21T12:22:01Z</time>
      </trkpt>
      <trkpt lat="43.56031" lon="6.61892">
        <ele>165.9</ele>
        <time>2021-02-21T12:22:13Z</time>
      </trkpt>
      <trkpt lat="43.56027" lon="6.61904">
        <ele>168.7</ele>
        <time>2021-02-21T12:22:24Z</time>
      </trkpt>
      <trkpt lat="43.5602" lon="6.61913">
        <ele>168.1</ele>
        <time>2021-02-21T12:22:34Z</time>
      </trkpt>
      <trkpt lat="43.56013" lon="6.6192">
        <ele>169.1</ele>
        <time>2021-02-21T12:22:43Z</time>
      </trkpt>
      <trkpt lat="43.56005" lon="6.61927">
        <ele>169.6</ele>
        <time>2021-02-21T12:22:54Z</time>
      </trkpt>
      <trkpt lat="43.55997" lon="6.61934">
        <ele>170.6</ele>
        <time>2021-02-21T12:23:04Z</time>
      </trkpt>
      <trkpt lat="43.5599" lon="6.61943">
        <ele>171.1</ele>
        <time>2021-02-21T12:23:13Z</time>
      </trkpt>
      <trkpt lat="43.55984" lon="6.61952">
        <ele>171.5</ele>
        <time>2021-02-21T12:23:20Z</time>
      </trkpt>
      <trkpt lat="43.55979" lon="6.61963">
        <ele>171.6</ele>
        <time>2021-02-21T12:23:30Z</time>
      </trkpt>
      <trkpt lat="43.55973" lon="6.61973">
        <ele>172.3</ele>
        <time>2021-02-21T12:23:39Z</time>
      </trkpt>
      <trkpt lat="43.55968" lon="6.61984">
        <ele>173.2</ele>
        <time>2021-02-21T12:23:48Z</time>
      </trkpt>
      <trkpt lat="43.55963" lon="6.61995">
        <ele>173.6</ele>
        <time>2021-02-21T12:23:59Z</time>
      </trkpt>
      <trkpt lat="43.55956" lon="6.62005">
        <ele>174.5</ele>
        <time>2021-02-21T12:24:10Z</time>
      </trkpt>
      <trkpt lat="43.55948" lon="6.62013">
        <ele>174.8</ele>
        <time>2021-02-21T12:24:22Z</time>
      </trkpt>
      <trkpt lat="43.55943" lon="6.62016">
        <ele>176</ele>
        <time>2021-02-21T12:24:31Z</time>
      </trkpt>
      <trkpt lat="43.55942" lon="6.62015">
        <ele>176.2</ele>
        <time>2021-02-21T12:24:33Z</time>
      </trkpt>
      <trkpt lat="43.55937" lon="6.62026">
        <ele>177.3</ele>
        <time>2021-02-21T12:24:44Z</time>
      </trkpt>
      <trkpt lat="43.55943" lon="6.62035">
        <ele>179.1</ele>
        <time>2021-02-21T12:24:58Z</time>
      </trkpt>
      <trkpt lat="43.55953" lon="6.62037">
        <ele>179.9</ele>
        <time>2021-02-21T12:25:06Z</time>
      </trkpt>
      <trkpt lat="43.55954" lon="6.62038">
        <ele>180.6</ele>
        <time>2021-02-21T12:25:10Z</time>
      </trkpt>
      <trkpt lat="43.55955" lon="6.62038">
        <ele>180.1</ele>
        <time>2021-02-21T12:25:16Z</time>
      </trkpt>
      <trkpt lat="43.55955" lon="6.62038">
        <ele>180.2</ele>
        <time>2021-02-21T12:25:17Z</time>
      </trkpt>
      <trkpt lat="43.55955" lon="6.62038">
        <ele>180.1</ele>
        <time>2021-02-21T12:25:18Z</time>
      </trkpt>
      <trkpt lat="43.55964" lon="6.62035">
        <ele>180.7</ele>
        <time>2021-02-21T12:25:31Z</time>
      </trkpt>
      <trkpt lat="43.55973" lon="6.62039">
        <ele>180.7</ele>
        <time>2021-02-21T12:25:44Z</time>
      </trkpt>
      <trkpt lat="43.55982" lon="6.62037">
        <ele>181.8</ele>
        <time>2021-02-21T12:25:54Z</time>
      </trkpt>
      <trkpt lat="43.55991" lon="6.62034">
        <ele>183.5</ele>
        <time>2021-02-21T12:26:05Z</time>
      </trkpt>
      <trkpt lat="43.56001" lon="6.62029">
        <ele>183.5</ele>
        <time>2021-02-21T12:26:14Z</time>
      </trkpt>
      <trkpt lat="43.56009" lon="6.62024">
        <ele>184</ele>
        <time>2021-02-21T12:26:23Z</time>
      </trkpt>
      <trkpt lat="43.56018" lon="6.62019">
        <ele>183.9</ele>
        <time>2021-02-21T12:26:33Z</time>
      </trkpt>
      <trkpt lat="43.56026" lon="6.62014">
        <ele>184.4</ele>
        <time>2021-02-21T12:26:43Z</time>
      </trkpt>
      <trkpt lat="43.56035" lon="6.6201">
        <ele>184.6</ele>
        <time>2021-02-21T12:26:52Z</time>
      </trkpt>
      <trkpt lat="43.56044" lon="6.62004">
        <ele>184.9</ele>
        <time>2021-02-21T12:27:03Z</time>
      </trkpt>
      <trkpt lat="43.56052" lon="6.61998">
        <ele>185.4</ele>
        <time>2021-02-21T12:27:11Z</time>
      </trkpt>
      <trkpt lat="43.56061" lon="6.61994">
        <ele>184.8</ele>
        <time>2021-02-21T12:27:20Z</time>
      </trkpt>
      <trkpt lat="43.56071" lon="6.61993">
        <ele>183.8</ele>
        <time>2021-02-21T12:27:30Z</time>
      </trkpt>
      <trkpt lat="43.5608" lon="6.61994">
        <ele>184.1</ele>
        <time>2021-02-21T12:27:40Z</time>
      </trkpt>
      <trkpt lat="43.56089" lon="6.61995">
        <ele>184.2</ele>
        <time>2021-02-21T12:27:48Z</time>
      </trkpt>
      <trkpt lat="43.56099" lon="6.61994">
        <ele>185.9</ele>
        <time>2021-02-21T12:27:56Z</time>
      </trkpt>
      <trkpt lat="43.56109" lon="6.61995">
        <ele>184</ele>
        <time>2021-02-21T12:28:04Z</time>
      </trkpt>
      <trkpt lat="43.56118" lon="6.61996">
        <ele>182.7</ele>
        <time>2021-02-21T12:28:13Z</time>
      </trkpt>
      <trkpt lat="43.56128" lon="6.61998">
        <ele>183.5</ele>
        <time>2021-02-21T12:28:22Z</time>
      </trkpt>
      <trkpt lat="43.56137" lon="6.62">
        <ele>181.9</ele>
        <time>2021-02-21T12:28:30Z</time>
      </trkpt>
      <trkpt lat="43.56145" lon="6.62005">
        <ele>182.7</ele>
        <time>2021-02-21T12:28:41Z</time>
      </trkpt>
      <trkpt lat="43.56155" lon="6.6201">
        <ele>182.9</ele>
        <time>2021-02-21T12:28:50Z</time>
      </trkpt>
      <trkpt lat="43.56163" lon="6.62016">
        <ele>183.7</ele>
        <time>2021-02-21T12:28:59Z</time>
      </trkpt>
      <trkpt lat="43.56172" lon="6.62022">
        <ele>184.4</ele>
        <time>2021-02-21T12:29:10Z</time>
      </trkpt>
      <trkpt lat="43.56171" lon="6.62024">
        <ele>184.4</ele>
        <time>2021-02-21T12:29:14Z</time>
      </trkpt>
      <trkpt lat="43.56171" lon="6.62025">
        <ele>184.6</ele>
        <time>2021-02-21T12:29:16Z</time>
      </trkpt>
      <trkpt lat="43.56171" lon="6.62024">
        <ele>184.7</ele>
        <time>2021-02-21T12:29:17Z</time>
      </trkpt>
      <trkpt lat="43.56171" lon="6.62024">
        <ele>184.6</ele>
        <time>2021-02-21T12:29:18Z</time>
      </trkpt>
      <trkpt lat="43.56168" lon="6.62025">
        <ele>184</ele>
        <time>2021-02-21T12:29:22Z</time>
      </trkpt>
      <trkpt lat="43.56169" lon="6.62024">
        <ele>183.9</ele>
        <time>2021-02-21T12:29:23Z</time>
      </trkpt>
      <trkpt lat="43.56169" lon="6.62024">
        <ele>183.4</ele>
        <time>2021-02-21T12:29:25Z</time>
      </trkpt>
      <trkpt lat="43.56169" lon="6.62024">
        <ele>183.1</ele>
        <time>2021-02-21T12:29:26Z</time>
      </trkpt>
      <trkpt lat="43.56169" lon="6.62024">
        <ele>182.8</ele>
        <time>2021-02-21T12:29:27Z</time>
      </trkpt>
      <trkpt lat="43.56169" lon="6.62024">
        <ele>182.5</ele>
        <time>2021-02-21T12:29:29Z</time>
      </trkpt>
      <trkpt lat="43.5617" lon="6.62025">
        <ele>184.6</ele>
        <time>2021-02-21T12:29:38Z</time>
      </trkpt>
      <trkpt lat="43.5617" lon="6.62025">
        <ele>184.2</ele>
        <time>2021-02-21T12:29:40Z</time>
      </trkpt>
      <trkpt lat="43.5617" lon="6.62025">
        <ele>184.1</ele>
        <time>2021-02-21T12:29:41Z</time>
      </trkpt>
      <trkpt lat="43.56169" lon="6.62026">
        <ele>184.2</ele>
        <time>2021-02-21T12:29:45Z</time>
      </trkpt>
      <trkpt lat="43.56169" lon="6.62026">
        <ele>184</ele>
        <time>2021-02-21T12:29:46Z</time>
      </trkpt>
      <trkpt lat="43.56169" lon="6.62026">
        <ele>183.8</ele>
        <time>2021-02-21T12:30:38Z</time>
      </trkpt>
      <trkpt lat="43.56169" lon="6.62025">
        <ele>183.9</ele>
        <time>2021-02-21T12:30:40Z</time>
      </trkpt>
      <trkpt lat="43.56169" lon="6.62026">
        <ele>184</ele>
        <time>2021-02-21T12:30:41Z</time>
      </trkpt>
      <trkpt lat="43.56168" lon="6.62025">
        <ele>184.1</ele>
        <time>2021-02-21T12:30:47Z</time>
      </trkpt>
      <trkpt lat="43.56168" lon="6.62025">
        <ele>184.1</ele>
        <time>2021-02-21T12:30:48Z</time>
      </trkpt>
      <trkpt lat="43.56168" lon="6.62025">
        <ele>184.2</ele>
        <time>2021-02-21T12:30:49Z</time>
      </trkpt>
      <trkpt lat="43.56168" lon="6.62026">
        <ele>184.1</ele>
        <time>2021-02-21T12:31:01Z</time>
      </trkpt>
      <trkpt lat="43.56168" lon="6.62026">
        <ele>184</ele>
        <time>2021-02-21T12:31:05Z</time>
      </trkpt>
      <trkpt lat="43.56168" lon="6.62026">
        <ele>183.3</ele>
        <time>2021-02-21T12:31:23Z</time>
      </trkpt>
      <trkpt lat="43.56169" lon="6.62026">
        <ele>183.1</ele>
        <time>2021-02-21T12:31:25Z</time>
      </trkpt>
      <trkpt lat="43.56168" lon="6.62026">
        <ele>183.6</ele>
        <time>2021-02-21T12:31:41Z</time>
      </trkpt>
      <trkpt lat="43.56168" lon="6.62026">
        <ele>183.8</ele>
        <time>2021-02-21T12:31:43Z</time>
      </trkpt>
      <trkpt lat="43.56168" lon="6.62026">
        <ele>183.9</ele>
        <time>2021-02-21T12:31:45Z</time>
      </trkpt>
      <trkpt lat="43.56168" lon="6.62024">
        <ele>183.3</ele>
        <time>2021-02-21T12:31:50Z</time>
      </trkpt>
      <trkpt lat="43.56168" lon="6.62025">
        <ele>183.1</ele>
        <time>2021-02-21T12:31:51Z</time>
      </trkpt>
      <trkpt lat="43.56168" lon="6.62025">
        <ele>183.1</ele>
        <time>2021-02-21T12:31:52Z</time>
      </trkpt>
      <trkpt lat="43.56168" lon="6.62024">
        <ele>183.2</ele>
        <time>2021-02-21T12:31:54Z</time>
      </trkpt>
      <trkpt lat="43.56168" lon="6.62024">
        <ele>183.2</ele>
        <time>2021-02-21T12:31:56Z</time>
      </trkpt>
      <trkpt lat="43.56168" lon="6.62024">
        <ele>183.4</ele>
        <time>2021-02-21T12:31:57Z</time>
      </trkpt>
      <trkpt lat="43.56168" lon="6.62024">
        <ele>183.5</ele>
        <time>2021-02-21T12:31:58Z</time>
      </trkpt>
      <trkpt lat="43.56168" lon="6.62023">
        <ele>183.5</ele>
        <time>2021-02-21T12:31:59Z</time>
      </trkpt>
      <trkpt lat="43.56166" lon="6.62022">
        <ele>183.7</ele>
        <time>2021-02-21T12:32:08Z</time>
      </trkpt>
      <trkpt lat="43.56165" lon="6.62022">
        <ele>183.8</ele>
        <time>2021-02-21T12:32:09Z</time>
      </trkpt>
      <trkpt lat="43.56165" lon="6.62022">
        <ele>183.8</ele>
        <time>2021-02-21T12:32:10Z</time>
      </trkpt>
      <trkpt lat="43.56165" lon="6.62022">
        <ele>183.9</ele>
        <time>2021-02-21T12:32:12Z</time>
      </trkpt>
      <trkpt lat="43.56165" lon="6.62022">
        <ele>184.1</ele>
        <time>2021-02-21T12:32:13Z</time>
      </trkpt>
      <trkpt lat="43.56165" lon="6.62023">
        <ele>184.2</ele>
        <time>2021-02-21T12:32:14Z</time>
      </trkpt>
      <trkpt lat="43.56165" lon="6.62023">
        <ele>184.3</ele>
        <time>2021-02-21T12:32:16Z</time>
      </trkpt>
      <trkpt lat="43.56165" lon="6.62022">
        <ele>184.4</ele>
        <time>2021-02-21T12:32:26Z</time>
      </trkpt>
      <trkpt lat="43.56165" lon="6.62022">
        <ele>184.4</ele>
        <time>2021-02-21T12:32:27Z</time>
      </trkpt>
      <trkpt lat="43.56165" lon="6.62022">
        <ele>184</ele>
        <time>2021-02-21T12:32:32Z</time>
      </trkpt>
      <trkpt lat="43.56165" lon="6.62021">
        <ele>184.1</ele>
        <time>2021-02-21T12:32:36Z</time>
      </trkpt>
      <trkpt lat="43.56165" lon="6.62021">
        <ele>184.5</ele>
        <time>2021-02-21T12:32:50Z</time>
      </trkpt>
      <trkpt lat="43.56165" lon="6.62021">
        <ele>184.4</ele>
        <time>2021-02-21T12:32:52Z</time>
      </trkpt>
      <trkpt lat="43.56165" lon="6.62022">
        <ele>183.8</ele>
        <time>2021-02-21T12:32:59Z</time>
      </trkpt>
      <trkpt lat="43.56165" lon="6.62022">
        <ele>183.5</ele>
        <time>2021-02-21T12:33:00Z</time>
      </trkpt>
      <trkpt lat="43.56165" lon="6.62022">
        <ele>183.9</ele>
        <time>2021-02-21T12:33:20Z</time>
      </trkpt>
      <trkpt lat="43.56165" lon="6.62022">
        <ele>184</ele>
        <time>2021-02-21T12:33:21Z</time>
      </trkpt>
      <trkpt lat="43.56165" lon="6.62022">
        <ele>184.4</ele>
        <time>2021-02-21T12:34:06Z</time>
      </trkpt>
      <trkpt lat="43.56165" lon="6.62022">
        <ele>184.5</ele>
        <time>2021-02-21T12:34:08Z</time>
      </trkpt>
      <trkpt lat="43.56166" lon="6.62022">
        <ele>185.4</ele>
        <time>2021-02-21T12:34:21Z</time>
      </trkpt>
      <trkpt lat="43.56166" lon="6.62022">
        <ele>185.4</ele>
        <time>2021-02-21T12:34:22Z</time>
      </trkpt>
      <trkpt lat="43.56166" lon="6.62021">
        <ele>185.5</ele>
        <time>2021-02-21T12:34:29Z</time>
      </trkpt>
      <trkpt lat="43.56166" lon="6.62021">
        <ele>184.4</ele>
        <time>2021-02-21T12:34:31Z</time>
      </trkpt>
      <trkpt lat="43.56166" lon="6.6202">
        <ele>183.9</ele>
        <time>2021-02-21T12:34:40Z</time>
      </trkpt>
      <trkpt lat="43.56166" lon="6.6202">
        <ele>183.9</ele>
        <time>2021-02-21T12:34:41Z</time>
      </trkpt>
      <trkpt lat="43.56166" lon="6.6202">
        <ele>184.1</ele>
        <time>2021-02-21T12:34:42Z</time>
      </trkpt>
      <trkpt lat="43.56166" lon="6.6202">
        <ele>184.6</ele>
        <time>2021-02-21T12:34:43Z</time>
      </trkpt>
      <trkpt lat="43.56166" lon="6.62021">
        <ele>184.6</ele>
        <time>2021-02-21T12:34:45Z</time>
      </trkpt>
      <trkpt lat="43.56166" lon="6.62022">
        <ele>184.6</ele>
        <time>2021-02-21T12:34:49Z</time>
      </trkpt>
      <trkpt lat="43.56166" lon="6.62022">
        <ele>184.7</ele>
        <time>2021-02-21T12:35:09Z</time>
      </trkpt>
      <trkpt lat="43.56166" lon="6.62022">
        <ele>184.5</ele>
        <time>2021-02-21T12:35:10Z</time>
      </trkpt>
      <trkpt lat="43.56166" lon="6.62022">
        <ele>184.4</ele>
        <time>2021-02-21T12:35:11Z</time>
      </trkpt>
      <trkpt lat="43.56166" lon="6.62022">
        <ele>184.6</ele>
        <time>2021-02-21T12:35:15Z</time>
      </trkpt>
      <trkpt lat="43.56165" lon="6.62023">
        <ele>184.4</ele>
        <time>2021-02-21T12:35:16Z</time>
      </trkpt>
      <trkpt lat="43.56165" lon="6.62023">
        <ele>184.3</ele>
        <time>2021-02-21T12:35:17Z</time>
      </trkpt>
      <trkpt lat="43.56166" lon="6.62023">
        <ele>184.2</ele>
        <time>2021-02-21T12:35:19Z</time>
      </trkpt>
      <trkpt lat="43.56166" lon="6.62023">
        <ele>184.1</ele>
        <time>2021-02-21T12:35:20Z</time>
      </trkpt>
      <trkpt lat="43.56165" lon="6.62023">
        <ele>184.1</ele>
        <time>2021-02-21T12:35:21Z</time>
      </trkpt>
      <trkpt lat="43.56164" lon="6.62023">
        <ele>184.2</ele>
        <time>2021-02-21T12:35:29Z</time>
      </trkpt>
      <trkpt lat="43.56164" lon="6.62022">
        <ele>184.4</ele>
        <time>2021-02-21T12:35:37Z</time>
      </trkpt>
      <trkpt lat="43.56164" lon="6.62023">
        <ele>184.4</ele>
        <time>2021-02-21T12:35:38Z</time>
      </trkpt>
      <trkpt lat="43.56164" lon="6.62023">
        <ele>184.2</ele>
        <time>2021-02-21T12:35:39Z</time>
      </trkpt>
      <trkpt lat="43.56164" lon="6.62023">
        <ele>184.3</ele>
        <time>2021-02-21T12:35:40Z</time>
      </trkpt>
      <trkpt lat="43.56164" lon="6.62023">
        <ele>184.3</ele>
        <time>2021-02-21T12:35:48Z</time>
      </trkpt>
      <trkpt lat="43.56165" lon="6.62024">
        <ele>184.4</ele>
        <time>2021-02-21T12:35:50Z</time>
      </trkpt>
      <trkpt lat="43.56166" lon="6.62024">
        <ele>184.6</ele>
        <time>2021-02-21T12:35:52Z</time>
      </trkpt>
      <trkpt lat="43.56165" lon="6.62026">
        <ele>183.7</ele>
        <time>2021-02-21T12:35:56Z</time>
      </trkpt>
      <trkpt lat="43.56165" lon="6.62026">
        <ele>183.9</ele>
        <time>2021-02-21T12:36:03Z</time>
      </trkpt>
      <trkpt lat="43.56174" lon="6.62032">
        <ele>185.1</ele>
        <time>2021-02-21T12:36:17Z</time>
      </trkpt>
      <trkpt lat="43.56183" lon="6.62037">
        <ele>185.9</ele>
        <time>2021-02-21T12:36:29Z</time>
      </trkpt>
      <trkpt lat="43.56187" lon="6.62037">
        <ele>186.5</ele>
        <time>2021-02-21T12:36:37Z</time>
      </trkpt>
      <trkpt lat="43.56187" lon="6.62038">
        <ele>186.6</ele>
        <time>2021-02-21T12:36:39Z</time>
      </trkpt>
      <trkpt lat="43.56196" lon="6.62041">
        <ele>187.7</ele>
        <time>2021-02-21T12:36:51Z</time>
      </trkpt>
      <trkpt lat="43.56205" lon="6.62036">
        <ele>188.8</ele>
        <time>2021-02-21T12:37:01Z</time>
      </trkpt>
      <trkpt lat="43.56215" lon="6.62034">
        <ele>190</ele>
        <time>2021-02-21T12:37:14Z</time>
      </trkpt>
      <trkpt lat="43.5622" lon="6.62036">
        <ele>191.2</ele>
        <time>2021-02-21T12:37:24Z</time>
      </trkpt>
      <trkpt lat="43.5622" lon="6.62036">
        <ele>191.2</ele>
        <time>2021-02-21T12:37:25Z</time>
      </trkpt>
      <trkpt lat="43.56223" lon="6.62035">
        <ele>191</ele>
        <time>2021-02-21T12:37:35Z</time>
      </trkpt>
      <trkpt lat="43.56223" lon="6.62035">
        <ele>191</ele>
        <time>2021-02-21T12:37:36Z</time>
      </trkpt>
      <trkpt lat="43.56223" lon="6.62035">
        <ele>191.3</ele>
        <time>2021-02-21T12:37:38Z</time>
      </trkpt>
      <trkpt lat="43.56223" lon="6.62035">
        <ele>191.5</ele>
        <time>2021-02-21T12:37:39Z</time>
      </trkpt>
      <trkpt lat="43.56223" lon="6.62035">
        <ele>191.9</ele>
        <time>2021-02-21T12:37:40Z</time>
      </trkpt>
      <trkpt lat="43.56223" lon="6.62035">
        <ele>191.5</ele>
        <time>2021-02-21T12:37:45Z</time>
      </trkpt>
      <trkpt lat="43.56223" lon="6.62035">
        <ele>191.4</ele>
        <time>2021-02-21T12:37:46Z</time>
      </trkpt>
      <trkpt lat="43.56223" lon="6.62036">
        <ele>191.3</ele>
        <time>2021-02-21T12:37:47Z</time>
      </trkpt>
      <trkpt lat="43.56231" lon="6.62042">
        <ele>192.6</ele>
        <time>2021-02-21T12:38:04Z</time>
      </trkpt>
      <trkpt lat="43.56238" lon="6.62052">
        <ele>192.7</ele>
        <time>2021-02-21T12:38:15Z</time>
      </trkpt>
      <trkpt lat="43.56246" lon="6.62058">
        <ele>193.6</ele>
        <time>2021-02-21T12:38:27Z</time>
      </trkpt>
      <trkpt lat="43.56254" lon="6.62064">
        <ele>195.1</ele>
        <time>2021-02-21T12:38:38Z</time>
      </trkpt>
      <trkpt lat="43.56263" lon="6.62068">
        <ele>197</ele>
        <time>2021-02-21T12:38:48Z</time>
      </trkpt>
      <trkpt lat="43.56269" lon="6.62078">
        <ele>197.1</ele>
        <time>2021-02-21T12:39:00Z</time>
      </trkpt>
      <trkpt lat="43.5627" lon="6.62091">
        <ele>197.8</ele>
        <time>2021-02-21T12:39:11Z</time>
      </trkpt>
      <trkpt lat="43.56273" lon="6.62103">
        <ele>199.1</ele>
        <time>2021-02-21T12:39:22Z</time>
      </trkpt>
      <trkpt lat="43.56275" lon="6.62116">
        <ele>200.3</ele>
        <time>2021-02-21T12:39:34Z</time>
      </trkpt>
      <trkpt lat="43.56279" lon="6.62127">
        <ele>199.9</ele>
        <time>2021-02-21T12:39:42Z</time>
      </trkpt>
      <trkpt lat="43.56282" lon="6.62129">
        <ele>200</ele>
        <time>2021-02-21T12:39:49Z</time>
      </trkpt>
      <trkpt lat="43.56282" lon="6.62129">
        <ele>200.2</ele>
        <time>2021-02-21T12:39:50Z</time>
      </trkpt>
      <trkpt lat="43.56284" lon="6.6213">
        <ele>199.7</ele>
        <time>2021-02-21T12:39:58Z</time>
      </trkpt>
      <trkpt lat="43.56284" lon="6.6213">
        <ele>199.5</ele>
        <time>2021-02-21T12:39:59Z</time>
      </trkpt>
      <trkpt lat="43.56287" lon="6.62129">
        <ele>200</ele>
        <time>2021-02-21T12:40:08Z</time>
      </trkpt>
      <trkpt lat="43.56287" lon="6.62129">
        <ele>200.3</ele>
        <time>2021-02-21T12:40:09Z</time>
      </trkpt>
      <trkpt lat="43.56287" lon="6.62131">
        <ele>200.7</ele>
        <time>2021-02-21T12:40:12Z</time>
      </trkpt>
      <trkpt lat="43.56287" lon="6.62131">
        <ele>200.9</ele>
        <time>2021-02-21T12:40:13Z</time>
      </trkpt>
      <trkpt lat="43.56286" lon="6.62131">
        <ele>200.4</ele>
        <time>2021-02-21T12:40:17Z</time>
      </trkpt>
      <trkpt lat="43.56286" lon="6.62131">
        <ele>199.7</ele>
        <time>2021-02-21T12:40:19Z</time>
      </trkpt>
      <trkpt lat="43.56284" lon="6.62133">
        <ele>200.8</ele>
        <time>2021-02-21T12:40:26Z</time>
      </trkpt>
      <trkpt lat="43.56283" lon="6.62133">
        <ele>201</ele>
        <time>2021-02-21T12:40:27Z</time>
      </trkpt>
      <trkpt lat="43.56286" lon="6.62145">
        <ele>202.3</ele>
        <time>2021-02-21T12:40:41Z</time>
      </trkpt>
      <trkpt lat="43.56293" lon="6.62155">
        <ele>203.5</ele>
        <time>2021-02-21T12:40:52Z</time>
      </trkpt>
      <trkpt lat="43.56297" lon="6.62167">
        <ele>203.9</ele>
        <time>2021-02-21T12:41:02Z</time>
      </trkpt>
      <trkpt lat="43.56305" lon="6.62176">
        <ele>204.7</ele>
        <time>2021-02-21T12:41:12Z</time>
      </trkpt>
      <trkpt lat="43.56312" lon="6.62184">
        <ele>205.1</ele>
        <time>2021-02-21T12:41:22Z</time>
      </trkpt>
      <trkpt lat="43.56316" lon="6.62196">
        <ele>205.6</ele>
        <time>2021-02-21T12:41:32Z</time>
      </trkpt>
      <trkpt lat="43.5632" lon="6.62208">
        <ele>205.5</ele>
        <time>2021-02-21T12:41:41Z</time>
      </trkpt>
      <trkpt lat="43.56326" lon="6.62219">
        <ele>206.6</ele>
        <time>2021-02-21T12:41:48Z</time>
      </trkpt>
      <trkpt lat="43.56333" lon="6.62228">
        <ele>207.1</ele>
        <time>2021-02-21T12:41:54Z</time>
      </trkpt>
      <trkpt lat="43.5634" lon="6.62237">
        <ele>207.8</ele>
        <time>2021-02-21T12:42:03Z</time>
      </trkpt>
      <trkpt lat="43.56347" lon="6.62246">
        <ele>208.1</ele>
        <time>2021-02-21T12:42:11Z</time>
      </trkpt>
      <trkpt lat="43.56356" lon="6.62253">
        <ele>208.3</ele>
        <time>2021-02-21T12:42:18Z</time>
      </trkpt>
      <trkpt lat="43.56366" lon="6.62257">
        <ele>208.3</ele>
        <time>2021-02-21T12:42:26Z</time>
      </trkpt>
      <trkpt lat="43.56375" lon="6.62264">
        <ele>208.5</ele>
        <time>2021-02-21T12:42:34Z</time>
      </trkpt>
      <trkpt lat="43.56384" lon="6.62268">
        <ele>208.5</ele>
        <time>2021-02-21T12:42:42Z</time>
      </trkpt>
      <trkpt lat="43.56392" lon="6.62274">
        <ele>208.5</ele>
        <time>2021-02-21T12:42:50Z</time>
      </trkpt>
      <trkpt lat="43.56402" lon="6.62276">
        <ele>208.6</ele>
        <time>2021-02-21T12:42:59Z</time>
      </trkpt>
      <trkpt lat="43.56411" lon="6.62275">
        <ele>209.1</ele>
        <time>2021-02-21T12:43:07Z</time>
      </trkpt>
      <trkpt lat="43.56421" lon="6.62276">
        <ele>208.9</ele>
        <time>2021-02-21T12:43:15Z</time>
      </trkpt>
      <trkpt lat="43.56429" lon="6.62278">
        <ele>209.3</ele>
        <time>2021-02-21T12:43:24Z</time>
      </trkpt>
      <trkpt lat="43.56439" lon="6.6228">
        <ele>209.7</ele>
        <time>2021-02-21T12:43:34Z</time>
      </trkpt>
      <trkpt lat="43.56448" lon="6.62281">
        <ele>209.9</ele>
        <time>2021-02-21T12:43:43Z</time>
      </trkpt>
      <trkpt lat="43.56457" lon="6.62283">
        <ele>210.5</ele>
        <time>2021-02-21T12:43:51Z</time>
      </trkpt>
      <trkpt lat="43.56466" lon="6.62285">
        <ele>211.7</ele>
        <time>2021-02-21T12:44:02Z</time>
      </trkpt>
      <trkpt lat="43.56475" lon="6.62288">
        <ele>213.5</ele>
        <time>2021-02-21T12:44:12Z</time>
      </trkpt>
      <trkpt lat="43.56485" lon="6.6229">
        <ele>214.6</ele>
        <time>2021-02-21T12:44:23Z</time>
      </trkpt>
      <trkpt lat="43.56494" lon="6.62291">
        <ele>215.4</ele>
        <time>2021-02-21T12:44:32Z</time>
      </trkpt>
      <trkpt lat="43.565" lon="6.6229">
        <ele>214.5</ele>
        <time>2021-02-21T12:44:40Z</time>
      </trkpt>
      <trkpt lat="43.565" lon="6.62291">
        <ele>214.3</ele>
        <time>2021-02-21T12:44:44Z</time>
      </trkpt>
      <trkpt lat="43.565" lon="6.6229">
        <ele>214.5</ele>
        <time>2021-02-21T12:44:45Z</time>
      </trkpt>
      <trkpt lat="43.565" lon="6.6229">
        <ele>214.4</ele>
        <time>2021-02-21T12:44:47Z</time>
      </trkpt>
      <trkpt lat="43.56499" lon="6.62292">
        <ele>214.9</ele>
        <time>2021-02-21T12:44:56Z</time>
      </trkpt>
      <trkpt lat="43.56499" lon="6.62292">
        <ele>215.8</ele>
        <time>2021-02-21T12:44:57Z</time>
      </trkpt>
      <trkpt lat="43.56501" lon="6.62288">
        <ele>216.3</ele>
        <time>2021-02-21T12:45:01Z</time>
      </trkpt>
      <trkpt lat="43.56501" lon="6.62288">
        <ele>217</ele>
        <time>2021-02-21T12:45:16Z</time>
      </trkpt>
      <trkpt lat="43.56502" lon="6.62288">
        <ele>218.7</ele>
        <time>2021-02-21T12:45:24Z</time>
      </trkpt>
      <trkpt lat="43.56502" lon="6.62288">
        <ele>214.9</ele>
        <time>2021-02-21T12:46:01Z</time>
      </trkpt>
      <trkpt lat="43.56502" lon="6.62288">
        <ele>215.1</ele>
        <time>2021-02-21T12:46:02Z</time>
      </trkpt>
      <trkpt lat="43.56502" lon="6.62288">
        <ele>215.7</ele>
        <time>2021-02-21T12:46:11Z</time>
      </trkpt>
      <trkpt lat="43.56502" lon="6.62288">
        <ele>215.6</ele>
        <time>2021-02-21T12:46:12Z</time>
      </trkpt>
      <trkpt lat="43.56502" lon="6.62288">
        <ele>216.4</ele>
        <time>2021-02-21T12:46:25Z</time>
      </trkpt>
      <trkpt lat="43.56502" lon="6.62287">
        <ele>217.2</ele>
        <time>2021-02-21T12:46:28Z</time>
      </trkpt>
      <trkpt lat="43.56502" lon="6.62288">
        <ele>215.5</ele>
        <time>2021-02-21T12:46:38Z</time>
      </trkpt>
      <trkpt lat="43.56502" lon="6.62288">
        <ele>215.4</ele>
        <time>2021-02-21T12:46:39Z</time>
      </trkpt>
      <trkpt lat="43.56502" lon="6.62287">
        <ele>216.5</ele>
        <time>2021-02-21T12:46:48Z</time>
      </trkpt>
      <trkpt lat="43.56502" lon="6.62287">
        <ele>216.7</ele>
        <time>2021-02-21T12:46:49Z</time>
      </trkpt>
      <trkpt lat="43.56502" lon="6.62286">
        <ele>216.9</ele>
        <time>2021-02-21T12:46:51Z</time>
      </trkpt>
      <trkpt lat="43.56502" lon="6.62286">
        <ele>216.8</ele>
        <time>2021-02-21T12:46:55Z</time>
      </trkpt>
      <trkpt lat="43.56502" lon="6.62286">
        <ele>216.5</ele>
        <time>2021-02-21T12:46:58Z</time>
      </trkpt>
      <trkpt lat="43.56503" lon="6.62285">
        <ele>216.1</ele>
        <time>2021-02-21T12:47:01Z</time>
      </trkpt>
      <trkpt lat="43.56503" lon="6.62285">
        <ele>215.8</ele>
        <time>2021-02-21T12:47:03Z</time>
      </trkpt>
      <trkpt lat="43.56513" lon="6.62282">
        <ele>216.7</ele>
        <time>2021-02-21T12:47:13Z</time>
      </trkpt>
      <trkpt lat="43.56522" lon="6.62276">
        <ele>216.9</ele>
        <time>2021-02-21T12:47:22Z</time>
      </trkpt>
      <trkpt lat="43.5653" lon="6.6227">
        <ele>217</ele>
        <time>2021-02-21T12:47:31Z</time>
      </trkpt>
      <trkpt lat="43.56538" lon="6.62262">
        <ele>218.3</ele>
        <time>2021-02-21T12:47:43Z</time>
      </trkpt>
      <trkpt lat="43.56545" lon="6.62256">
        <ele>218.8</ele>
        <time>2021-02-21T12:47:53Z</time>
      </trkpt>
      <trkpt lat="43.56545" lon="6.62255">
        <ele>218.8</ele>
        <time>2021-02-21T12:47:54Z</time>
      </trkpt>
      <trkpt lat="43.56554" lon="6.62251">
        <ele>219.4</ele>
        <time>2021-02-21T12:48:01Z</time>
      </trkpt>
      <trkpt lat="43.56563" lon="6.62244">
        <ele>220.7</ele>
        <time>2021-02-21T12:48:09Z</time>
      </trkpt>
      <trkpt lat="43.56572" lon="6.62239">
        <ele>220.7</ele>
        <time>2021-02-21T12:48:19Z</time>
      </trkpt>
      <trkpt lat="43.5658" lon="6.62233">
        <ele>221.3</ele>
        <time>2021-02-21T12:48:26Z</time>
      </trkpt>
      <trkpt lat="43.56589" lon="6.6223">
        <ele>221.7</ele>
        <time>2021-02-21T12:48:37Z</time>
      </trkpt>
      <trkpt lat="43.56598" lon="6.62227">
        <ele>222.4</ele>
        <time>2021-02-21T12:48:48Z</time>
      </trkpt>
      <trkpt lat="43.56608" lon="6.62226">
        <ele>223.5</ele>
        <time>2021-02-21T12:49:03Z</time>
      </trkpt>
      <trkpt lat="43.56617" lon="6.62225">
        <ele>224.1</ele>
        <time>2021-02-21T12:49:11Z</time>
      </trkpt>
      <trkpt lat="43.56627" lon="6.62229">
        <ele>225.1</ele>
        <time>2021-02-21T12:49:22Z</time>
      </trkpt>
      <trkpt lat="43.56636" lon="6.62231">
        <ele>225.4</ele>
        <time>2021-02-21T12:49:30Z</time>
      </trkpt>
      <trkpt lat="43.56646" lon="6.62231">
        <ele>226.2</ele>
        <time>2021-02-21T12:49:38Z</time>
      </trkpt>
      <trkpt lat="43.56654" lon="6.62227">
        <ele>226.9</ele>
        <time>2021-02-21T12:49:47Z</time>
      </trkpt>
      <trkpt lat="43.56662" lon="6.6222">
        <ele>227.9</ele>
        <time>2021-02-21T12:49:56Z</time>
      </trkpt>
      <trkpt lat="43.56666" lon="6.62219">
        <ele>228.5</ele>
        <time>2021-02-21T12:50:04Z</time>
      </trkpt>
      <trkpt lat="43.56666" lon="6.62219">
        <ele>228.4</ele>
        <time>2021-02-21T12:50:05Z</time>
      </trkpt>
      <trkpt lat="43.56666" lon="6.62219">
        <ele>228.4</ele>
        <time>2021-02-21T12:50:06Z</time>
      </trkpt>
      <trkpt lat="43.56666" lon="6.62218">
        <ele>228.6</ele>
        <time>2021-02-21T12:50:08Z</time>
      </trkpt>
      <trkpt lat="43.56667" lon="6.62218">
        <ele>228.4</ele>
        <time>2021-02-21T12:50:10Z</time>
      </trkpt>
      <trkpt lat="43.56667" lon="6.62218">
        <ele>228.2</ele>
        <time>2021-02-21T12:50:12Z</time>
      </trkpt>
      <trkpt lat="43.56675" lon="6.62212">
        <ele>228.7</ele>
        <time>2021-02-21T12:50:23Z</time>
      </trkpt>
      <trkpt lat="43.56684" lon="6.62212">
        <ele>229.9</ele>
        <time>2021-02-21T12:50:33Z</time>
      </trkpt>
      <trkpt lat="43.56693" lon="6.62217">
        <ele>229.4</ele>
        <time>2021-02-21T12:50:42Z</time>
      </trkpt>
      <trkpt lat="43.56699" lon="6.62225">
        <ele>230.9</ele>
        <time>2021-02-21T12:50:51Z</time>
      </trkpt>
      <trkpt lat="43.56706" lon="6.62234">
        <ele>232</ele>
        <time>2021-02-21T12:51:00Z</time>
      </trkpt>
      <trkpt lat="43.5671" lon="6.62246">
        <ele>232.8</ele>
        <time>2021-02-21T12:51:12Z</time>
      </trkpt>
      <trkpt lat="43.56708" lon="6.6226">
        <ele>233</ele>
        <time>2021-02-21T12:51:21Z</time>
      </trkpt>
      <trkpt lat="43.56705" lon="6.62265">
        <ele>232.3</ele>
        <time>2021-02-21T12:51:27Z</time>
      </trkpt>
      <trkpt lat="43.56705" lon="6.62265">
        <ele>231.9</ele>
        <time>2021-02-21T12:51:28Z</time>
      </trkpt>
      <trkpt lat="43.56698" lon="6.62276">
        <ele>233.7</ele>
        <time>2021-02-21T12:51:36Z</time>
      </trkpt>
      <trkpt lat="43.56692" lon="6.62287">
        <ele>233.8</ele>
        <time>2021-02-21T12:51:45Z</time>
      </trkpt>
      <trkpt lat="43.56687" lon="6.62299">
        <ele>233.7</ele>
        <time>2021-02-21T12:51:53Z</time>
      </trkpt>
      <trkpt lat="43.56684" lon="6.62312">
        <ele>234.8</ele>
        <time>2021-02-21T12:52:06Z</time>
      </trkpt>
      <trkpt lat="43.56678" lon="6.62322">
        <ele>234.5</ele>
        <time>2021-02-21T12:52:16Z</time>
      </trkpt>
      <trkpt lat="43.56673" lon="6.62333">
        <ele>234.8</ele>
        <time>2021-02-21T12:52:23Z</time>
      </trkpt>
      <trkpt lat="43.56669" lon="6.62344">
        <ele>236.1</ele>
        <time>2021-02-21T12:52:30Z</time>
      </trkpt>
      <trkpt lat="43.56668" lon="6.62358">
        <ele>235.1</ele>
        <time>2021-02-21T12:52:39Z</time>
      </trkpt>
      <trkpt lat="43.56668" lon="6.62371">
        <ele>235.9</ele>
        <time>2021-02-21T12:52:48Z</time>
      </trkpt>
      <trkpt lat="43.56666" lon="6.62383">
        <ele>236.7</ele>
        <time>2021-02-21T12:52:55Z</time>
      </trkpt>
      <trkpt lat="43.56668" lon="6.62396">
        <ele>236.6</ele>
        <time>2021-02-21T12:53:04Z</time>
      </trkpt>
      <trkpt lat="43.56671" lon="6.62409">
        <ele>238.3</ele>
        <time>2021-02-21T12:53:14Z</time>
      </trkpt>
      <trkpt lat="43.56678" lon="6.62418">
        <ele>239.5</ele>
        <time>2021-02-21T12:53:23Z</time>
      </trkpt>
      <trkpt lat="43.56686" lon="6.62423">
        <ele>239.9</ele>
        <time>2021-02-21T12:53:32Z</time>
      </trkpt>
      <trkpt lat="43.56696" lon="6.62426">
        <ele>240.4</ele>
        <time>2021-02-21T12:53:42Z</time>
      </trkpt>
      <trkpt lat="43.56705" lon="6.62425">
        <ele>240.9</ele>
        <time>2021-02-21T12:53:51Z</time>
      </trkpt>
      <trkpt lat="43.56715" lon="6.6242">
        <ele>240.8</ele>
        <time>2021-02-21T12:54:02Z</time>
      </trkpt>
      <trkpt lat="43.56723" lon="6.62417">
        <ele>241.3</ele>
        <time>2021-02-21T12:54:10Z</time>
      </trkpt>
      <trkpt lat="43.56732" lon="6.6241">
        <ele>242.1</ele>
        <time>2021-02-21T12:54:18Z</time>
      </trkpt>
      <trkpt lat="43.56741" lon="6.62403">
        <ele>242.5</ele>
        <time>2021-02-21T12:54:26Z</time>
      </trkpt>
      <trkpt lat="43.56749" lon="6.62398">
        <ele>242.7</ele>
        <time>2021-02-21T12:54:34Z</time>
      </trkpt>
      <trkpt lat="43.56758" lon="6.62391">
        <ele>243.5</ele>
        <time>2021-02-21T12:54:43Z</time>
      </trkpt>
      <trkpt lat="43.56767" lon="6.62387">
        <ele>244</ele>
        <time>2021-02-21T12:54:53Z</time>
      </trkpt>
      <trkpt lat="43.56777" lon="6.62386">
        <ele>244.3</ele>
        <time>2021-02-21T12:55:01Z</time>
      </trkpt>
      <trkpt lat="43.56787" lon="6.62384">
        <ele>244.9</ele>
        <time>2021-02-21T12:55:09Z</time>
      </trkpt>
      <trkpt lat="43.56796" lon="6.62382">
        <ele>244.9</ele>
        <time>2021-02-21T12:55:18Z</time>
      </trkpt>
      <trkpt lat="43.56805" lon="6.62383">
        <ele>245.7</ele>
        <time>2021-02-21T12:55:25Z</time>
      </trkpt>
      <trkpt lat="43.56814" lon="6.62384">
        <ele>246.2</ele>
        <time>2021-02-21T12:55:36Z</time>
      </trkpt>
      <trkpt lat="43.56823" lon="6.62388">
        <ele>246.9</ele>
        <time>2021-02-21T12:55:44Z</time>
      </trkpt>
      <trkpt lat="43.56831" lon="6.62395">
        <ele>246.8</ele>
        <time>2021-02-21T12:55:52Z</time>
      </trkpt>
      <trkpt lat="43.56839" lon="6.62403">
        <ele>246.9</ele>
        <time>2021-02-21T12:56:01Z</time>
      </trkpt>
      <trkpt lat="43.56845" lon="6.62412">
        <ele>246.6</ele>
        <time>2021-02-21T12:56:12Z</time>
      </trkpt>
      <trkpt lat="43.56846" lon="6.62413">
        <ele>246.6</ele>
        <time>2021-02-21T12:56:20Z</time>
      </trkpt>
      <trkpt lat="43.56845" lon="6.62413">
        <ele>246.6</ele>
        <time>2021-02-21T12:56:21Z</time>
      </trkpt>
      <trkpt lat="43.56845" lon="6.62413">
        <ele>247.9</ele>
        <time>2021-02-21T12:56:23Z</time>
      </trkpt>
      <trkpt lat="43.56846" lon="6.62414">
        <ele>248.8</ele>
        <time>2021-02-21T12:56:24Z</time>
      </trkpt>
      <trkpt lat="43.56846" lon="6.62413">
        <ele>248.7</ele>
        <time>2021-02-21T12:56:25Z</time>
      </trkpt>
      <trkpt lat="43.56846" lon="6.62413">
        <ele>248.5</ele>
        <time>2021-02-21T12:56:26Z</time>
      </trkpt>
      <trkpt lat="43.56847" lon="6.62413">
        <ele>248</ele>
        <time>2021-02-21T12:56:30Z</time>
      </trkpt>
      <trkpt lat="43.56847" lon="6.62413">
        <ele>247.5</ele>
        <time>2021-02-21T12:56:31Z</time>
      </trkpt>
      <trkpt lat="43.56849" lon="6.62413">
        <ele>248</ele>
        <time>2021-02-21T12:56:38Z</time>
      </trkpt>
      <trkpt lat="43.56848" lon="6.62413">
        <ele>247.9</ele>
        <time>2021-02-21T12:57:09Z</time>
      </trkpt>
      <trkpt lat="43.56848" lon="6.62413">
        <ele>247.8</ele>
        <time>2021-02-21T12:57:10Z</time>
      </trkpt>
      <trkpt lat="43.56848" lon="6.62413">
        <ele>247.6</ele>
        <time>2021-02-21T12:57:18Z</time>
      </trkpt>
      <trkpt lat="43.56848" lon="6.62413">
        <ele>247.8</ele>
        <time>2021-02-21T12:57:19Z</time>
      </trkpt>
      <trkpt lat="43.56848" lon="6.62413">
        <ele>248.2</ele>
        <time>2021-02-21T12:57:20Z</time>
      </trkpt>
      <trkpt lat="43.56848" lon="6.62413">
        <ele>248.5</ele>
        <time>2021-02-21T12:57:21Z</time>
      </trkpt>
      <trkpt lat="43.56848" lon="6.62413">
        <ele>247.8</ele>
        <time>2021-02-21T12:57:24Z</time>
      </trkpt>
      <trkpt lat="43.56849" lon="6.62412">
        <ele>248</ele>
        <time>2021-02-21T12:57:27Z</time>
      </trkpt>
      <trkpt lat="43.56848" lon="6.62413">
        <ele>247.9</ele>
        <time>2021-02-21T12:57:32Z</time>
      </trkpt>
      <trkpt lat="43.56847" lon="6.62413">
        <ele>248</ele>
        <time>2021-02-21T12:57:40Z</time>
      </trkpt>
      <trkpt lat="43.56847" lon="6.62412">
        <ele>248.3</ele>
        <time>2021-02-21T12:57:41Z</time>
      </trkpt>
      <trkpt lat="43.56846" lon="6.62412">
        <ele>248.8</ele>
        <time>2021-02-21T12:57:43Z</time>
      </trkpt>
      <trkpt lat="43.56846" lon="6.62412">
        <ele>248.9</ele>
        <time>2021-02-21T12:57:44Z</time>
      </trkpt>
      <trkpt lat="43.56848" lon="6.62411">
        <ele>248.2</ele>
        <time>2021-02-21T12:57:59Z</time>
      </trkpt>
      <trkpt lat="43.56848" lon="6.62411">
        <ele>246.8</ele>
        <time>2021-02-21T12:58:04Z</time>
      </trkpt>
      <trkpt lat="43.56854" lon="6.62421">
        <ele>248.2</ele>
        <time>2021-02-21T12:58:17Z</time>
      </trkpt>
      <trkpt lat="43.56854" lon="6.62424">
        <ele>249.9</ele>
        <time>2021-02-21T12:58:23Z</time>
      </trkpt>
      <trkpt lat="43.56854" lon="6.62424">
        <ele>249</ele>
        <time>2021-02-21T12:58:34Z</time>
      </trkpt>
      <trkpt lat="43.5686" lon="6.62435">
        <ele>248.7</ele>
        <time>2021-02-21T12:58:46Z</time>
      </trkpt>
      <trkpt lat="43.56861" lon="6.62449">
        <ele>249.3</ele>
        <time>2021-02-21T12:58:55Z</time>
      </trkpt>
      <trkpt lat="43.56864" lon="6.62462">
        <ele>248.9</ele>
        <time>2021-02-21T12:59:03Z</time>
      </trkpt>
      <trkpt lat="43.56866" lon="6.62474">
        <ele>248.6</ele>
        <time>2021-02-21T12:59:11Z</time>
      </trkpt>
      <trkpt lat="43.56866" lon="6.62488">
        <ele>248.8</ele>
        <time>2021-02-21T12:59:21Z</time>
      </trkpt>
      <trkpt lat="43.56866" lon="6.62501">
        <ele>247.3</ele>
        <time>2021-02-21T12:59:30Z</time>
      </trkpt>
      <trkpt lat="43.56868" lon="6.62514">
        <ele>244.9</ele>
        <time>2021-02-21T12:59:38Z</time>
      </trkpt>
      <trkpt lat="43.56866" lon="6.62527">
        <ele>244.5</ele>
        <time>2021-02-21T12:59:48Z</time>
      </trkpt>
      <trkpt lat="43.56868" lon="6.6254">
        <ele>244.4</ele>
        <time>2021-02-21T12:59:57Z</time>
      </trkpt>
      <trkpt lat="43.56871" lon="6.62553">
        <ele>244.3</ele>
        <time>2021-02-21T13:00:06Z</time>
      </trkpt>
      <trkpt lat="43.56874" lon="6.62564">
        <ele>242.9</ele>
        <time>2021-02-21T13:00:15Z</time>
      </trkpt>
      <trkpt lat="43.56879" lon="6.62576">
        <ele>242.4</ele>
        <time>2021-02-21T13:00:23Z</time>
      </trkpt>
      <trkpt lat="43.56883" lon="6.62587">
        <ele>241.5</ele>
        <time>2021-02-21T13:00:32Z</time>
      </trkpt>
      <trkpt lat="43.56885" lon="6.626">
        <ele>242.1</ele>
        <time>2021-02-21T13:00:41Z</time>
      </trkpt>
      <trkpt lat="43.56886" lon="6.62613">
        <ele>242.1</ele>
        <time>2021-02-21T13:00:49Z</time>
      </trkpt>
      <trkpt lat="43.56886" lon="6.62627">
        <ele>243.4</ele>
        <time>2021-02-21T13:00:58Z</time>
      </trkpt>
      <trkpt lat="43.56883" lon="6.62639">
        <ele>244.5</ele>
        <time>2021-02-21T13:01:07Z</time>
      </trkpt>
      <trkpt lat="43.56884" lon="6.62652">
        <ele>244.7</ele>
        <time>2021-02-21T13:01:16Z</time>
      </trkpt>
      <trkpt lat="43.56884" lon="6.62665">
        <ele>246.3</ele>
        <time>2021-02-21T13:01:25Z</time>
      </trkpt>
      <trkpt lat="43.56885" lon="6.62679">
        <ele>247.2</ele>
        <time>2021-02-21T13:01:33Z</time>
      </trkpt>
      <trkpt lat="43.56885" lon="6.62691">
        <ele>247.9</ele>
        <time>2021-02-21T13:01:42Z</time>
      </trkpt>
      <trkpt lat="43.56884" lon="6.62704">
        <ele>248.7</ele>
        <time>2021-02-21T13:01:50Z</time>
      </trkpt>
      <trkpt lat="43.56888" lon="6.62715">
        <ele>248.8</ele>
        <time>2021-02-21T13:01:58Z</time>
      </trkpt>
      <trkpt lat="43.5689" lon="6.62728">
        <ele>249.8</ele>
        <time>2021-02-21T13:02:07Z</time>
      </trkpt>
      <trkpt lat="43.56892" lon="6.6274">
        <ele>251.5</ele>
        <time>2021-02-21T13:02:16Z</time>
      </trkpt>
      <trkpt lat="43.56893" lon="6.62752">
        <ele>252.2</ele>
        <time>2021-02-21T13:02:25Z</time>
      </trkpt>
      <trkpt lat="43.56892" lon="6.62765">
        <ele>250.6</ele>
        <time>2021-02-21T13:02:34Z</time>
      </trkpt>
      <trkpt lat="43.56894" lon="6.62778">
        <ele>254.4</ele>
        <time>2021-02-21T13:02:42Z</time>
      </trkpt>
      <trkpt lat="43.56899" lon="6.6279">
        <ele>253</ele>
        <time>2021-02-21T13:02:52Z</time>
      </trkpt>
      <trkpt lat="43.56902" lon="6.62802">
        <ele>253</ele>
        <time>2021-02-21T13:03:00Z</time>
      </trkpt>
      <trkpt lat="43.56905" lon="6.62815">
        <ele>253</ele>
        <time>2021-02-21T13:03:08Z</time>
      </trkpt>
      <trkpt lat="43.56909" lon="6.62827">
        <ele>253.8</ele>
        <time>2021-02-21T13:03:16Z</time>
      </trkpt>
      <trkpt lat="43.56913" lon="6.62838">
        <ele>256.8</ele>
        <time>2021-02-21T13:03:25Z</time>
      </trkpt>
      <trkpt lat="43.5692" lon="6.62846">
        <ele>252.1</ele>
        <time>2021-02-21T13:03:33Z</time>
      </trkpt>
      <trkpt lat="43.56928" lon="6.62852">
        <ele>251.2</ele>
        <time>2021-02-21T13:03:40Z</time>
      </trkpt>
      <trkpt lat="43.56936" lon="6.62861">
        <ele>251.5</ele>
        <time>2021-02-21T13:03:48Z</time>
      </trkpt>
      <trkpt lat="43.56942" lon="6.62871">
        <ele>250.1</ele>
        <time>2021-02-21T13:03:56Z</time>
      </trkpt>
      <trkpt lat="43.56948" lon="6.62881">
        <ele>249.5</ele>
        <time>2021-02-21T13:04:03Z</time>
      </trkpt>
      <trkpt lat="43.56951" lon="6.62894">
        <ele>249.1</ele>
        <time>2021-02-21T13:04:11Z</time>
      </trkpt>
      <trkpt lat="43.56955" lon="6.62905">
        <ele>249.7</ele>
        <time>2021-02-21T13:04:18Z</time>
      </trkpt>
      <trkpt lat="43.56958" lon="6.62918">
        <ele>250.3</ele>
        <time>2021-02-21T13:04:27Z</time>
      </trkpt>
      <trkpt lat="43.5696" lon="6.62932">
        <ele>251.4</ele>
        <time>2021-02-21T13:04:36Z</time>
      </trkpt>
      <trkpt lat="43.56959" lon="6.62945">
        <ele>252</ele>
        <time>2021-02-21T13:04:44Z</time>
      </trkpt>
      <trkpt lat="43.56959" lon="6.62958">
        <ele>251.8</ele>
        <time>2021-02-21T13:04:53Z</time>
      </trkpt>
      <trkpt lat="43.56959" lon="6.62972">
        <ele>253.1</ele>
        <time>2021-02-21T13:05:04Z</time>
      </trkpt>
      <trkpt lat="43.56957" lon="6.62984">
        <ele>253</ele>
        <time>2021-02-21T13:05:12Z</time>
      </trkpt>
      <trkpt lat="43.56953" lon="6.62997">
        <ele>254.9</ele>
        <time>2021-02-21T13:05:22Z</time>
      </trkpt>
      <trkpt lat="43.56956" lon="6.6301">
        <ele>254</ele>
        <time>2021-02-21T13:05:31Z</time>
      </trkpt>
      <trkpt lat="43.56961" lon="6.63016">
        <ele>255</ele>
        <time>2021-02-21T13:05:43Z</time>
      </trkpt>
      <trkpt lat="43.56961" lon="6.63016">
        <ele>253.9</ele>
        <time>2021-02-21T13:05:47Z</time>
      </trkpt>
      <trkpt lat="43.56961" lon="6.63016">
        <ele>253.7</ele>
        <time>2021-02-21T13:05:49Z</time>
      </trkpt>
      <trkpt lat="43.56961" lon="6.63016">
        <ele>254.5</ele>
        <time>2021-02-21T13:05:57Z</time>
      </trkpt>
      <trkpt lat="43.56961" lon="6.63015">
        <ele>254.2</ele>
        <time>2021-02-21T13:06:01Z</time>
      </trkpt>
      <trkpt lat="43.56961" lon="6.63015">
        <ele>254.2</ele>
        <time>2021-02-21T13:06:03Z</time>
      </trkpt>
      <trkpt lat="43.5696" lon="6.63015">
        <ele>254.2</ele>
        <time>2021-02-21T13:06:08Z</time>
      </trkpt>
      <trkpt lat="43.5696" lon="6.63015">
        <ele>255.4</ele>
        <time>2021-02-21T13:06:20Z</time>
      </trkpt>
      <trkpt lat="43.5696" lon="6.63015">
        <ele>255.7</ele>
        <time>2021-02-21T13:06:22Z</time>
      </trkpt>
      <trkpt lat="43.5696" lon="6.63016">
        <ele>254.9</ele>
        <time>2021-02-21T13:06:33Z</time>
      </trkpt>
      <trkpt lat="43.56961" lon="6.63016">
        <ele>254.6</ele>
        <time>2021-02-21T13:06:36Z</time>
      </trkpt>
      <trkpt lat="43.56961" lon="6.63016">
        <ele>254.6</ele>
        <time>2021-02-21T13:07:00Z</time>
      </trkpt>
      <trkpt lat="43.56965" lon="6.63028">
        <ele>255</ele>
        <time>2021-02-21T13:07:12Z</time>
      </trkpt>
      <trkpt lat="43.56964" lon="6.63041">
        <ele>254.3</ele>
        <time>2021-02-21T13:07:20Z</time>
      </trkpt>
      <trkpt lat="43.56961" lon="6.63054">
        <ele>254.8</ele>
        <time>2021-02-21T13:07:29Z</time>
      </trkpt>
      <trkpt lat="43.5696" lon="6.63067">
        <ele>254.1</ele>
        <time>2021-02-21T13:07:39Z</time>
      </trkpt>
      <trkpt lat="43.56958" lon="6.63081">
        <ele>253.7</ele>
        <time>2021-02-21T13:07:49Z</time>
      </trkpt>
      <trkpt lat="43.56956" lon="6.63093">
        <ele>252.5</ele>
        <time>2021-02-21T13:07:56Z</time>
      </trkpt>
      <trkpt lat="43.56952" lon="6.63104">
        <ele>252.6</ele>
        <time>2021-02-21T13:08:04Z</time>
      </trkpt>
      <trkpt lat="43.56951" lon="6.63117">
        <ele>251.2</ele>
        <time>2021-02-21T13:08:12Z</time>
      </trkpt>
      <trkpt lat="43.56948" lon="6.63129">
        <ele>250.7</ele>
        <time>2021-02-21T13:08:21Z</time>
      </trkpt>
      <trkpt lat="43.56946" lon="6.63142">
        <ele>251.5</ele>
        <time>2021-02-21T13:08:28Z</time>
      </trkpt>
      <trkpt lat="43.56944" lon="6.63155">
        <ele>248.4</ele>
        <time>2021-02-21T13:08:37Z</time>
      </trkpt>
      <trkpt lat="43.56941" lon="6.63168">
        <ele>247.4</ele>
        <time>2021-02-21T13:08:46Z</time>
      </trkpt>
      <trkpt lat="43.56935" lon="6.63178">
        <ele>247.8</ele>
        <time>2021-02-21T13:08:53Z</time>
      </trkpt>
      <trkpt lat="43.56933" lon="6.6319">
        <ele>249.4</ele>
        <time>2021-02-21T13:09:01Z</time>
      </trkpt>
      <trkpt lat="43.5693" lon="6.63203">
        <ele>247.6</ele>
        <time>2021-02-21T13:09:09Z</time>
      </trkpt>
      <trkpt lat="43.56925" lon="6.63214">
        <ele>245.4</ele>
        <time>2021-02-21T13:09:18Z</time>
      </trkpt>
      <trkpt lat="43.56919" lon="6.63226">
        <ele>244.9</ele>
        <time>2021-02-21T13:09:28Z</time>
      </trkpt>
      <trkpt lat="43.56914" lon="6.63237">
        <ele>245.4</ele>
        <time>2021-02-21T13:09:36Z</time>
      </trkpt>
      <trkpt lat="43.56911" lon="6.63249">
        <ele>243.8</ele>
        <time>2021-02-21T13:09:43Z</time>
      </trkpt>
      <trkpt lat="43.56905" lon="6.63259">
        <ele>243.4</ele>
        <time>2021-02-21T13:09:50Z</time>
      </trkpt>
      <trkpt lat="43.56899" lon="6.63271">
        <ele>242.1</ele>
        <time>2021-02-21T13:09:58Z</time>
      </trkpt>
      <trkpt lat="43.56896" lon="6.63283">
        <ele>241.7</ele>
        <time>2021-02-21T13:10:07Z</time>
      </trkpt>
      <trkpt lat="43.56893" lon="6.63295">
        <ele>240.6</ele>
        <time>2021-02-21T13:10:15Z</time>
      </trkpt>
      <trkpt lat="43.56887" lon="6.63306">
        <ele>240.9</ele>
        <time>2021-02-21T13:10:24Z</time>
      </trkpt>
      <trkpt lat="43.5688" lon="6.63315">
        <ele>240.9</ele>
        <time>2021-02-21T13:10:32Z</time>
      </trkpt>
      <trkpt lat="43.56878" lon="6.63328">
        <ele>241.2</ele>
        <time>2021-02-21T13:10:40Z</time>
      </trkpt>
      <trkpt lat="43.56876" lon="6.63341">
        <ele>240.8</ele>
        <time>2021-02-21T13:10:48Z</time>
      </trkpt>
      <trkpt lat="43.56872" lon="6.63354">
        <ele>240.9</ele>
        <time>2021-02-21T13:10:56Z</time>
      </trkpt>
      <trkpt lat="43.56868" lon="6.63366">
        <ele>241</ele>
        <time>2021-02-21T13:11:05Z</time>
      </trkpt>
      <trkpt lat="43.56864" lon="6.63379">
        <ele>241.1</ele>
        <time>2021-02-21T13:11:14Z</time>
      </trkpt>
      <trkpt lat="43.5686" lon="6.63391">
        <ele>241.1</ele>
        <time>2021-02-21T13:11:23Z</time>
      </trkpt>
      <trkpt lat="43.56856" lon="6.63403">
        <ele>241.1</ele>
        <time>2021-02-21T13:11:31Z</time>
      </trkpt>
      <trkpt lat="43.56853" lon="6.63416">
        <ele>241.6</ele>
        <time>2021-02-21T13:11:39Z</time>
      </trkpt>
      <trkpt lat="43.56849" lon="6.63428">
        <ele>242.3</ele>
        <time>2021-02-21T13:11:47Z</time>
      </trkpt>
      <trkpt lat="43.56845" lon="6.6344">
        <ele>243.4</ele>
        <time>2021-02-21T13:11:56Z</time>
      </trkpt>
      <trkpt lat="43.56842" lon="6.63453">
        <ele>243.3</ele>
        <time>2021-02-21T13:12:05Z</time>
      </trkpt>
      <trkpt lat="43.56837" lon="6.63464">
        <ele>244</ele>
        <time>2021-02-21T13:12:14Z</time>
      </trkpt>
      <trkpt lat="43.56832" lon="6.63474">
        <ele>244.8</ele>
        <time>2021-02-21T13:12:23Z</time>
      </trkpt>
      <trkpt lat="43.56827" lon="6.63486">
        <ele>245</ele>
        <time>2021-02-21T13:12:32Z</time>
      </trkpt>
      <trkpt lat="43.5682" lon="6.63494">
        <ele>244.7</ele>
        <time>2021-02-21T13:12:40Z</time>
      </trkpt>
      <trkpt lat="43.56812" lon="6.63501">
        <ele>244.9</ele>
        <time>2021-02-21T13:12:48Z</time>
      </trkpt>
      <trkpt lat="43.56812" lon="6.63501">
        <ele>244.9</ele>
        <time>2021-02-21T13:12:49Z</time>
      </trkpt>
      <trkpt lat="43.56812" lon="6.63501">
        <ele>244.8</ele>
        <time>2021-02-21T13:12:50Z</time>
      </trkpt>
      <trkpt lat="43.56803" lon="6.63508">
        <ele>245.4</ele>
        <time>2021-02-21T13:12:58Z</time>
      </trkpt>
      <trkpt lat="43.56796" lon="6.63516">
        <ele>245.1</ele>
        <time>2021-02-21T13:13:06Z</time>
      </trkpt>
      <trkpt lat="43.56788" lon="6.63522">
        <ele>244.6</ele>
        <time>2021-02-21T13:13:14Z</time>
      </trkpt>
      <trkpt lat="43.56783" lon="6.63533">
        <ele>245.6</ele>
        <time>2021-02-21T13:13:25Z</time>
      </trkpt>
      <trkpt lat="43.56775" lon="6.63541">
        <ele>246.5</ele>
        <time>2021-02-21T13:13:33Z</time>
      </trkpt>
      <trkpt lat="43.56767" lon="6.63549">
        <ele>246.3</ele>
        <time>2021-02-21T13:13:40Z</time>
      </trkpt>
      <trkpt lat="43.56763" lon="6.6356">
        <ele>246.2</ele>
        <time>2021-02-21T13:13:49Z</time>
      </trkpt>
      <trkpt lat="43.56756" lon="6.63569">
        <ele>246.3</ele>
        <time>2021-02-21T13:13:57Z</time>
      </trkpt>
      <trkpt lat="43.56752" lon="6.63582">
        <ele>245.4</ele>
        <time>2021-02-21T13:14:05Z</time>
      </trkpt>
      <trkpt lat="43.5675" lon="6.63595">
        <ele>246</ele>
        <time>2021-02-21T13:14:15Z</time>
      </trkpt>
      <trkpt lat="43.56743" lon="6.63603">
        <ele>245.3</ele>
        <time>2021-02-21T13:14:23Z</time>
      </trkpt>
      <trkpt lat="43.56736" lon="6.63612">
        <ele>244.4</ele>
        <time>2021-02-21T13:14:31Z</time>
      </trkpt>
      <trkpt lat="43.56728" lon="6.63621">
        <ele>243.8</ele>
        <time>2021-02-21T13:14:41Z</time>
      </trkpt>
      <trkpt lat="43.56721" lon="6.63629">
        <ele>242.8</ele>
        <time>2021-02-21T13:14:49Z</time>
      </trkpt>
      <trkpt lat="43.56716" lon="6.6364">
        <ele>242.7</ele>
        <time>2021-02-21T13:14:58Z</time>
      </trkpt>
      <trkpt lat="43.56711" lon="6.63651">
        <ele>241.9</ele>
        <time>2021-02-21T13:15:06Z</time>
      </trkpt>
      <trkpt lat="43.56704" lon="6.63661">
        <ele>242.5</ele>
        <time>2021-02-21T13:15:14Z</time>
      </trkpt>
      <trkpt lat="43.56698" lon="6.63673">
        <ele>241.3</ele>
        <time>2021-02-21T13:15:21Z</time>
      </trkpt>
      <trkpt lat="43.56695" lon="6.63686">
        <ele>241</ele>
        <time>2021-02-21T13:15:27Z</time>
      </trkpt>
      <trkpt lat="43.5669" lon="6.63697">
        <ele>239.9</ele>
        <time>2021-02-21T13:15:36Z</time>
      </trkpt>
      <trkpt lat="43.56686" lon="6.63709">
        <ele>240.2</ele>
        <time>2021-02-21T13:15:43Z</time>
      </trkpt>
      <trkpt lat="43.56683" lon="6.63722">
        <ele>239.6</ele>
        <time>2021-02-21T13:15:51Z</time>
      </trkpt>
      <trkpt lat="43.5668" lon="6.63734">
        <ele>238.2</ele>
        <time>2021-02-21T13:16:00Z</time>
      </trkpt>
      <trkpt lat="43.56675" lon="6.63747">
        <ele>238</ele>
        <time>2021-02-21T13:16:08Z</time>
      </trkpt>
      <trkpt lat="43.56671" lon="6.63759">
        <ele>236.9</ele>
        <time>2021-02-21T13:16:16Z</time>
      </trkpt>
      <trkpt lat="43.56667" lon="6.63771">
        <ele>236.4</ele>
        <time>2021-02-21T13:16:23Z</time>
      </trkpt>
      <trkpt lat="43.56665" lon="6.63783">
        <ele>235.7</ele>
        <time>2021-02-21T13:16:31Z</time>
      </trkpt>
      <trkpt lat="43.56665" lon="6.63796">
        <ele>235</ele>
        <time>2021-02-21T13:16:39Z</time>
      </trkpt>
      <trkpt lat="43.56664" lon="6.63809">
        <ele>236.3</ele>
        <time>2021-02-21T13:16:47Z</time>
      </trkpt>
      <trkpt lat="43.56662" lon="6.63821">
        <ele>234.2</ele>
        <time>2021-02-21T13:16:55Z</time>
      </trkpt>
      <trkpt lat="43.56657" lon="6.63832">
        <ele>232.9</ele>
        <time>2021-02-21T13:17:05Z</time>
      </trkpt>
      <trkpt lat="43.56652" lon="6.63845">
        <ele>233.6</ele>
        <time>2021-02-21T13:17:13Z</time>
      </trkpt>
      <trkpt lat="43.56646" lon="6.63856">
        <ele>232.2</ele>
        <time>2021-02-21T13:17:20Z</time>
      </trkpt>
      <trkpt lat="43.5664" lon="6.63867">
        <ele>231.8</ele>
        <time>2021-02-21T13:17:29Z</time>
      </trkpt>
      <trkpt lat="43.5664" lon="6.63869">
        <ele>231.1</ele>
        <time>2021-02-21T13:17:33Z</time>
      </trkpt>
      <trkpt lat="43.5664" lon="6.63868">
        <ele>231</ele>
        <time>2021-02-21T13:17:34Z</time>
      </trkpt>
      <trkpt lat="43.56631" lon="6.63875">
        <ele>230.7</ele>
        <time>2021-02-21T13:17:44Z</time>
      </trkpt>
      <trkpt lat="43.56624" lon="6.63883">
        <ele>230.7</ele>
        <time>2021-02-21T13:17:54Z</time>
      </trkpt>
      <trkpt lat="43.56616" lon="6.63891">
        <ele>230.5</ele>
        <time>2021-02-21T13:18:03Z</time>
      </trkpt>
      <trkpt lat="43.5661" lon="6.63902">
        <ele>230.5</ele>
        <time>2021-02-21T13:18:11Z</time>
      </trkpt>
      <trkpt lat="43.56605" lon="6.63914">
        <ele>229.2</ele>
        <time>2021-02-21T13:18:19Z</time>
      </trkpt>
      <trkpt lat="43.56603" lon="6.63927">
        <ele>228.2</ele>
        <time>2021-02-21T13:18:27Z</time>
      </trkpt>
      <trkpt lat="43.56603" lon="6.63939">
        <ele>227.6</ele>
        <time>2021-02-21T13:18:35Z</time>
      </trkpt>
      <trkpt lat="43.56603" lon="6.63952">
        <ele>227.3</ele>
        <time>2021-02-21T13:18:44Z</time>
      </trkpt>
      <trkpt lat="43.56605" lon="6.63958">
        <ele>226.4</ele>
        <time>2021-02-21T13:18:53Z</time>
      </trkpt>
      <trkpt lat="43.56604" lon="6.63958">
        <ele>226.3</ele>
        <time>2021-02-21T13:19:04Z</time>
      </trkpt>
      <trkpt lat="43.56604" lon="6.6396">
        <ele>226.3</ele>
        <time>2021-02-21T13:19:08Z</time>
      </trkpt>
      <trkpt lat="43.56604" lon="6.6396">
        <ele>226.4</ele>
        <time>2021-02-21T13:19:09Z</time>
      </trkpt>
      <trkpt lat="43.56605" lon="6.63961">
        <ele>226.9</ele>
        <time>2021-02-21T13:19:12Z</time>
      </trkpt>
      <trkpt lat="43.56605" lon="6.63961">
        <ele>226.9</ele>
        <time>2021-02-21T13:19:14Z</time>
      </trkpt>
      <trkpt lat="43.56605" lon="6.63961">
        <ele>227.2</ele>
        <time>2021-02-21T13:19:15Z</time>
      </trkpt>
      <trkpt lat="43.56604" lon="6.63961">
        <ele>226.2</ele>
        <time>2021-02-21T13:19:19Z</time>
      </trkpt>
      <trkpt lat="43.56604" lon="6.6396">
        <ele>226.4</ele>
        <time>2021-02-21T13:19:22Z</time>
      </trkpt>
      <trkpt lat="43.56604" lon="6.6396">
        <ele>226.4</ele>
        <time>2021-02-21T13:19:27Z</time>
      </trkpt>
      <trkpt lat="43.56604" lon="6.6396">
        <ele>226.5</ele>
        <time>2021-02-21T13:19:28Z</time>
      </trkpt>
      <trkpt lat="43.56604" lon="6.6396">
        <ele>225.7</ele>
        <time>2021-02-21T13:19:43Z</time>
      </trkpt>
      <trkpt lat="43.56604" lon="6.6396">
        <ele>225.7</ele>
        <time>2021-02-21T13:19:44Z</time>
      </trkpt>
      <trkpt lat="43.56604" lon="6.63961">
        <ele>226.2</ele>
        <time>2021-02-21T13:19:51Z</time>
      </trkpt>
      <trkpt lat="43.56604" lon="6.63962">
        <ele>226</ele>
        <time>2021-02-21T13:19:55Z</time>
      </trkpt>
      <trkpt lat="43.56604" lon="6.63963">
        <ele>225.6</ele>
        <time>2021-02-21T13:20:00Z</time>
      </trkpt>
      <trkpt lat="43.56604" lon="6.63963">
        <ele>225.6</ele>
        <time>2021-02-21T13:20:02Z</time>
      </trkpt>
      <trkpt lat="43.56604" lon="6.63963">
        <ele>224.9</ele>
        <time>2021-02-21T13:20:04Z</time>
      </trkpt>
      <trkpt lat="43.56605" lon="6.63961">
        <ele>226.2</ele>
        <time>2021-02-21T13:20:08Z</time>
      </trkpt>
      <trkpt lat="43.56605" lon="6.63961">
        <ele>227.2</ele>
        <time>2021-02-21T13:20:47Z</time>
      </trkpt>
      <trkpt lat="43.56605" lon="6.63961">
        <ele>227</ele>
        <time>2021-02-21T13:20:49Z</time>
      </trkpt>
      <trkpt lat="43.56606" lon="6.63961">
        <ele>226.6</ele>
        <time>2021-02-21T13:21:01Z</time>
      </trkpt>
      <trkpt lat="43.56606" lon="6.63961">
        <ele>226.5</ele>
        <time>2021-02-21T13:21:02Z</time>
      </trkpt>
      <trkpt lat="43.56606" lon="6.63961">
        <ele>226.7</ele>
        <time>2021-02-21T13:21:14Z</time>
      </trkpt>
      <trkpt lat="43.56606" lon="6.63961">
        <ele>226.5</ele>
        <time>2021-02-21T13:21:15Z</time>
      </trkpt>
      <trkpt lat="43.56606" lon="6.63961">
        <ele>226.1</ele>
        <time>2021-02-21T13:21:16Z</time>
      </trkpt>
      <trkpt lat="43.5661" lon="6.63963">
        <ele>225.9</ele>
        <time>2021-02-21T13:21:26Z</time>
      </trkpt>
      <trkpt lat="43.56611" lon="6.63963">
        <ele>227.5</ele>
        <time>2021-02-21T13:21:37Z</time>
      </trkpt>
      <trkpt lat="43.5661" lon="6.63963">
        <ele>227.4</ele>
        <time>2021-02-21T13:21:43Z</time>
      </trkpt>
      <trkpt lat="43.5661" lon="6.63963">
        <ele>227.5</ele>
        <time>2021-02-21T13:21:44Z</time>
      </trkpt>
      <trkpt lat="43.5661" lon="6.63964">
        <ele>227.6</ele>
        <time>2021-02-21T13:21:46Z</time>
      </trkpt>
      <trkpt lat="43.5661" lon="6.63963">
        <ele>227.6</ele>
        <time>2021-02-21T13:21:47Z</time>
      </trkpt>
      <trkpt lat="43.56609" lon="6.63963">
        <ele>227.5</ele>
        <time>2021-02-21T13:21:49Z</time>
      </trkpt>
      <trkpt lat="43.5661" lon="6.63964">
        <ele>227.8</ele>
        <time>2021-02-21T13:21:52Z</time>
      </trkpt>
      <trkpt lat="43.5661" lon="6.63964">
        <ele>228.3</ele>
        <time>2021-02-21T13:21:53Z</time>
      </trkpt>
      <trkpt lat="43.5661" lon="6.63963">
        <ele>227.8</ele>
        <time>2021-02-21T13:21:54Z</time>
      </trkpt>
      <trkpt lat="43.5661" lon="6.63962">
        <ele>227.3</ele>
        <time>2021-02-21T13:22:00Z</time>
      </trkpt>
      <trkpt lat="43.56609" lon="6.63962">
        <ele>227.9</ele>
        <time>2021-02-21T13:22:21Z</time>
      </trkpt>
      <trkpt lat="43.56609" lon="6.63962">
        <ele>227.8</ele>
        <time>2021-02-21T13:22:22Z</time>
      </trkpt>
      <trkpt lat="43.56609" lon="6.63962">
        <ele>227.4</ele>
        <time>2021-02-21T13:22:26Z</time>
      </trkpt>
      <trkpt lat="43.56608" lon="6.63962">
        <ele>227.1</ele>
        <time>2021-02-21T13:22:30Z</time>
      </trkpt>
      <trkpt lat="43.56608" lon="6.63962">
        <ele>227.4</ele>
        <time>2021-02-21T13:22:39Z</time>
      </trkpt>
      <trkpt lat="43.56608" lon="6.63962">
        <ele>227.4</ele>
        <time>2021-02-21T13:22:40Z</time>
      </trkpt>
      <trkpt lat="43.56608" lon="6.63962">
        <ele>227.2</ele>
        <time>2021-02-21T13:22:41Z</time>
      </trkpt>
      <trkpt lat="43.56608" lon="6.63962">
        <ele>227.3</ele>
        <time>2021-02-21T13:22:43Z</time>
      </trkpt>
      <trkpt lat="43.56607" lon="6.63962">
        <ele>227.6</ele>
        <time>2021-02-21T13:22:57Z</time>
      </trkpt>
      <trkpt lat="43.56608" lon="6.63963">
        <ele>227.9</ele>
        <time>2021-02-21T13:22:59Z</time>
      </trkpt>
      <trkpt lat="43.56607" lon="6.63963">
        <ele>227.4</ele>
        <time>2021-02-21T13:23:01Z</time>
      </trkpt>
      <trkpt lat="43.56607" lon="6.63963">
        <ele>227.2</ele>
        <time>2021-02-21T13:23:02Z</time>
      </trkpt>
      <trkpt lat="43.56607" lon="6.63963">
        <ele>227.1</ele>
        <time>2021-02-21T13:23:03Z</time>
      </trkpt>
      <trkpt lat="43.56607" lon="6.63963">
        <ele>227</ele>
        <time>2021-02-21T13:23:05Z</time>
      </trkpt>
      <trkpt lat="43.56607" lon="6.63963">
        <ele>226.9</ele>
        <time>2021-02-21T13:23:08Z</time>
      </trkpt>
      <trkpt lat="43.56607" lon="6.63963">
        <ele>226.9</ele>
        <time>2021-02-21T13:23:09Z</time>
      </trkpt>
      <trkpt lat="43.56606" lon="6.63963">
        <ele>226.6</ele>
        <time>2021-02-21T13:23:13Z</time>
      </trkpt>
      <trkpt lat="43.56608" lon="6.63962">
        <ele>226.9</ele>
        <time>2021-02-21T13:23:18Z</time>
      </trkpt>
      <trkpt lat="43.56609" lon="6.63962">
        <ele>226.9</ele>
        <time>2021-02-21T13:23:20Z</time>
      </trkpt>
      <trkpt lat="43.5661" lon="6.63963">
        <ele>226.7</ele>
        <time>2021-02-21T13:23:22Z</time>
      </trkpt>
      <trkpt lat="43.5661" lon="6.63963">
        <ele>226.6</ele>
        <time>2021-02-21T13:23:23Z</time>
      </trkpt>
      <trkpt lat="43.5661" lon="6.63963">
        <ele>226.9</ele>
        <time>2021-02-21T13:23:24Z</time>
      </trkpt>
      <trkpt lat="43.56611" lon="6.63963">
        <ele>227.2</ele>
        <time>2021-02-21T13:23:26Z</time>
      </trkpt>
      <trkpt lat="43.56619" lon="6.63957">
        <ele>226.8</ele>
        <time>2021-02-21T13:23:35Z</time>
      </trkpt>
      <trkpt lat="43.56626" lon="6.63948">
        <ele>225.5</ele>
        <time>2021-02-21T13:23:45Z</time>
      </trkpt>
      <trkpt lat="43.56633" lon="6.63939">
        <ele>225.7</ele>
        <time>2021-02-21T13:23:56Z</time>
      </trkpt>
      <trkpt lat="43.5664" lon="6.6393">
        <ele>225.4</ele>
        <time>2021-02-21T13:24:04Z</time>
      </trkpt>
      <trkpt lat="43.56647" lon="6.63922">
        <ele>225.7</ele>
        <time>2021-02-21T13:24:14Z</time>
      </trkpt>
      <trkpt lat="43.56654" lon="6.63913">
        <ele>223.2</ele>
        <time>2021-02-21T13:24:23Z</time>
      </trkpt>
      <trkpt lat="43.56661" lon="6.63905">
        <ele>222.5</ele>
        <time>2021-02-21T13:24:33Z</time>
      </trkpt>
      <trkpt lat="43.5667" lon="6.63901">
        <ele>221.2</ele>
        <time>2021-02-21T13:24:40Z</time>
      </trkpt>
      <trkpt lat="43.56679" lon="6.63898">
        <ele>221.1</ele>
        <time>2021-02-21T13:24:48Z</time>
      </trkpt>
      <trkpt lat="43.56687" lon="6.63891">
        <ele>221</ele>
        <time>2021-02-21T13:24:57Z</time>
      </trkpt>
      <trkpt lat="43.56695" lon="6.63883">
        <ele>220.4</ele>
        <time>2021-02-21T13:25:07Z</time>
      </trkpt>
      <trkpt lat="43.56704" lon="6.63879">
        <ele>219.3</ele>
        <time>2021-02-21T13:25:14Z</time>
      </trkpt>
      <trkpt lat="43.56713" lon="6.63873">
        <ele>218.1</ele>
        <time>2021-02-21T13:25:24Z</time>
      </trkpt>
      <trkpt lat="43.56722" lon="6.63867">
        <ele>216.5</ele>
        <time>2021-02-21T13:25:32Z</time>
      </trkpt>
      <trkpt lat="43.56731" lon="6.63861">
        <ele>215.2</ele>
        <time>2021-02-21T13:25:41Z</time>
      </trkpt>
      <trkpt lat="43.56739" lon="6.63854">
        <ele>213.9</ele>
        <time>2021-02-21T13:25:51Z</time>
      </trkpt>
      <trkpt lat="43.56748" lon="6.63847">
        <ele>215</ele>
        <time>2021-02-21T13:25:57Z</time>
      </trkpt>
      <trkpt lat="43.56755" lon="6.63838">
        <ele>214.5</ele>
        <time>2021-02-21T13:26:05Z</time>
      </trkpt>
      <trkpt lat="43.5676" lon="6.63827">
        <ele>215.5</ele>
        <time>2021-02-21T13:26:12Z</time>
      </trkpt>
      <trkpt lat="43.56767" lon="6.63818">
        <ele>215</ele>
        <time>2021-02-21T13:26:20Z</time>
      </trkpt>
      <trkpt lat="43.56772" lon="6.63806">
        <ele>213.1</ele>
        <time>2021-02-21T13:26:28Z</time>
      </trkpt>
      <trkpt lat="43.56776" lon="6.63795">
        <ele>212.1</ele>
        <time>2021-02-21T13:26:37Z</time>
      </trkpt>
      <trkpt lat="43.56779" lon="6.63782">
        <ele>213</ele>
        <time>2021-02-21T13:26:46Z</time>
      </trkpt>
      <trkpt lat="43.56785" lon="6.63772">
        <ele>212.1</ele>
        <time>2021-02-21T13:26:53Z</time>
      </trkpt>
      <trkpt lat="43.56786" lon="6.63759">
        <ele>211.1</ele>
        <time>2021-02-21T13:27:01Z</time>
      </trkpt>
      <trkpt lat="43.56791" lon="6.63747">
        <ele>210.5</ele>
        <time>2021-02-21T13:27:09Z</time>
      </trkpt>
      <trkpt lat="43.56794" lon="6.63734">
        <ele>210.7</ele>
        <time>2021-02-21T13:27:18Z</time>
      </trkpt>
      <trkpt lat="43.56793" lon="6.63721">
        <ele>210</ele>
        <time>2021-02-21T13:27:26Z</time>
      </trkpt>
      <trkpt lat="43.56797" lon="6.63709">
        <ele>211.2</ele>
        <time>2021-02-21T13:27:34Z</time>
      </trkpt>
      <trkpt lat="43.56804" lon="6.637">
        <ele>210.1</ele>
        <time>2021-02-21T13:27:50Z</time>
      </trkpt>
      <trkpt lat="43.56813" lon="6.63693">
        <ele>209.3</ele>
        <time>2021-02-21T13:27:59Z</time>
      </trkpt>
      <trkpt lat="43.56819" lon="6.63683">
        <ele>209.3</ele>
        <time>2021-02-21T13:28:07Z</time>
      </trkpt>
      <trkpt lat="43.56826" lon="6.63674">
        <ele>208</ele>
        <time>2021-02-21T13:28:14Z</time>
      </trkpt>
      <trkpt lat="43.5683" lon="6.63663">
        <ele>207.4</ele>
        <time>2021-02-21T13:28:22Z</time>
      </trkpt>
      <trkpt lat="43.56836" lon="6.63653">
        <ele>207.3</ele>
        <time>2021-02-21T13:28:32Z</time>
      </trkpt>
      <trkpt lat="43.56844" lon="6.63656">
        <ele>206.9</ele>
        <time>2021-02-21T13:28:42Z</time>
      </trkpt>
      <trkpt lat="43.56844" lon="6.63669">
        <ele>206.1</ele>
        <time>2021-02-21T13:28:55Z</time>
      </trkpt>
      <trkpt lat="43.56844" lon="6.63682">
        <ele>207.6</ele>
        <time>2021-02-21T13:29:05Z</time>
      </trkpt>
      <trkpt lat="43.56843" lon="6.63689">
        <ele>209.5</ele>
        <time>2021-02-21T13:29:13Z</time>
      </trkpt>
      <trkpt lat="43.56843" lon="6.6369">
        <ele>209.8</ele>
        <time>2021-02-21T13:29:14Z</time>
      </trkpt>
      <trkpt lat="43.56844" lon="6.63703">
        <ele>211.4</ele>
        <time>2021-02-21T13:29:28Z</time>
      </trkpt>
      <trkpt lat="43.56845" lon="6.63716">
        <ele>213</ele>
        <time>2021-02-21T13:29:40Z</time>
      </trkpt>
      <trkpt lat="43.56844" lon="6.63729">
        <ele>213.4</ele>
        <time>2021-02-21T13:29:51Z</time>
      </trkpt>
      <trkpt lat="43.56846" lon="6.63742">
        <ele>214.6</ele>
        <time>2021-02-21T13:30:01Z</time>
      </trkpt>
      <trkpt lat="43.56848" lon="6.63754">
        <ele>215.5</ele>
        <time>2021-02-21T13:30:11Z</time>
      </trkpt>
      <trkpt lat="43.56852" lon="6.63767">
        <ele>216.7</ele>
        <time>2021-02-21T13:30:21Z</time>
      </trkpt>
      <trkpt lat="43.56856" lon="6.63778">
        <ele>218.7</ele>
        <time>2021-02-21T13:30:31Z</time>
      </trkpt>
      <trkpt lat="43.5686" lon="6.6379">
        <ele>218.1</ele>
        <time>2021-02-21T13:30:42Z</time>
      </trkpt>
      <trkpt lat="43.5686" lon="6.63803">
        <ele>220.2</ele>
        <time>2021-02-21T13:30:54Z</time>
      </trkpt>
      <trkpt lat="43.56861" lon="6.63816">
        <ele>219.8</ele>
        <time>2021-02-21T13:31:07Z</time>
      </trkpt>
      <trkpt lat="43.56865" lon="6.63821">
        <ele>219.7</ele>
        <time>2021-02-21T13:31:18Z</time>
      </trkpt>
      <trkpt lat="43.56865" lon="6.63822">
        <ele>219.3</ele>
        <time>2021-02-21T13:31:21Z</time>
      </trkpt>
      <trkpt lat="43.56874" lon="6.63824">
        <ele>216.8</ele>
        <time>2021-02-21T13:31:29Z</time>
      </trkpt>
      <trkpt lat="43.56884" lon="6.63826">
        <ele>217.8</ele>
        <time>2021-02-21T13:31:38Z</time>
      </trkpt>
      <trkpt lat="43.56893" lon="6.63825">
        <ele>218.1</ele>
        <time>2021-02-21T13:31:46Z</time>
      </trkpt>
      <trkpt lat="43.56902" lon="6.63824">
        <ele>216.6</ele>
        <time>2021-02-21T13:31:55Z</time>
      </trkpt>
      <trkpt lat="43.56911" lon="6.63821">
        <ele>215.5</ele>
        <time>2021-02-21T13:32:04Z</time>
      </trkpt>
      <trkpt lat="43.5692" lon="6.63819">
        <ele>215</ele>
        <time>2021-02-21T13:32:13Z</time>
      </trkpt>
      <trkpt lat="43.5693" lon="6.63815">
        <ele>212.6</ele>
        <time>2021-02-21T13:32:23Z</time>
      </trkpt>
      <trkpt lat="43.56938" lon="6.63809">
        <ele>212.2</ele>
        <time>2021-02-21T13:32:32Z</time>
      </trkpt>
      <trkpt lat="43.56947" lon="6.63803">
        <ele>211.8</ele>
        <time>2021-02-21T13:32:40Z</time>
      </trkpt>
      <trkpt lat="43.56954" lon="6.63795">
        <ele>211</ele>
        <time>2021-02-21T13:32:49Z</time>
      </trkpt>
      <trkpt lat="43.56961" lon="6.63785">
        <ele>209.3</ele>
        <time>2021-02-21T13:32:58Z</time>
      </trkpt>
      <trkpt lat="43.56968" lon="6.63775">
        <ele>209.3</ele>
        <time>2021-02-21T13:33:08Z</time>
      </trkpt>
      <trkpt lat="43.56975" lon="6.63766">
        <ele>208.2</ele>
        <time>2021-02-21T13:33:16Z</time>
      </trkpt>
      <trkpt lat="43.56983" lon="6.63758">
        <ele>207.3</ele>
        <time>2021-02-21T13:33:23Z</time>
      </trkpt>
      <trkpt lat="43.56991" lon="6.63753">
        <ele>206.3</ele>
        <time>2021-02-21T13:33:33Z</time>
      </trkpt>
      <trkpt lat="43.57" lon="6.63747">
        <ele>206.6</ele>
        <time>2021-02-21T13:33:42Z</time>
      </trkpt>
      <trkpt lat="43.57008" lon="6.63741">
        <ele>208.2</ele>
        <time>2021-02-21T13:33:51Z</time>
      </trkpt>
      <trkpt lat="43.57015" lon="6.63733">
        <ele>204.8</ele>
        <time>2021-02-21T13:34:00Z</time>
      </trkpt>
      <trkpt lat="43.57024" lon="6.63726">
        <ele>204</ele>
        <time>2021-02-21T13:34:08Z</time>
      </trkpt>
      <trkpt lat="43.57032" lon="6.6372">
        <ele>203.4</ele>
        <time>2021-02-21T13:34:17Z</time>
      </trkpt>
      <trkpt lat="43.57041" lon="6.63714">
        <ele>202</ele>
        <time>2021-02-21T13:34:27Z</time>
      </trkpt>
      <trkpt lat="43.57048" lon="6.63707">
        <ele>201.3</ele>
        <time>2021-02-21T13:34:35Z</time>
      </trkpt>
      <trkpt lat="43.57056" lon="6.63701">
        <ele>200.7</ele>
        <time>2021-02-21T13:34:43Z</time>
      </trkpt>
      <trkpt lat="43.57065" lon="6.63696">
        <ele>200.9</ele>
        <time>2021-02-21T13:34:53Z</time>
      </trkpt>
      <trkpt lat="43.57075" lon="6.63695">
        <ele>200.9</ele>
        <time>2021-02-21T13:34:59Z</time>
      </trkpt>
      <trkpt lat="43.57083" lon="6.6369">
        <ele>201</ele>
        <time>2021-02-21T13:35:07Z</time>
      </trkpt>
      <trkpt lat="43.57092" lon="6.63688">
        <ele>200.7</ele>
        <time>2021-02-21T13:35:15Z</time>
      </trkpt>
      <trkpt lat="43.57102" lon="6.63685">
        <ele>199.6</ele>
        <time>2021-02-21T13:35:24Z</time>
      </trkpt>
      <trkpt lat="43.57111" lon="6.63684">
        <ele>198.3</ele>
        <time>2021-02-21T13:35:33Z</time>
      </trkpt>
      <trkpt lat="43.57121" lon="6.63688">
        <ele>198.7</ele>
        <time>2021-02-21T13:35:42Z</time>
      </trkpt>
      <trkpt lat="43.5713" lon="6.63687">
        <ele>196.6</ele>
        <time>2021-02-21T13:35:51Z</time>
      </trkpt>
      <trkpt lat="43.57139" lon="6.63686">
        <ele>198.3</ele>
        <time>2021-02-21T13:35:59Z</time>
      </trkpt>
      <trkpt lat="43.57148" lon="6.63688">
        <ele>199.5</ele>
        <time>2021-02-21T13:36:08Z</time>
      </trkpt>
      <trkpt lat="43.57156" lon="6.63695">
        <ele>198.2</ele>
        <time>2021-02-21T13:36:21Z</time>
      </trkpt>
      <trkpt lat="43.57155" lon="6.63703">
        <ele>198.6</ele>
        <time>2021-02-21T13:36:32Z</time>
      </trkpt>
      <trkpt lat="43.57155" lon="6.63703">
        <ele>198.6</ele>
        <time>2021-02-21T13:36:33Z</time>
      </trkpt>
      <trkpt lat="43.57146" lon="6.63704">
        <ele>200.7</ele>
        <time>2021-02-21T13:36:49Z</time>
      </trkpt>
      <trkpt lat="43.57145" lon="6.63707">
        <ele>202</ele>
        <time>2021-02-21T13:37:03Z</time>
      </trkpt>
      <trkpt lat="43.57145" lon="6.63707">
        <ele>201.9</ele>
        <time>2021-02-21T13:37:04Z</time>
      </trkpt>
      <trkpt lat="43.57145" lon="6.63708">
        <ele>201.8</ele>
        <time>2021-02-21T13:37:11Z</time>
      </trkpt>
      <trkpt lat="43.57145" lon="6.63707">
        <ele>201.9</ele>
        <time>2021-02-21T13:37:12Z</time>
      </trkpt>
      <trkpt lat="43.57147" lon="6.6371">
        <ele>201.9</ele>
        <time>2021-02-21T13:37:17Z</time>
      </trkpt>
      <trkpt lat="43.57147" lon="6.6371">
        <ele>201.9</ele>
        <time>2021-02-21T13:37:25Z</time>
      </trkpt>
      <trkpt lat="43.57138" lon="6.63716">
        <ele>202</ele>
        <time>2021-02-21T13:37:35Z</time>
      </trkpt>
      <trkpt lat="43.5713" lon="6.6372">
        <ele>202.1</ele>
        <time>2021-02-21T13:37:43Z</time>
      </trkpt>
      <trkpt lat="43.57123" lon="6.63729">
        <ele>202.7</ele>
        <time>2021-02-21T13:37:51Z</time>
      </trkpt>
      <trkpt lat="43.5712" lon="6.63741">
        <ele>202.9</ele>
        <time>2021-02-21T13:37:59Z</time>
      </trkpt>
      <trkpt lat="43.57118" lon="6.63754">
        <ele>203</ele>
        <time>2021-02-21T13:38:07Z</time>
      </trkpt>
      <trkpt lat="43.57117" lon="6.63767">
        <ele>203.8</ele>
        <time>2021-02-21T13:38:16Z</time>
      </trkpt>
      <trkpt lat="43.57115" lon="6.6378">
        <ele>204.2</ele>
        <time>2021-02-21T13:38:27Z</time>
      </trkpt>
      <trkpt lat="43.57119" lon="6.63792">
        <ele>205.2</ele>
        <time>2021-02-21T13:38:39Z</time>
      </trkpt>
      <trkpt lat="43.57128" lon="6.63798">
        <ele>205</ele>
        <time>2021-02-21T13:38:48Z</time>
      </trkpt>
      <trkpt lat="43.57137" lon="6.63799">
        <ele>205.2</ele>
        <time>2021-02-21T13:38:56Z</time>
      </trkpt>
      <trkpt lat="43.57147" lon="6.638">
        <ele>207</ele>
        <time>2021-02-21T13:39:05Z</time>
      </trkpt>
      <trkpt lat="43.57156" lon="6.63798">
        <ele>207</ele>
        <time>2021-02-21T13:39:14Z</time>
      </trkpt>
      <trkpt lat="43.57166" lon="6.63795">
        <ele>207.9</ele>
        <time>2021-02-21T13:39:23Z</time>
      </trkpt>
      <trkpt lat="43.57175" lon="6.63791">
        <ele>207.7</ele>
        <time>2021-02-21T13:39:33Z</time>
      </trkpt>
      <trkpt lat="43.57184" lon="6.63787">
        <ele>206.8</ele>
        <time>2021-02-21T13:39:43Z</time>
      </trkpt>
      <trkpt lat="43.57194" lon="6.63787">
        <ele>206.5</ele>
        <time>2021-02-21T13:39:51Z</time>
      </trkpt>
      <trkpt lat="43.57203" lon="6.63785">
        <ele>206.8</ele>
        <time>2021-02-21T13:39:59Z</time>
      </trkpt>
      <trkpt lat="43.57212" lon="6.63784">
        <ele>207.3</ele>
        <time>2021-02-21T13:40:07Z</time>
      </trkpt>
      <trkpt lat="43.57221" lon="6.63785">
        <ele>207.1</ele>
        <time>2021-02-21T13:40:17Z</time>
      </trkpt>
      <trkpt lat="43.57231" lon="6.63784">
        <ele>207.3</ele>
        <time>2021-02-21T13:40:26Z</time>
      </trkpt>
      <trkpt lat="43.57241" lon="6.63785">
        <ele>209</ele>
        <time>2021-02-21T13:40:36Z</time>
      </trkpt>
      <trkpt lat="43.5725" lon="6.63785">
        <ele>208.4</ele>
        <time>2021-02-21T13:40:45Z</time>
      </trkpt>
      <trkpt lat="43.57259" lon="6.63781">
        <ele>209.6</ele>
        <time>2021-02-21T13:40:53Z</time>
      </trkpt>
      <trkpt lat="43.57267" lon="6.63774">
        <ele>210</ele>
        <time>2021-02-21T13:41:01Z</time>
      </trkpt>
      <trkpt lat="43.57272" lon="6.63763">
        <ele>210.2</ele>
        <time>2021-02-21T13:41:07Z</time>
      </trkpt>
      <trkpt lat="43.57275" lon="6.63751">
        <ele>210.6</ele>
        <time>2021-02-21T13:41:16Z</time>
      </trkpt>
      <trkpt lat="43.57281" lon="6.6374">
        <ele>211.3</ele>
        <time>2021-02-21T13:41:26Z</time>
      </trkpt>
      <trkpt lat="43.57285" lon="6.63728">
        <ele>211</ele>
        <time>2021-02-21T13:41:34Z</time>
      </trkpt>
      <trkpt lat="43.57293" lon="6.63734">
        <ele>211</ele>
        <time>2021-02-21T13:42:00Z</time>
      </trkpt>
      <trkpt lat="43.57296" lon="6.63746">
        <ele>210</ele>
        <time>2021-02-21T13:42:11Z</time>
      </trkpt>
      <trkpt lat="43.57291" lon="6.63757">
        <ele>209.4</ele>
        <time>2021-02-21T13:42:21Z</time>
      </trkpt>
      <trkpt lat="43.57289" lon="6.6377">
        <ele>207.9</ele>
        <time>2021-02-21T13:42:30Z</time>
      </trkpt>
      <trkpt lat="43.57291" lon="6.63783">
        <ele>206.6</ele>
        <time>2021-02-21T13:42:37Z</time>
      </trkpt>
      <trkpt lat="43.57294" lon="6.63796">
        <ele>204.9</ele>
        <time>2021-02-21T13:42:45Z</time>
      </trkpt>
      <trkpt lat="43.57302" lon="6.63804">
        <ele>204.2</ele>
        <time>2021-02-21T13:42:52Z</time>
      </trkpt>
      <trkpt lat="43.57311" lon="6.63809">
        <ele>203.7</ele>
        <time>2021-02-21T13:43:00Z</time>
      </trkpt>
      <trkpt lat="43.5732" lon="6.63812">
        <ele>202.8</ele>
        <time>2021-02-21T13:43:08Z</time>
      </trkpt>
      <trkpt lat="43.57329" lon="6.63818">
        <ele>202.6</ele>
        <time>2021-02-21T13:43:16Z</time>
      </trkpt>
      <trkpt lat="43.57337" lon="6.63826">
        <ele>202.5</ele>
        <time>2021-02-21T13:43:26Z</time>
      </trkpt>
      <trkpt lat="43.57345" lon="6.63832">
        <ele>202.9</ele>
        <time>2021-02-21T13:43:33Z</time>
      </trkpt>
      <trkpt lat="43.57353" lon="6.63837">
        <ele>201.9</ele>
        <time>2021-02-21T13:43:41Z</time>
      </trkpt>
      <trkpt lat="43.57363" lon="6.63839">
        <ele>200.8</ele>
        <time>2021-02-21T13:43:50Z</time>
      </trkpt>
      <trkpt lat="43.57373" lon="6.63841">
        <ele>200.6</ele>
        <time>2021-02-21T13:43:59Z</time>
      </trkpt>
      <trkpt lat="43.57381" lon="6.63848">
        <ele>199.5</ele>
        <time>2021-02-21T13:44:08Z</time>
      </trkpt>
      <trkpt lat="43.57389" lon="6.63853">
        <ele>198.7</ele>
        <time>2021-02-21T13:44:23Z</time>
      </trkpt>
      <trkpt lat="43.57389" lon="6.63852">
        <ele>198.2</ele>
        <time>2021-02-21T13:44:26Z</time>
      </trkpt>
      <trkpt lat="43.57384" lon="6.63863">
        <ele>198.8</ele>
        <time>2021-02-21T13:44:38Z</time>
      </trkpt>
      <trkpt lat="43.57375" lon="6.63859">
        <ele>199.8</ele>
        <time>2021-02-21T13:44:49Z</time>
      </trkpt>
      <trkpt lat="43.57365" lon="6.63855">
        <ele>201.1</ele>
        <time>2021-02-21T13:45:00Z</time>
      </trkpt>
      <trkpt lat="43.57356" lon="6.63855">
        <ele>201.1</ele>
        <time>2021-02-21T13:45:09Z</time>
      </trkpt>
      <trkpt lat="43.57346" lon="6.6385">
        <ele>201.9</ele>
        <time>2021-02-21T13:45:18Z</time>
      </trkpt>
      <trkpt lat="43.57337" lon="6.6385">
        <ele>203.1</ele>
        <time>2021-02-21T13:45:27Z</time>
      </trkpt>
      <trkpt lat="43.57327" lon="6.63852">
        <ele>204.3</ele>
        <time>2021-02-21T13:45:37Z</time>
      </trkpt>
      <trkpt lat="43.57318" lon="6.63854">
        <ele>205.7</ele>
        <time>2021-02-21T13:45:49Z</time>
      </trkpt>
      <trkpt lat="43.57309" lon="6.63859">
        <ele>204.5</ele>
        <time>2021-02-21T13:46:01Z</time>
      </trkpt>
      <trkpt lat="43.57301" lon="6.63865">
        <ele>206.1</ele>
        <time>2021-02-21T13:46:11Z</time>
      </trkpt>
      <trkpt lat="43.57293" lon="6.63874">
        <ele>206.2</ele>
        <time>2021-02-21T13:46:21Z</time>
      </trkpt>
      <trkpt lat="43.57285" lon="6.63882">
        <ele>206.5</ele>
        <time>2021-02-21T13:46:30Z</time>
      </trkpt>
      <trkpt lat="43.57278" lon="6.63889">
        <ele>208.4</ele>
        <time>2021-02-21T13:46:41Z</time>
      </trkpt>
      <trkpt lat="43.57271" lon="6.63897">
        <ele>207.6</ele>
        <time>2021-02-21T13:46:48Z</time>
      </trkpt>
      <trkpt lat="43.57263" lon="6.63904">
        <ele>207.3</ele>
        <time>2021-02-21T13:46:59Z</time>
      </trkpt>
      <trkpt lat="43.57255" lon="6.6391">
        <ele>206.5</ele>
        <time>2021-02-21T13:47:08Z</time>
      </trkpt>
      <trkpt lat="43.57245" lon="6.63915">
        <ele>205.4</ele>
        <time>2021-02-21T13:47:21Z</time>
      </trkpt>
      <trkpt lat="43.57236" lon="6.63915">
        <ele>205.4</ele>
        <time>2021-02-21T13:47:28Z</time>
      </trkpt>
      <trkpt lat="43.57226" lon="6.63918">
        <ele>205.2</ele>
        <time>2021-02-21T13:47:35Z</time>
      </trkpt>
      <trkpt lat="43.57217" lon="6.63922">
        <ele>204.9</ele>
        <time>2021-02-21T13:47:41Z</time>
      </trkpt>
      <trkpt lat="43.57209" lon="6.63928">
        <ele>204</ele>
        <time>2021-02-21T13:47:50Z</time>
      </trkpt>
      <trkpt lat="43.57203" lon="6.63937">
        <ele>204.9</ele>
        <time>2021-02-21T13:47:58Z</time>
      </trkpt>
      <trkpt lat="43.57196" lon="6.63947">
        <ele>205.2</ele>
        <time>2021-02-21T13:48:06Z</time>
      </trkpt>
      <trkpt lat="43.57193" lon="6.6396">
        <ele>204.5</ele>
        <time>2021-02-21T13:48:13Z</time>
      </trkpt>
      <trkpt lat="43.57195" lon="6.63973">
        <ele>204.2</ele>
        <time>2021-02-21T13:48:19Z</time>
      </trkpt>
      <trkpt lat="43.57195" lon="6.63987">
        <ele>203.8</ele>
        <time>2021-02-21T13:48:26Z</time>
      </trkpt>
      <trkpt lat="43.57198" lon="6.63998">
        <ele>203.8</ele>
        <time>2021-02-21T13:48:34Z</time>
      </trkpt>
      <trkpt lat="43.57204" lon="6.64009">
        <ele>203</ele>
        <time>2021-02-21T13:48:43Z</time>
      </trkpt>
      <trkpt lat="43.57206" lon="6.64021">
        <ele>202.7</ele>
        <time>2021-02-21T13:48:50Z</time>
      </trkpt>
      <trkpt lat="43.57207" lon="6.64034">
        <ele>202.1</ele>
        <time>2021-02-21T13:48:58Z</time>
      </trkpt>
      <trkpt lat="43.57208" lon="6.64047">
        <ele>201.4</ele>
        <time>2021-02-21T13:49:10Z</time>
      </trkpt>
      <trkpt lat="43.57202" lon="6.6405">
        <ele>200.5</ele>
        <time>2021-02-21T13:49:21Z</time>
      </trkpt>
      <trkpt lat="43.57202" lon="6.6405">
        <ele>200</ele>
        <time>2021-02-21T13:49:23Z</time>
      </trkpt>
      <trkpt lat="43.572" lon="6.6405">
        <ele>200.7</ele>
        <time>2021-02-21T13:49:29Z</time>
      </trkpt>
      <trkpt lat="43.57199" lon="6.64049">
        <ele>201</ele>
        <time>2021-02-21T13:49:30Z</time>
      </trkpt>
      <trkpt lat="43.57192" lon="6.64042">
        <ele>201.7</ele>
        <time>2021-02-21T13:49:39Z</time>
      </trkpt>
      <trkpt lat="43.57183" lon="6.64035">
        <ele>202.2</ele>
        <time>2021-02-21T13:49:47Z</time>
      </trkpt>
      <trkpt lat="43.57182" lon="6.64033">
        <ele>202.6</ele>
        <time>2021-02-21T13:49:51Z</time>
      </trkpt>
      <trkpt lat="43.57181" lon="6.64033">
        <ele>202.5</ele>
        <time>2021-02-21T13:49:52Z</time>
      </trkpt>
      <trkpt lat="43.57172" lon="6.64028">
        <ele>202.4</ele>
        <time>2021-02-21T13:50:03Z</time>
      </trkpt>
      <trkpt lat="43.57163" lon="6.64023">
        <ele>203.2</ele>
        <time>2021-02-21T13:50:14Z</time>
      </trkpt>
      <trkpt lat="43.57156" lon="6.64015">
        <ele>204.4</ele>
        <time>2021-02-21T13:50:22Z</time>
      </trkpt>
      <trkpt lat="43.57149" lon="6.64004">
        <ele>204.5</ele>
        <time>2021-02-21T13:50:33Z</time>
      </trkpt>
      <trkpt lat="43.57142" lon="6.63997">
        <ele>205.3</ele>
        <time>2021-02-21T13:50:42Z</time>
      </trkpt>
      <trkpt lat="43.57133" lon="6.63993">
        <ele>205.3</ele>
        <time>2021-02-21T13:50:53Z</time>
      </trkpt>
      <trkpt lat="43.57123" lon="6.63993">
        <ele>206</ele>
        <time>2021-02-21T13:51:01Z</time>
      </trkpt>
      <trkpt lat="43.57113" lon="6.63997">
        <ele>206.4</ele>
        <time>2021-02-21T13:51:11Z</time>
      </trkpt>
      <trkpt lat="43.57105" lon="6.64003">
        <ele>206.7</ele>
        <time>2021-02-21T13:51:19Z</time>
      </trkpt>
      <trkpt lat="43.57098" lon="6.6401">
        <ele>207</ele>
        <time>2021-02-21T13:51:28Z</time>
      </trkpt>
      <trkpt lat="43.57092" lon="6.64021">
        <ele>207</ele>
        <time>2021-02-21T13:51:37Z</time>
      </trkpt>
      <trkpt lat="43.57088" lon="6.64033">
        <ele>206.3</ele>
        <time>2021-02-21T13:51:49Z</time>
      </trkpt>
      <trkpt lat="43.57086" lon="6.64045">
        <ele>209.1</ele>
        <time>2021-02-21T13:51:58Z</time>
      </trkpt>
      <trkpt lat="43.57086" lon="6.64058">
        <ele>210</ele>
        <time>2021-02-21T13:52:06Z</time>
      </trkpt>
      <trkpt lat="43.57084" lon="6.6407">
        <ele>209.7</ele>
        <time>2021-02-21T13:52:17Z</time>
      </trkpt>
      <trkpt lat="43.57082" lon="6.64074">
        <ele>212</ele>
        <time>2021-02-21T13:52:25Z</time>
      </trkpt>
      <trkpt lat="43.57082" lon="6.64074">
        <ele>212</ele>
        <time>2021-02-21T13:52:26Z</time>
      </trkpt>
      <trkpt lat="43.57073" lon="6.64073">
        <ele>211</ele>
        <time>2021-02-21T13:52:39Z</time>
      </trkpt>
      <trkpt lat="43.57065" lon="6.64065">
        <ele>212.1</ele>
        <time>2021-02-21T13:52:52Z</time>
      </trkpt>
      <trkpt lat="43.57056" lon="6.64063">
        <ele>212.6</ele>
        <time>2021-02-21T13:52:59Z</time>
      </trkpt>
      <trkpt lat="43.57047" lon="6.6406">
        <ele>213.2</ele>
        <time>2021-02-21T13:53:07Z</time>
      </trkpt>
      <trkpt lat="43.57037" lon="6.64062">
        <ele>214.1</ele>
        <time>2021-02-21T13:53:17Z</time>
      </trkpt>
      <trkpt lat="43.57029" lon="6.64069">
        <ele>214.2</ele>
        <time>2021-02-21T13:53:25Z</time>
      </trkpt>
      <trkpt lat="43.57023" lon="6.64078">
        <ele>214.5</ele>
        <time>2021-02-21T13:53:33Z</time>
      </trkpt>
      <trkpt lat="43.57017" lon="6.64089">
        <ele>215.2</ele>
        <time>2021-02-21T13:53:42Z</time>
      </trkpt>
      <trkpt lat="43.57014" lon="6.64102">
        <ele>215.6</ele>
        <time>2021-02-21T13:53:49Z</time>
      </trkpt>
      <trkpt lat="43.57011" lon="6.64114">
        <ele>215.8</ele>
        <time>2021-02-21T13:53:57Z</time>
      </trkpt>
      <trkpt lat="43.57009" lon="6.64126">
        <ele>216.1</ele>
        <time>2021-02-21T13:54:04Z</time>
      </trkpt>
      <trkpt lat="43.57006" lon="6.64139">
        <ele>216.6</ele>
        <time>2021-02-21T13:54:14Z</time>
      </trkpt>
      <trkpt lat="43.57001" lon="6.64151">
        <ele>216.8</ele>
        <time>2021-02-21T13:54:24Z</time>
      </trkpt>
      <trkpt lat="43.56994" lon="6.6416">
        <ele>217.2</ele>
        <time>2021-02-21T13:54:35Z</time>
      </trkpt>
      <trkpt lat="43.56988" lon="6.64171">
        <ele>219</ele>
        <time>2021-02-21T13:54:45Z</time>
      </trkpt>
      <trkpt lat="43.56984" lon="6.64182">
        <ele>219</ele>
        <time>2021-02-21T13:54:55Z</time>
      </trkpt>
      <trkpt lat="43.56981" lon="6.64194">
        <ele>219</ele>
        <time>2021-02-21T13:55:03Z</time>
      </trkpt>
      <trkpt lat="43.56979" lon="6.64207">
        <ele>218.8</ele>
        <time>2021-02-21T13:55:13Z</time>
      </trkpt>
      <trkpt lat="43.56978" lon="6.6422">
        <ele>218.6</ele>
        <time>2021-02-21T13:55:21Z</time>
      </trkpt>
      <trkpt lat="43.56977" lon="6.64233">
        <ele>218.4</ele>
        <time>2021-02-21T13:55:29Z</time>
      </trkpt>
      <trkpt lat="43.56978" lon="6.64245">
        <ele>217.5</ele>
        <time>2021-02-21T13:55:37Z</time>
      </trkpt>
      <trkpt lat="43.56985" lon="6.64255">
        <ele>217.6</ele>
        <time>2021-02-21T13:55:45Z</time>
      </trkpt>
      <trkpt lat="43.56994" lon="6.6426">
        <ele>217.6</ele>
        <time>2021-02-21T13:55:53Z</time>
      </trkpt>
      <trkpt lat="43.57003" lon="6.6426">
        <ele>217.6</ele>
        <time>2021-02-21T13:56:02Z</time>
      </trkpt>
      <trkpt lat="43.57013" lon="6.64259">
        <ele>217.4</ele>
        <time>2021-02-21T13:56:11Z</time>
      </trkpt>
      <trkpt lat="43.57023" lon="6.64257">
        <ele>217.6</ele>
        <time>2021-02-21T13:56:20Z</time>
      </trkpt>
      <trkpt lat="43.57032" lon="6.64258">
        <ele>217.9</ele>
        <time>2021-02-21T13:56:29Z</time>
      </trkpt>
      <trkpt lat="43.57041" lon="6.64259">
        <ele>217.4</ele>
        <time>2021-02-21T13:56:37Z</time>
      </trkpt>
      <trkpt lat="43.57051" lon="6.64258">
        <ele>218.6</ele>
        <time>2021-02-21T13:56:46Z</time>
      </trkpt>
      <trkpt lat="43.5706" lon="6.64257">
        <ele>217.5</ele>
        <time>2021-02-21T13:56:55Z</time>
      </trkpt>
      <trkpt lat="43.57069" lon="6.64261">
        <ele>216.7</ele>
        <time>2021-02-21T13:57:05Z</time>
      </trkpt>
      <trkpt lat="43.57078" lon="6.64267">
        <ele>216.4</ele>
        <time>2021-02-21T13:57:15Z</time>
      </trkpt>
      <trkpt lat="43.57086" lon="6.64273">
        <ele>214.9</ele>
        <time>2021-02-21T13:57:25Z</time>
      </trkpt>
      <trkpt lat="43.57083" lon="6.64277">
        <ele>214.4</ele>
        <time>2021-02-21T13:57:46Z</time>
      </trkpt>
      <trkpt lat="43.57084" lon="6.64277">
        <ele>214.2</ele>
        <time>2021-02-21T13:57:49Z</time>
      </trkpt>
      <trkpt lat="43.57083" lon="6.64277">
        <ele>213.9</ele>
        <time>2021-02-21T13:57:51Z</time>
      </trkpt>
      <trkpt lat="43.57083" lon="6.64276">
        <ele>215.2</ele>
        <time>2021-02-21T13:57:52Z</time>
      </trkpt>
      <trkpt lat="43.57083" lon="6.64277">
        <ele>216.1</ele>
        <time>2021-02-21T13:57:55Z</time>
      </trkpt>
      <trkpt lat="43.57083" lon="6.64278">
        <ele>215</ele>
        <time>2021-02-21T13:58:36Z</time>
      </trkpt>
      <trkpt lat="43.57083" lon="6.64282">
        <ele>215</ele>
        <time>2021-02-21T13:58:43Z</time>
      </trkpt>
      <trkpt lat="43.57083" lon="6.64282">
        <ele>215</ele>
        <time>2021-02-21T13:58:49Z</time>
      </trkpt>
      <trkpt lat="43.57082" lon="6.64281">
        <ele>214.8</ele>
        <time>2021-02-21T13:59:00Z</time>
      </trkpt>
      <trkpt lat="43.57082" lon="6.64281">
        <ele>214.8</ele>
        <time>2021-02-21T13:59:01Z</time>
      </trkpt>
      <trkpt lat="43.57082" lon="6.64281">
        <ele>214.8</ele>
        <time>2021-02-21T13:59:02Z</time>
      </trkpt>
      <trkpt lat="43.57082" lon="6.6428">
        <ele>214.8</ele>
        <time>2021-02-21T13:59:03Z</time>
      </trkpt>
      <trkpt lat="43.57082" lon="6.6428">
        <ele>214.8</ele>
        <time>2021-02-21T13:59:04Z</time>
      </trkpt>
      <trkpt lat="43.57083" lon="6.6428">
        <ele>214.8</ele>
        <time>2021-02-21T13:59:06Z</time>
      </trkpt>
      <trkpt lat="43.57083" lon="6.6428">
        <ele>214.8</ele>
        <time>2021-02-21T13:59:07Z</time>
      </trkpt>
      <trkpt lat="43.57083" lon="6.64279">
        <ele>214.9</ele>
        <time>2021-02-21T13:59:15Z</time>
      </trkpt>
      <trkpt lat="43.57083" lon="6.64279">
        <ele>214.9</ele>
        <time>2021-02-21T13:59:16Z</time>
      </trkpt>
      <trkpt lat="43.57083" lon="6.64279">
        <ele>215</ele>
        <time>2021-02-21T13:59:18Z</time>
      </trkpt>
      <trkpt lat="43.57083" lon="6.64279">
        <ele>214.8</ele>
        <time>2021-02-21T13:59:20Z</time>
      </trkpt>
      <trkpt lat="43.57083" lon="6.64279">
        <ele>214.8</ele>
        <time>2021-02-21T13:59:23Z</time>
      </trkpt>
      <trkpt lat="43.57083" lon="6.64279">
        <ele>214.7</ele>
        <time>2021-02-21T13:59:24Z</time>
      </trkpt>
      <trkpt lat="43.57083" lon="6.64279">
        <ele>215.7</ele>
        <time>2021-02-21T13:59:45Z</time>
      </trkpt>
      <trkpt lat="43.57083" lon="6.64279">
        <ele>215.7</ele>
        <time>2021-02-21T13:59:46Z</time>
      </trkpt>
      <trkpt lat="43.57083" lon="6.64279">
        <ele>215.6</ele>
        <time>2021-02-21T13:59:47Z</time>
      </trkpt>
      <trkpt lat="43.57083" lon="6.64279">
        <ele>215.4</ele>
        <time>2021-02-21T13:59:48Z</time>
      </trkpt>
      <trkpt lat="43.57083" lon="6.64279">
        <ele>215.2</ele>
        <time>2021-02-21T14:00:14Z</time>
      </trkpt>
      <trkpt lat="43.57083" lon="6.64279">
        <ele>215.1</ele>
        <time>2021-02-21T14:00:15Z</time>
      </trkpt>
      <trkpt lat="43.57083" lon="6.64279">
        <ele>214.9</ele>
        <time>2021-02-21T14:00:17Z</time>
      </trkpt>
      <trkpt lat="43.57082" lon="6.64279">
        <ele>214.8</ele>
        <time>2021-02-21T14:00:19Z</time>
      </trkpt>
      <trkpt lat="43.57082" lon="6.64279">
        <ele>213.9</ele>
        <time>2021-02-21T14:00:36Z</time>
      </trkpt>
      <trkpt lat="43.57082" lon="6.64279">
        <ele>213.9</ele>
        <time>2021-02-21T14:00:37Z</time>
      </trkpt>
      <trkpt lat="43.57082" lon="6.64279">
        <ele>213.9</ele>
        <time>2021-02-21T14:00:38Z</time>
      </trkpt>
      <trkpt lat="43.57082" lon="6.64279">
        <ele>214</ele>
        <time>2021-02-21T14:00:39Z</time>
      </trkpt>
      <trkpt lat="43.57082" lon="6.64279">
        <ele>214.4</ele>
        <time>2021-02-21T14:01:17Z</time>
      </trkpt>
      <trkpt lat="43.57082" lon="6.64279">
        <ele>214.5</ele>
        <time>2021-02-21T14:01:18Z</time>
      </trkpt>
      <trkpt lat="43.57082" lon="6.64278">
        <ele>214.7</ele>
        <time>2021-02-21T14:01:30Z</time>
      </trkpt>
      <trkpt lat="43.57082" lon="6.64278">
        <ele>214.7</ele>
        <time>2021-02-21T14:01:31Z</time>
      </trkpt>
      <trkpt lat="43.57081" lon="6.64278">
        <ele>214.7</ele>
        <time>2021-02-21T14:01:32Z</time>
      </trkpt>
      <trkpt lat="43.57081" lon="6.64277">
        <ele>214.8</ele>
        <time>2021-02-21T14:01:35Z</time>
      </trkpt>
      <trkpt lat="43.57081" lon="6.64277">
        <ele>214.7</ele>
        <time>2021-02-21T14:01:44Z</time>
      </trkpt>
      <trkpt lat="43.57081" lon="6.64277">
        <ele>214.7</ele>
        <time>2021-02-21T14:01:45Z</time>
      </trkpt>
      <trkpt lat="43.57081" lon="6.64277">
        <ele>215.2</ele>
        <time>2021-02-21T14:01:51Z</time>
      </trkpt>
      <trkpt lat="43.57072" lon="6.64276">
        <ele>214.9</ele>
        <time>2021-02-21T14:02:03Z</time>
      </trkpt>
      <trkpt lat="43.57062" lon="6.64278">
        <ele>215</ele>
        <time>2021-02-21T14:02:13Z</time>
      </trkpt>
      <trkpt lat="43.57054" lon="6.64284">
        <ele>215.5</ele>
        <time>2021-02-21T14:02:24Z</time>
      </trkpt>
      <trkpt lat="43.57044" lon="6.64288">
        <ele>216.5</ele>
        <time>2021-02-21T14:02:33Z</time>
      </trkpt>
      <trkpt lat="43.57036" lon="6.64294">
        <ele>218</ele>
        <time>2021-02-21T14:02:42Z</time>
      </trkpt>
      <trkpt lat="43.57027" lon="6.64298">
        <ele>218.1</ele>
        <time>2021-02-21T14:02:51Z</time>
      </trkpt>
      <trkpt lat="43.57018" lon="6.64305">
        <ele>217.6</ele>
        <time>2021-02-21T14:03:01Z</time>
      </trkpt>
      <trkpt lat="43.57011" lon="6.64314">
        <ele>216.1</ele>
        <time>2021-02-21T14:03:10Z</time>
      </trkpt>
      <trkpt lat="43.57006" lon="6.64324">
        <ele>217.1</ele>
        <time>2021-02-21T14:03:18Z</time>
      </trkpt>
      <trkpt lat="43.57" lon="6.64334">
        <ele>217.2</ele>
        <time>2021-02-21T14:03:27Z</time>
      </trkpt>
      <trkpt lat="43.56994" lon="6.64344">
        <ele>216.2</ele>
        <time>2021-02-21T14:03:36Z</time>
      </trkpt>
      <trkpt lat="43.56988" lon="6.64354">
        <ele>217.1</ele>
        <time>2021-02-21T14:03:46Z</time>
      </trkpt>
      <trkpt lat="43.56983" lon="6.64366">
        <ele>215.6</ele>
        <time>2021-02-21T14:03:55Z</time>
      </trkpt>
      <trkpt lat="43.56982" lon="6.64379">
        <ele>215.9</ele>
        <time>2021-02-21T14:04:04Z</time>
      </trkpt>
      <trkpt lat="43.56974" lon="6.64385">
        <ele>216.1</ele>
        <time>2021-02-21T14:04:18Z</time>
      </trkpt>
      <trkpt lat="43.56967" lon="6.64376">
        <ele>216.4</ele>
        <time>2021-02-21T14:04:29Z</time>
      </trkpt>
      <trkpt lat="43.56961" lon="6.64368">
        <ele>216.2</ele>
        <time>2021-02-21T14:04:38Z</time>
      </trkpt>
      <trkpt lat="43.56952" lon="6.64361">
        <ele>216.8</ele>
        <time>2021-02-21T14:04:47Z</time>
      </trkpt>
      <trkpt lat="43.56943" lon="6.64358">
        <ele>217.7</ele>
        <time>2021-02-21T14:04:56Z</time>
      </trkpt>
      <trkpt lat="43.56934" lon="6.64361">
        <ele>216.9</ele>
        <time>2021-02-21T14:05:05Z</time>
      </trkpt>
      <trkpt lat="43.56925" lon="6.64366">
        <ele>216.5</ele>
        <time>2021-02-21T14:05:14Z</time>
      </trkpt>
      <trkpt lat="43.56916" lon="6.64373">
        <ele>216.5</ele>
        <time>2021-02-21T14:05:23Z</time>
      </trkpt>
      <trkpt lat="43.56908" lon="6.64379">
        <ele>216.4</ele>
        <time>2021-02-21T14:05:33Z</time>
      </trkpt>
      <trkpt lat="43.56905" lon="6.64381">
        <ele>216.5</ele>
        <time>2021-02-21T14:05:40Z</time>
      </trkpt>
      <trkpt lat="43.56904" lon="6.64381">
        <ele>216.5</ele>
        <time>2021-02-21T14:05:41Z</time>
      </trkpt>
      <trkpt lat="43.56904" lon="6.64381">
        <ele>216.2</ele>
        <time>2021-02-21T14:05:44Z</time>
      </trkpt>
      <trkpt lat="43.56904" lon="6.6438">
        <ele>216.1</ele>
        <time>2021-02-21T14:05:45Z</time>
      </trkpt>
      <trkpt lat="43.56895" lon="6.64387">
        <ele>216.5</ele>
        <time>2021-02-21T14:05:55Z</time>
      </trkpt>
      <trkpt lat="43.56889" lon="6.64397">
        <ele>215.8</ele>
        <time>2021-02-21T14:06:04Z</time>
      </trkpt>
      <trkpt lat="43.56884" lon="6.64409">
        <ele>215.9</ele>
        <time>2021-02-21T14:06:12Z</time>
      </trkpt>
      <trkpt lat="43.56881" lon="6.64422">
        <ele>215.6</ele>
        <time>2021-02-21T14:06:20Z</time>
      </trkpt>
      <trkpt lat="43.56876" lon="6.64433">
        <ele>215.3</ele>
        <time>2021-02-21T14:06:29Z</time>
      </trkpt>
      <trkpt lat="43.56871" lon="6.64444">
        <ele>214.5</ele>
        <time>2021-02-21T14:06:37Z</time>
      </trkpt>
      <trkpt lat="43.56867" lon="6.64456">
        <ele>214.4</ele>
        <time>2021-02-21T14:06:46Z</time>
      </trkpt>
      <trkpt lat="43.56866" lon="6.64469">
        <ele>214.4</ele>
        <time>2021-02-21T14:06:54Z</time>
      </trkpt>
      <trkpt lat="43.56868" lon="6.6448">
        <ele>214.8</ele>
        <time>2021-02-21T14:07:02Z</time>
      </trkpt>
      <trkpt lat="43.56871" lon="6.64493">
        <ele>211.1</ele>
        <time>2021-02-21T14:07:10Z</time>
      </trkpt>
      <trkpt lat="43.5687" lon="6.64506">
        <ele>214.3</ele>
        <time>2021-02-21T14:07:18Z</time>
      </trkpt>
      <trkpt lat="43.5687" lon="6.64519">
        <ele>212.2</ele>
        <time>2021-02-21T14:07:26Z</time>
      </trkpt>
      <trkpt lat="43.56875" lon="6.6453">
        <ele>212.8</ele>
        <time>2021-02-21T14:07:34Z</time>
      </trkpt>
      <trkpt lat="43.56882" lon="6.6454">
        <ele>211.5</ele>
        <time>2021-02-21T14:07:42Z</time>
      </trkpt>
      <trkpt lat="43.56886" lon="6.64553">
        <ele>210.9</ele>
        <time>2021-02-21T14:07:53Z</time>
      </trkpt>
      <trkpt lat="43.56881" lon="6.64564">
        <ele>210.7</ele>
        <time>2021-02-21T14:08:02Z</time>
      </trkpt>
      <trkpt lat="43.56877" lon="6.64571">
        <ele>210.2</ele>
        <time>2021-02-21T14:08:11Z</time>
      </trkpt>
      <trkpt lat="43.56876" lon="6.64571">
        <ele>210.4</ele>
        <time>2021-02-21T14:08:12Z</time>
      </trkpt>
      <trkpt lat="43.56871" lon="6.64583">
        <ele>210.4</ele>
        <time>2021-02-21T14:08:19Z</time>
      </trkpt>
      <trkpt lat="43.5687" lon="6.64595">
        <ele>209.3</ele>
        <time>2021-02-21T14:08:26Z</time>
      </trkpt>
      <trkpt lat="43.56869" lon="6.64608">
        <ele>208.4</ele>
        <time>2021-02-21T14:08:34Z</time>
      </trkpt>
      <trkpt lat="43.56867" lon="6.64621">
        <ele>209</ele>
        <time>2021-02-21T14:08:43Z</time>
      </trkpt>
      <trkpt lat="43.56865" lon="6.64633">
        <ele>207.3</ele>
        <time>2021-02-21T14:08:52Z</time>
      </trkpt>
      <trkpt lat="43.56862" lon="6.64646">
        <ele>207</ele>
        <time>2021-02-21T14:09:02Z</time>
      </trkpt>
      <trkpt lat="43.56857" lon="6.64656">
        <ele>207.9</ele>
        <time>2021-02-21T14:09:10Z</time>
      </trkpt>
      <trkpt lat="43.56851" lon="6.64668">
        <ele>207.2</ele>
        <time>2021-02-21T14:09:18Z</time>
      </trkpt>
      <trkpt lat="43.56847" lon="6.64679">
        <ele>207.1</ele>
        <time>2021-02-21T14:09:27Z</time>
      </trkpt>
      <trkpt lat="43.56844" lon="6.64691">
        <ele>205.4</ele>
        <time>2021-02-21T14:09:37Z</time>
      </trkpt>
      <trkpt lat="43.56843" lon="6.64703">
        <ele>204.3</ele>
        <time>2021-02-21T14:09:45Z</time>
      </trkpt>
      <trkpt lat="43.56841" lon="6.64716">
        <ele>203.3</ele>
        <time>2021-02-21T14:09:52Z</time>
      </trkpt>
      <trkpt lat="43.56838" lon="6.64728">
        <ele>203.7</ele>
        <time>2021-02-21T14:10:01Z</time>
      </trkpt>
      <trkpt lat="43.56838" lon="6.64741">
        <ele>203.9</ele>
        <time>2021-02-21T14:10:09Z</time>
      </trkpt>
      <trkpt lat="43.56841" lon="6.64754">
        <ele>204</ele>
        <time>2021-02-21T14:10:16Z</time>
      </trkpt>
      <trkpt lat="43.56845" lon="6.64765">
        <ele>203.3</ele>
        <time>2021-02-21T14:10:25Z</time>
      </trkpt>
      <trkpt lat="43.56846" lon="6.64766">
        <ele>202.8</ele>
        <time>2021-02-21T14:10:28Z</time>
      </trkpt>
      <trkpt lat="43.56846" lon="6.64767">
        <ele>203.3</ele>
        <time>2021-02-21T14:10:31Z</time>
      </trkpt>
      <trkpt lat="43.56837" lon="6.64772">
        <ele>204.5</ele>
        <time>2021-02-21T14:10:40Z</time>
      </trkpt>
      <trkpt lat="43.56835" lon="6.64772">
        <ele>204.4</ele>
        <time>2021-02-21T14:10:47Z</time>
      </trkpt>
      <trkpt lat="43.56834" lon="6.64772">
        <ele>204.5</ele>
        <time>2021-02-21T14:10:59Z</time>
      </trkpt>
      <trkpt lat="43.56827" lon="6.64765">
        <ele>205.5</ele>
        <time>2021-02-21T14:11:10Z</time>
      </trkpt>
      <trkpt lat="43.56821" lon="6.64755">
        <ele>205.9</ele>
        <time>2021-02-21T14:11:21Z</time>
      </trkpt>
      <trkpt lat="43.56818" lon="6.64743">
        <ele>206.3</ele>
        <time>2021-02-21T14:11:34Z</time>
      </trkpt>
      <trkpt lat="43.56818" lon="6.64742">
        <ele>206.1</ele>
        <time>2021-02-21T14:11:40Z</time>
      </trkpt>
      <trkpt lat="43.56817" lon="6.64742">
        <ele>205.8</ele>
        <time>2021-02-21T14:11:42Z</time>
      </trkpt>
      <trkpt lat="43.56817" lon="6.64742">
        <ele>205.5</ele>
        <time>2021-02-21T14:11:44Z</time>
      </trkpt>
      <trkpt lat="43.56817" lon="6.64742">
        <ele>205.8</ele>
        <time>2021-02-21T14:11:57Z</time>
      </trkpt>
      <trkpt lat="43.56817" lon="6.64742">
        <ele>206</ele>
        <time>2021-02-21T14:11:58Z</time>
      </trkpt>
      <trkpt lat="43.56817" lon="6.64742">
        <ele>205.5</ele>
        <time>2021-02-21T14:12:08Z</time>
      </trkpt>
      <trkpt lat="43.56817" lon="6.64742">
        <ele>205.6</ele>
        <time>2021-02-21T14:12:09Z</time>
      </trkpt>
      <trkpt lat="43.56817" lon="6.64742">
        <ele>206.4</ele>
        <time>2021-02-21T14:12:14Z</time>
      </trkpt>
      <trkpt lat="43.56817" lon="6.64742">
        <ele>206.3</ele>
        <time>2021-02-21T14:12:15Z</time>
      </trkpt>
      <trkpt lat="43.56817" lon="6.64742">
        <ele>206.2</ele>
        <time>2021-02-21T14:12:16Z</time>
      </trkpt>
      <trkpt lat="43.56817" lon="6.64742">
        <ele>206.2</ele>
        <time>2021-02-21T14:12:17Z</time>
      </trkpt>
      <trkpt lat="43.56818" lon="6.64743">
        <ele>206.1</ele>
        <time>2021-02-21T14:12:18Z</time>
      </trkpt>
      <trkpt lat="43.5682" lon="6.64752">
        <ele>205</ele>
        <time>2021-02-21T14:12:29Z</time>
      </trkpt>
      <trkpt lat="43.5682" lon="6.64753">
        <ele>204.9</ele>
        <time>2021-02-21T14:12:33Z</time>
      </trkpt>
      <trkpt lat="43.5682" lon="6.64766">
        <ele>203.9</ele>
        <time>2021-02-21T14:12:42Z</time>
      </trkpt>
      <trkpt lat="43.56827" lon="6.64777">
        <ele>204.3</ele>
        <time>2021-02-21T14:12:50Z</time>
      </trkpt>
      <trkpt lat="43.56836" lon="6.64779">
        <ele>203.8</ele>
        <time>2021-02-21T14:12:57Z</time>
      </trkpt>
      <trkpt lat="43.56846" lon="6.64778">
        <ele>203.9</ele>
        <time>2021-02-21T14:13:06Z</time>
      </trkpt>
      <trkpt lat="43.56851" lon="6.64788">
        <ele>206.8</ele>
        <time>2021-02-21T14:13:20Z</time>
      </trkpt>
      <trkpt lat="43.56853" lon="6.64801">
        <ele>206.5</ele>
        <time>2021-02-21T14:13:32Z</time>
      </trkpt>
      <trkpt lat="43.56854" lon="6.64813">
        <ele>205.7</ele>
        <time>2021-02-21T14:13:41Z</time>
      </trkpt>
      <trkpt lat="43.56856" lon="6.64826">
        <ele>207.3</ele>
        <time>2021-02-21T14:13:50Z</time>
      </trkpt>
      <trkpt lat="43.56858" lon="6.64838">
        <ele>207.3</ele>
        <time>2021-02-21T14:13:59Z</time>
      </trkpt>
      <trkpt lat="43.5686" lon="6.64851">
        <ele>208.1</ele>
        <time>2021-02-21T14:14:09Z</time>
      </trkpt>
      <trkpt lat="43.56865" lon="6.64863">
        <ele>208.4</ele>
        <time>2021-02-21T14:14:18Z</time>
      </trkpt>
      <trkpt lat="43.56865" lon="6.64875">
        <ele>208.7</ele>
        <time>2021-02-21T14:14:34Z</time>
      </trkpt>
      <trkpt lat="43.56865" lon="6.64875">
        <ele>209.1</ele>
        <time>2021-02-21T14:14:40Z</time>
      </trkpt>
      <trkpt lat="43.56865" lon="6.64875">
        <ele>209.1</ele>
        <time>2021-02-21T14:14:41Z</time>
      </trkpt>
      <trkpt lat="43.56864" lon="6.64876">
        <ele>209.1</ele>
        <time>2021-02-21T14:14:42Z</time>
      </trkpt>
      <trkpt lat="43.56864" lon="6.64878">
        <ele>209</ele>
        <time>2021-02-21T14:14:46Z</time>
      </trkpt>
      <trkpt lat="43.56864" lon="6.64877">
        <ele>208.7</ele>
        <time>2021-02-21T14:14:48Z</time>
      </trkpt>
      <trkpt lat="43.56864" lon="6.64877">
        <ele>208.5</ele>
        <time>2021-02-21T14:14:50Z</time>
      </trkpt>
      <trkpt lat="43.56864" lon="6.64877">
        <ele>208.4</ele>
        <time>2021-02-21T14:14:51Z</time>
      </trkpt>
      <trkpt lat="43.56864" lon="6.64877">
        <ele>208.2</ele>
        <time>2021-02-21T14:14:54Z</time>
      </trkpt>
      <trkpt lat="43.56863" lon="6.64877">
        <ele>207.6</ele>
        <time>2021-02-21T14:14:58Z</time>
      </trkpt>
      <trkpt lat="43.56864" lon="6.64877">
        <ele>207.9</ele>
        <time>2021-02-21T14:15:00Z</time>
      </trkpt>
      <trkpt lat="43.56864" lon="6.64877">
        <ele>208.1</ele>
        <time>2021-02-21T14:15:05Z</time>
      </trkpt>
      <trkpt lat="43.56865" lon="6.64877">
        <ele>207.6</ele>
        <time>2021-02-21T14:15:08Z</time>
      </trkpt>
      <trkpt lat="43.56865" lon="6.64877">
        <ele>207.5</ele>
        <time>2021-02-21T14:15:09Z</time>
      </trkpt>
      <trkpt lat="43.56871" lon="6.64888">
        <ele>209.1</ele>
        <time>2021-02-21T14:15:23Z</time>
      </trkpt>
      <trkpt lat="43.56876" lon="6.649">
        <ele>208.7</ele>
        <time>2021-02-21T14:15:32Z</time>
      </trkpt>
      <trkpt lat="43.56879" lon="6.64912">
        <ele>208</ele>
        <time>2021-02-21T14:15:43Z</time>
      </trkpt>
      <trkpt lat="43.56878" lon="6.64925">
        <ele>209.9</ele>
        <time>2021-02-21T14:15:52Z</time>
      </trkpt>
      <trkpt lat="43.56876" lon="6.64938">
        <ele>209.3</ele>
        <time>2021-02-21T14:16:00Z</time>
      </trkpt>
      <trkpt lat="43.56874" lon="6.6495">
        <ele>211.4</ele>
        <time>2021-02-21T14:16:08Z</time>
      </trkpt>
      <trkpt lat="43.56873" lon="6.64964">
        <ele>211.4</ele>
        <time>2021-02-21T14:16:17Z</time>
      </trkpt>
      <trkpt lat="43.56876" lon="6.64976">
        <ele>211.6</ele>
        <time>2021-02-21T14:16:26Z</time>
      </trkpt>
      <trkpt lat="43.56879" lon="6.64988">
        <ele>212.3</ele>
        <time>2021-02-21T14:16:36Z</time>
      </trkpt>
      <trkpt lat="43.56879" lon="6.65001">
        <ele>212.5</ele>
        <time>2021-02-21T14:16:46Z</time>
      </trkpt>
      <trkpt lat="43.56877" lon="6.65015">
        <ele>213.2</ele>
        <time>2021-02-21T14:16:55Z</time>
      </trkpt>
      <trkpt lat="43.56877" lon="6.65027">
        <ele>213.5</ele>
        <time>2021-02-21T14:17:03Z</time>
      </trkpt>
      <trkpt lat="43.56873" lon="6.6504">
        <ele>213.6</ele>
        <time>2021-02-21T14:17:12Z</time>
      </trkpt>
      <trkpt lat="43.56875" lon="6.65053">
        <ele>213.5</ele>
        <time>2021-02-21T14:17:22Z</time>
      </trkpt>
      <trkpt lat="43.56874" lon="6.65066">
        <ele>214.7</ele>
        <time>2021-02-21T14:17:31Z</time>
      </trkpt>
      <trkpt lat="43.56872" lon="6.65078">
        <ele>215.7</ele>
        <time>2021-02-21T14:17:40Z</time>
      </trkpt>
      <trkpt lat="43.56871" lon="6.65091">
        <ele>216.8</ele>
        <time>2021-02-21T14:17:50Z</time>
      </trkpt>
      <trkpt lat="43.5687" lon="6.65104">
        <ele>216.7</ele>
        <time>2021-02-21T14:17:58Z</time>
      </trkpt>
      <trkpt lat="43.56871" lon="6.65118">
        <ele>216.9</ele>
        <time>2021-02-21T14:18:07Z</time>
      </trkpt>
      <trkpt lat="43.56873" lon="6.65131">
        <ele>216.2</ele>
        <time>2021-02-21T14:18:16Z</time>
      </trkpt>
      <trkpt lat="43.56872" lon="6.65143">
        <ele>216.6</ele>
        <time>2021-02-21T14:18:24Z</time>
      </trkpt>
      <trkpt lat="43.5687" lon="6.65156">
        <ele>216.5</ele>
        <time>2021-02-21T14:18:32Z</time>
      </trkpt>
      <trkpt lat="43.5687" lon="6.65163">
        <ele>216.7</ele>
        <time>2021-02-21T14:18:41Z</time>
      </trkpt>
      <trkpt lat="43.5687" lon="6.65164">
        <ele>216.8</ele>
        <time>2021-02-21T14:18:45Z</time>
      </trkpt>
      <trkpt lat="43.56867" lon="6.65176">
        <ele>216.3</ele>
        <time>2021-02-21T14:18:53Z</time>
      </trkpt>
      <trkpt lat="43.56867" lon="6.6519">
        <ele>216.6</ele>
        <time>2021-02-21T14:19:02Z</time>
      </trkpt>
      <trkpt lat="43.5687" lon="6.65202">
        <ele>216.7</ele>
        <time>2021-02-21T14:19:13Z</time>
      </trkpt>
      <trkpt lat="43.56869" lon="6.65215">
        <ele>217</ele>
        <time>2021-02-21T14:19:22Z</time>
      </trkpt>
      <trkpt lat="43.56872" lon="6.65228">
        <ele>217.8</ele>
        <time>2021-02-21T14:19:32Z</time>
      </trkpt>
      <trkpt lat="43.56872" lon="6.65242">
        <ele>217.9</ele>
        <time>2021-02-21T14:19:41Z</time>
      </trkpt>
      <trkpt lat="43.56872" lon="6.65255">
        <ele>218.4</ele>
        <time>2021-02-21T14:19:51Z</time>
      </trkpt>
      <trkpt lat="43.56874" lon="6.65268">
        <ele>219.7</ele>
        <time>2021-02-21T14:20:02Z</time>
      </trkpt>
      <trkpt lat="43.56874" lon="6.65281">
        <ele>221.3</ele>
        <time>2021-02-21T14:20:13Z</time>
      </trkpt>
      <trkpt lat="43.56871" lon="6.65293">
        <ele>222.3</ele>
        <time>2021-02-21T14:20:23Z</time>
      </trkpt>
      <trkpt lat="43.56868" lon="6.65305">
        <ele>222.4</ele>
        <time>2021-02-21T14:20:33Z</time>
      </trkpt>
      <trkpt lat="43.56865" lon="6.65318">
        <ele>221.9</ele>
        <time>2021-02-21T14:20:42Z</time>
      </trkpt>
      <trkpt lat="43.5686" lon="6.6533">
        <ele>222.8</ele>
        <time>2021-02-21T14:20:50Z</time>
      </trkpt>
      <trkpt lat="43.56856" lon="6.65342">
        <ele>222.7</ele>
        <time>2021-02-21T14:20:58Z</time>
      </trkpt>
      <trkpt lat="43.56853" lon="6.65355">
        <ele>222.9</ele>
        <time>2021-02-21T14:21:07Z</time>
      </trkpt>
      <trkpt lat="43.56852" lon="6.65369">
        <ele>223.6</ele>
        <time>2021-02-21T14:21:16Z</time>
      </trkpt>
      <trkpt lat="43.56849" lon="6.65381">
        <ele>224.1</ele>
        <time>2021-02-21T14:21:25Z</time>
      </trkpt>
      <trkpt lat="43.56845" lon="6.65392">
        <ele>223.4</ele>
        <time>2021-02-21T14:21:34Z</time>
      </trkpt>
      <trkpt lat="43.56843" lon="6.65406">
        <ele>224</ele>
        <time>2021-02-21T14:21:44Z</time>
      </trkpt>
      <trkpt lat="43.56842" lon="6.6542">
        <ele>224</ele>
        <time>2021-02-21T14:21:55Z</time>
      </trkpt>
      <trkpt lat="43.56842" lon="6.65433">
        <ele>223.1</ele>
        <time>2021-02-21T14:22:04Z</time>
      </trkpt>
      <trkpt lat="43.5684" lon="6.65446">
        <ele>224.5</ele>
        <time>2021-02-21T14:22:13Z</time>
      </trkpt>
      <trkpt lat="43.56839" lon="6.65452">
        <ele>225.2</ele>
        <time>2021-02-21T14:22:19Z</time>
      </trkpt>
      <trkpt lat="43.56838" lon="6.65453">
        <ele>225</ele>
        <time>2021-02-21T14:22:20Z</time>
      </trkpt>
      <trkpt lat="43.56838" lon="6.65455">
        <ele>225</ele>
        <time>2021-02-21T14:22:24Z</time>
      </trkpt>
      <trkpt lat="43.56838" lon="6.65455">
        <ele>225</ele>
        <time>2021-02-21T14:22:25Z</time>
      </trkpt>
      <trkpt lat="43.56839" lon="6.65455">
        <ele>225.5</ele>
        <time>2021-02-21T14:22:29Z</time>
      </trkpt>
      <trkpt lat="43.56839" lon="6.65455">
        <ele>225.4</ele>
        <time>2021-02-21T14:22:30Z</time>
      </trkpt>
      <trkpt lat="43.56839" lon="6.65457">
        <ele>225.1</ele>
        <time>2021-02-21T14:22:34Z</time>
      </trkpt>
      <trkpt lat="43.56839" lon="6.65457">
        <ele>225.3</ele>
        <time>2021-02-21T14:22:41Z</time>
      </trkpt>
      <trkpt lat="43.56839" lon="6.65457">
        <ele>225.2</ele>
        <time>2021-02-21T14:22:43Z</time>
      </trkpt>
      <trkpt lat="43.56839" lon="6.65457">
        <ele>224.9</ele>
        <time>2021-02-21T14:22:44Z</time>
      </trkpt>
      <trkpt lat="43.56835" lon="6.65469">
        <ele>223.8</ele>
        <time>2021-02-21T14:22:57Z</time>
      </trkpt>
      <trkpt lat="43.56831" lon="6.65479">
        <ele>224.8</ele>
        <time>2021-02-21T14:23:10Z</time>
      </trkpt>
      <trkpt lat="43.56831" lon="6.65479">
        <ele>224.6</ele>
        <time>2021-02-21T14:23:12Z</time>
      </trkpt>
      <trkpt lat="43.56826" lon="6.6549">
        <ele>224</ele>
        <time>2021-02-21T14:23:22Z</time>
      </trkpt>
      <trkpt lat="43.56822" lon="6.65502">
        <ele>223.7</ele>
        <time>2021-02-21T14:23:30Z</time>
      </trkpt>
      <trkpt lat="43.56817" lon="6.65513">
        <ele>223.3</ele>
        <time>2021-02-21T14:23:38Z</time>
      </trkpt>
      <trkpt lat="43.56812" lon="6.65525">
        <ele>222.9</ele>
        <time>2021-02-21T14:23:46Z</time>
      </trkpt>
      <trkpt lat="43.56808" lon="6.65536">
        <ele>221.5</ele>
        <time>2021-02-21T14:23:54Z</time>
      </trkpt>
      <trkpt lat="43.56803" lon="6.65548">
        <ele>222</ele>
        <time>2021-02-21T14:24:03Z</time>
      </trkpt>
      <trkpt lat="43.56798" lon="6.6556">
        <ele>223.8</ele>
        <time>2021-02-21T14:24:11Z</time>
      </trkpt>
      <trkpt lat="43.56793" lon="6.65572">
        <ele>221.3</ele>
        <time>2021-02-21T14:24:20Z</time>
      </trkpt>
      <trkpt lat="43.56786" lon="6.65581">
        <ele>223.5</ele>
        <time>2021-02-21T14:24:28Z</time>
      </trkpt>
      <trkpt lat="43.56781" lon="6.65593">
        <ele>222.1</ele>
        <time>2021-02-21T14:24:37Z</time>
      </trkpt>
      <trkpt lat="43.56775" lon="6.65603">
        <ele>222</ele>
        <time>2021-02-21T14:24:44Z</time>
      </trkpt>
      <trkpt lat="43.56768" lon="6.65611">
        <ele>221.2</ele>
        <time>2021-02-21T14:24:53Z</time>
      </trkpt>
      <trkpt lat="43.56759" lon="6.65619">
        <ele>220.1</ele>
        <time>2021-02-21T14:25:03Z</time>
      </trkpt>
      <trkpt lat="43.56751" lon="6.65626">
        <ele>219.4</ele>
        <time>2021-02-21T14:25:13Z</time>
      </trkpt>
      <trkpt lat="43.56743" lon="6.65634">
        <ele>218.4</ele>
        <time>2021-02-21T14:25:20Z</time>
      </trkpt>
      <trkpt lat="43.56737" lon="6.65644">
        <ele>217.5</ele>
        <time>2021-02-21T14:25:27Z</time>
      </trkpt>
      <trkpt lat="43.56731" lon="6.65655">
        <ele>216.6</ele>
        <time>2021-02-21T14:25:35Z</time>
      </trkpt>
      <trkpt lat="43.56725" lon="6.65665">
        <ele>215.5</ele>
        <time>2021-02-21T14:25:45Z</time>
      </trkpt>
      <trkpt lat="43.56724" lon="6.65667">
        <ele>216.4</ele>
        <time>2021-02-21T14:25:49Z</time>
      </trkpt>
      <trkpt lat="43.56724" lon="6.65667">
        <ele>215.5</ele>
        <time>2021-02-21T14:26:08Z</time>
      </trkpt>
      <trkpt lat="43.56721" lon="6.6568">
        <ele>214.8</ele>
        <time>2021-02-21T14:26:20Z</time>
      </trkpt>
      <trkpt lat="43.56719" lon="6.65692">
        <ele>213</ele>
        <time>2021-02-21T14:26:29Z</time>
      </trkpt>
      <trkpt lat="43.56714" lon="6.65703">
        <ele>213.8</ele>
        <time>2021-02-21T14:26:38Z</time>
      </trkpt>
      <trkpt lat="43.5671" lon="6.65715">
        <ele>214.5</ele>
        <time>2021-02-21T14:26:48Z</time>
      </trkpt>
      <trkpt lat="43.56705" lon="6.65725">
        <ele>212</ele>
        <time>2021-02-21T14:26:57Z</time>
      </trkpt>
      <trkpt lat="43.56702" lon="6.65737">
        <ele>210.1</ele>
        <time>2021-02-21T14:27:07Z</time>
      </trkpt>
      <trkpt lat="43.56701" lon="6.6575">
        <ele>209.2</ele>
        <time>2021-02-21T14:27:20Z</time>
      </trkpt>
      <trkpt lat="43.567" lon="6.6576">
        <ele>208.3</ele>
        <time>2021-02-21T14:27:35Z</time>
      </trkpt>
      <trkpt lat="43.56699" lon="6.6576">
        <ele>208.6</ele>
        <time>2021-02-21T14:27:38Z</time>
      </trkpt>
      <trkpt lat="43.567" lon="6.6576">
        <ele>208.1</ele>
        <time>2021-02-21T14:27:48Z</time>
      </trkpt>
      <trkpt lat="43.567" lon="6.6576">
        <ele>208</ele>
        <time>2021-02-21T14:27:49Z</time>
      </trkpt>
      <trkpt lat="43.567" lon="6.6576">
        <ele>208.2</ele>
        <time>2021-02-21T14:27:50Z</time>
      </trkpt>
      <trkpt lat="43.56699" lon="6.65759">
        <ele>208.4</ele>
        <time>2021-02-21T14:27:51Z</time>
      </trkpt>
      <trkpt lat="43.5669" lon="6.65759">
        <ele>207.6</ele>
        <time>2021-02-21T14:28:05Z</time>
      </trkpt>
      <trkpt lat="43.56687" lon="6.65771">
        <ele>207.8</ele>
        <time>2021-02-21T14:28:14Z</time>
      </trkpt>
      <trkpt lat="43.56679" lon="6.65778">
        <ele>207.2</ele>
        <time>2021-02-21T14:28:24Z</time>
      </trkpt>
      <trkpt lat="43.56686" lon="6.65788">
        <ele>205.1</ele>
        <time>2021-02-21T14:28:40Z</time>
      </trkpt>
      <trkpt lat="43.56693" lon="6.65796">
        <ele>206.5</ele>
        <time>2021-02-21T14:28:55Z</time>
      </trkpt>
      <trkpt lat="43.56698" lon="6.65807">
        <ele>207.4</ele>
        <time>2021-02-21T14:29:06Z</time>
      </trkpt>
      <trkpt lat="43.56705" lon="6.65815">
        <ele>207.8</ele>
        <time>2021-02-21T14:29:16Z</time>
      </trkpt>
      <trkpt lat="43.56709" lon="6.65826">
        <ele>209.4</ele>
        <time>2021-02-21T14:29:26Z</time>
      </trkpt>
      <trkpt lat="43.56712" lon="6.65839">
        <ele>207.5</ele>
        <time>2021-02-21T14:29:35Z</time>
      </trkpt>
      <trkpt lat="43.56717" lon="6.6585">
        <ele>207</ele>
        <time>2021-02-21T14:29:44Z</time>
      </trkpt>
      <trkpt lat="43.56726" lon="6.65857">
        <ele>208.7</ele>
        <time>2021-02-21T14:29:54Z</time>
      </trkpt>
      <trkpt lat="43.56733" lon="6.65865">
        <ele>209.6</ele>
        <time>2021-02-21T14:30:03Z</time>
      </trkpt>
      <trkpt lat="43.56739" lon="6.65874">
        <ele>211.5</ele>
        <time>2021-02-21T14:30:14Z</time>
      </trkpt>
      <trkpt lat="43.56747" lon="6.65881">
        <ele>211.7</ele>
        <time>2021-02-21T14:30:26Z</time>
      </trkpt>
      <trkpt lat="43.56752" lon="6.65891">
        <ele>210.9</ele>
        <time>2021-02-21T14:30:39Z</time>
      </trkpt>
      <trkpt lat="43.5676" lon="6.65898">
        <ele>211.9</ele>
        <time>2021-02-21T14:30:49Z</time>
      </trkpt>
      <trkpt lat="43.56766" lon="6.65908">
        <ele>213.5</ele>
        <time>2021-02-21T14:31:01Z</time>
      </trkpt>
      <trkpt lat="43.56769" lon="6.6592">
        <ele>214.5</ele>
        <time>2021-02-21T14:31:13Z</time>
      </trkpt>
      <trkpt lat="43.56772" lon="6.65933">
        <ele>214.2</ele>
        <time>2021-02-21T14:31:23Z</time>
      </trkpt>
      <trkpt lat="43.56774" lon="6.65943">
        <ele>214.7</ele>
        <time>2021-02-21T14:31:33Z</time>
      </trkpt>
      <trkpt lat="43.56774" lon="6.65943">
        <ele>215.1</ele>
        <time>2021-02-21T14:31:35Z</time>
      </trkpt>
      <trkpt lat="43.56776" lon="6.65956">
        <ele>216.1</ele>
        <time>2021-02-21T14:31:46Z</time>
      </trkpt>
      <trkpt lat="43.56779" lon="6.65968">
        <ele>217.1</ele>
        <time>2021-02-21T14:31:56Z</time>
      </trkpt>
      <trkpt lat="43.56784" lon="6.6598">
        <ele>217.5</ele>
        <time>2021-02-21T14:32:07Z</time>
      </trkpt>
      <trkpt lat="43.56792" lon="6.65986">
        <ele>217.6</ele>
        <time>2021-02-21T14:32:16Z</time>
      </trkpt>
      <trkpt lat="43.56798" lon="6.65997">
        <ele>217.6</ele>
        <time>2021-02-21T14:32:25Z</time>
      </trkpt>
      <trkpt lat="43.56804" lon="6.66006">
        <ele>218.3</ele>
        <time>2021-02-21T14:32:34Z</time>
      </trkpt>
      <trkpt lat="43.5681" lon="6.66017">
        <ele>219.3</ele>
        <time>2021-02-21T14:32:46Z</time>
      </trkpt>
      <trkpt lat="43.56815" lon="6.66027">
        <ele>219.3</ele>
        <time>2021-02-21T14:32:54Z</time>
      </trkpt>
      <trkpt lat="43.56823" lon="6.66033">
        <ele>220</ele>
        <time>2021-02-21T14:33:03Z</time>
      </trkpt>
      <trkpt lat="43.56832" lon="6.66037">
        <ele>218.3</ele>
        <time>2021-02-21T14:33:12Z</time>
      </trkpt>
      <trkpt lat="43.56841" lon="6.66041">
        <ele>216.6</ele>
        <time>2021-02-21T14:33:21Z</time>
      </trkpt>
      <trkpt lat="43.56851" lon="6.66042">
        <ele>218.3</ele>
        <time>2021-02-21T14:33:30Z</time>
      </trkpt>
      <trkpt lat="43.5686" lon="6.66037">
        <ele>218.3</ele>
        <time>2021-02-21T14:33:39Z</time>
      </trkpt>
      <trkpt lat="43.56868" lon="6.66033">
        <ele>217.6</ele>
        <time>2021-02-21T14:33:46Z</time>
      </trkpt>
      <trkpt lat="43.56878" lon="6.66038">
        <ele>218.5</ele>
        <time>2021-02-21T14:33:55Z</time>
      </trkpt>
      <trkpt lat="43.56877" lon="6.66051">
        <ele>218</ele>
        <time>2021-02-21T14:34:04Z</time>
      </trkpt>
      <trkpt lat="43.56878" lon="6.66063">
        <ele>217.5</ele>
        <time>2021-02-21T14:34:13Z</time>
      </trkpt>
      <trkpt lat="43.5688" lon="6.66076">
        <ele>216.7</ele>
        <time>2021-02-21T14:34:20Z</time>
      </trkpt>
      <trkpt lat="43.56886" lon="6.66085">
        <ele>217.5</ele>
        <time>2021-02-21T14:34:28Z</time>
      </trkpt>
      <trkpt lat="43.56894" lon="6.66092">
        <ele>217.2</ele>
        <time>2021-02-21T14:34:37Z</time>
      </trkpt>
      <trkpt lat="43.56903" lon="6.66094">
        <ele>216.3</ele>
        <time>2021-02-21T14:34:47Z</time>
      </trkpt>
      <trkpt lat="43.56912" lon="6.66094">
        <ele>216.8</ele>
        <time>2021-02-21T14:34:53Z</time>
      </trkpt>
      <trkpt lat="43.56922" lon="6.6609">
        <ele>215.9</ele>
        <time>2021-02-21T14:35:00Z</time>
      </trkpt>
      <trkpt lat="43.56932" lon="6.66092">
        <ele>215.8</ele>
        <time>2021-02-21T14:35:08Z</time>
      </trkpt>
      <trkpt lat="43.56941" lon="6.66092">
        <ele>215.6</ele>
        <time>2021-02-21T14:35:15Z</time>
      </trkpt>
      <trkpt lat="43.56951" lon="6.66094">
        <ele>215.2</ele>
        <time>2021-02-21T14:35:26Z</time>
      </trkpt>
      <trkpt lat="43.56958" lon="6.66097">
        <ele>214.7</ele>
        <time>2021-02-21T14:35:33Z</time>
      </trkpt>
      <trkpt lat="43.56958" lon="6.66097">
        <ele>214.7</ele>
        <time>2021-02-21T14:35:33Z</time>
      </trkpt>
    </trkseg>
  </trk>
</gpx>